Time,TemperatureF,DewpointF,PressureIn,WindDirection,WindDirectionDegrees,WindSpeedMPH,WindSpeedGustMPH,Humidity,HourlyPrecipIn,Conditions,Clouds,dailyrainin,SolarRadiationWatts/m^2,SoftwareType,DateUTC
2013-11-08 00:00:00,46.8,31.5,30.01,North,8,1.0,5.0,55,0.00,,,0.09,0.00,VWS V14.01,2013-11-08 05:00:00,
2013-11-08 00:01:00,47.0,31.7,30.01,NNE,12,0.0,6.0,55,0.00,,,0.09,0.00,VWS V14.01,2013-11-08 05:01:00,
2013-11-08 00:02:00,46.8,31.5,30.01,NNE,21,0.0,1.0,55,0.00,,,0.00,0.00,VWS V14.01,2013-11-08 05:02:00,
2013-11-08 00:03:00,46.7,31.4,30.01,North,353,0.0,1.0,55,0.00,,,0.00,0.00,VWS V14.01,2013-11-08 05:03:00,
2013-11-08 00:04:00,46.7,31.4,30.01,North,357,4.0,5.0,55,0.00,,,0.00,0.00,VWS V14.01,2013-11-08 05:04:00,
2013-11-08 00:05:00,46.7,31.4,30.01,North,0,3.0,4.0,55,0.00,,,0.00,0.00,VWS V14.01,2013-11-08 05:05:00,
2013-11-08 00:06:00,46.7,31.4,30.01,NNW,335,4.0,5.0,55,0.00,,,0.00,0.00,VWS V14.01,2013-11-08 05:06:00,
2013-11-08 00:07:00,46.8,31.5,30.01,North,8,1.0,5.0,55,0.00,,,0.09,0.00,VWS V14.01,2013-11-08 05:07:00,
2013-11-08 00:08:00,46.7,31.4,30.01,North,6,9.0,9.0,55,0.00,,,0.00,0.00,VWS V14.01,2013-11-08 05:08:00,
2013-11-08 00:09:00,46.7,31.4,30.01,NNW,342,0.0,13.0,55,0.00,,,0.00,0.00,VWS V14.01,2013-11-08 05:09:00,
2013-11-08 00:10:00,46.5,31.2,30.01,North,353,0.0,5.0,55,0.00,,,0.00,0.00,VWS V14.01,2013-11-08 05:10:00,
2013-11-08 00:11:00,46.5,31.7,30.01,NNE,30,0.0,7.0,56,0.00,,,0.00,0.00,VWS V14.01,2013-11-08 05:11:00,
2013-11-08 00:12:00,46.7,31.4,30.01,NNW,335,4.0,4.0,55,0.00,,,0.00,0.00,VWS V14.01,2013-11-08 05:12:00,
2013-11-08 00:13:00,46.5,31.7,30.01,NNE,30,0.0,0.0,56,0.00,,,0.00,0.00,VWS V14.01,2013-11-08 05:13:00,
2013-11-08 00:14:00,46.5,31.7,30.01,North,0,0.0,0.0,56,0.00,,,0.00,0.00,VWS V14.01,2013-11-08 05:14:00,
2013-11-08 00:15:00,46.4,31.6,30.02,NNW,345,0.0,9.0,56,0.00,,,0.00,0.00,VWS V14.01,2013-11-08 05:15:00,
2013-11-08 00:16:00,46.4,31.6,30.02,NNW,334,0.0,2.0,56,0.00,,,0.00,0.00,VWS V14.01,2013-11-08 05:16:00,
2013-11-08 00:17:00,46.5,31.7,30.01,NNE,30,0.0,0.0,56,0.00,,,0.00,0.00,VWS V14.01,2013-11-08 05:17:00,
2013-11-08 00:18:00,46.4,31.6,30.02,NNE,33,1.0,4.0,56,0.00,,,0.00,0.00,VWS V14.01,2013-11-08 05:18:00,
2013-11-08 00:19:00,46.2,31.4,30.02,North,0,0.0,3.0,56,0.00,,,0.00,0.00,VWS V14.01,2013-11-08 05:19:00,
2013-11-08 00:20:00,46.2,31.4,30.02,North,2,0.0,2.0,56,0.00,,,0.00,0.00,VWS V14.01,2013-11-08 05:20:00,
2013-11-08 00:21:00,46.2,31.4,30.02,NNE,16,4.0,4.0,56,0.00,,,0.00,0.00,VWS V14.01,2013-11-08 05:21:00,
2013-11-08 00:22:00,46.4,31.6,30.02,NNW,334,1.0,1.0,56,0.00,,,0.00,0.00,VWS V14.01,2013-11-08 05:22:00,
2013-11-08 00:23:00,46.2,31.4,30.02,NW,306,0.0,0.0,56,0.00,,,0.00,0.00,VWS V14.01,2013-11-08 05:23:00,
2013-11-08 00:24:00,46.2,31.8,30.02,North,0,2.0,7.0,57,0.00,,,0.00,0.00,VWS V14.01,2013-11-08 05:24:00,
2013-11-08 00:25:00,46.1,31.7,30.02,North,349,0.0,4.0,57,0.00,,,0.00,0.00,VWS V14.01,2013-11-08 05:25:00,
2013-11-08 00:26:00,46.1,31.7,30.02,North,349,0.0,0.0,57,0.00,,,0.00,0.00,VWS V14.01,2013-11-08 05:26:00,
2013-11-08 00:27:00,46.2,31.4,30.02,North,5,0.0,4.0,56,0.00,,,0.00,0.00,VWS V14.01,2013-11-08 05:27:00,
2013-11-08 00:28:00,46.1,31.7,30.02,NW,319,1.0,7.0,57,0.00,,,0.00,0.00,VWS V14.01,2013-11-08 05:28:00,
2013-11-08 00:29:00,46.1,31.7,30.02,North,0,0.0,10.0,57,0.00,,,0.00,0.00,VWS V14.01,2013-11-08 05:29:00,
2013-11-08 00:30:00,46.1,31.7,30.02,North,0,5.0,5.0,57,0.00,,,0.00,0.00,VWS V14.01,2013-11-08 05:30:00,
2013-11-08 00:31:00,46.1,31.7,30.02,North,4,0.0,5.0,57,0.00,,,0.00,0.00,VWS V14.01,2013-11-08 05:31:00,
2013-11-08 00:32:00,46.1,31.7,30.02,NW,313,7.0,7.0,57,0.00,,,0.00,0.00,VWS V14.01,2013-11-08 05:32:00,
2013-11-08 00:33:00,46.0,31.6,30.02,NNE,30,0.0,2.0,57,0.00,,,0.00,0.00,VWS V14.01,2013-11-08 05:33:00,
2013-11-08 00:34:00,46.0,31.6,30.02,NNE,15,10.0,10.0,57,0.00,,,0.00,0.00,VWS V14.01,2013-11-08 05:34:00,
2013-11-08 00:35:00,46.0,31.6,30.02,NNW,339,0.0,10.0,57,0.00,,,0.00,0.00,VWS V14.01,2013-11-08 05:35:00,
2013-11-08 00:36:00,46.0,31.6,30.02,North,6,10.0,12.0,57,0.00,,,0.00,0.00,VWS V14.01,2013-11-08 05:36:00,
2013-11-08 00:37:00,46.0,31.6,30.02,NNW,346,5.0,5.0,57,0.00,,,0.00,0.00,VWS V14.01,2013-11-08 05:37:00,
2013-11-08 00:38:00,46.0,31.6,30.02,North,0,0.0,4.0,57,0.00,,,0.00,0.00,VWS V14.01,2013-11-08 05:38:00,
2013-11-08 00:39:00,46.0,31.6,30.02,NNE,16,5.0,5.0,57,0.00,,,0.00,0.00,VWS V14.01,2013-11-08 05:39:00,
2013-11-08 00:40:00,46.0,31.2,30.02,North,358,5.0,10.0,56,0.00,,,0.00,0.00,VWS V14.01,2013-11-08 05:40:00,
2013-11-08 00:41:00,46.0,31.2,30.02,North,3,3.0,13.0,56,0.00,,,0.00,0.00,VWS V14.01,2013-11-08 05:41:00,
2013-11-08 00:42:00,46.0,31.6,30.02,NW,326,1.0,10.0,57,0.00,,,0.00,0.00,VWS V14.01,2013-11-08 05:42:00,
2013-11-08 00:43:00,46.1,31.3,30.02,NW,305,1.0,9.0,56,0.00,,,0.00,0.00,VWS V14.01,2013-11-08 05:43:00,
2013-11-08 00:44:00,46.1,31.3,30.02,NNW,346,5.0,12.0,56,0.00,,,0.00,0.00,VWS V14.01,2013-11-08 05:44:00,
2013-11-08 00:45:00,46.1,31.3,30.03,NNW,338,2.0,7.0,56,0.00,,,0.00,0.00,VWS V14.01,2013-11-08 05:45:00,
2013-11-08 00:46:00,46.1,31.3,30.03,North,352,6.0,6.0,56,0.00,,,0.00,0.00,VWS V14.01,2013-11-08 05:46:00,
2013-11-08 00:47:00,46.0,31.2,30.02,North,2,2.0,4.0,56,0.00,,,0.00,0.00,VWS V14.01,2013-11-08 05:47:00,
2013-11-08 00:48:00,46.1,31.3,30.03,North,10,3.0,10.0,56,0.00,,,0.00,0.00,VWS V14.01,2013-11-08 05:48:00,
2013-11-08 00:49:00,46.1,31.3,30.03,NNW,329,5.0,5.0,56,0.00,,,0.00,0.00,VWS V14.01,2013-11-08 05:49:00,
2013-11-08 00:50:00,46.1,31.3,30.03,NNW,335,1.0,12.0,56,0.00,,,0.00,0.00,VWS V14.01,2013-11-08 05:50:00,
2013-11-08 00:51:00,46.1,31.3,30.03,North,11,8.0,9.0,56,0.00,,,0.00,0.00,VWS V14.01,2013-11-08 05:51:00,
2013-11-08 00:52:00,46.1,31.3,30.03,NE,42,0.0,6.0,56,0.00,,,0.00,0.00,VWS V14.01,2013-11-08 05:52:00,
2013-11-08 00:53:00,46.1,31.3,30.03,North,0,8.0,10.0,56,0.00,,,0.00,0.00,VWS V14.01,2013-11-08 05:53:00,
2013-11-08 00:54:00,46.1,31.3,30.03,NNW,333,5.0,9.0,56,0.00,,,0.00,0.00,VWS V14.01,2013-11-08 05:54:00,
2013-11-08 00:55:00,46.1,31.3,30.03,NNE,26,0.0,9.0,56,0.00,,,0.00,0.00,VWS V14.01,2013-11-08 05:55:00,
2013-11-08 00:56:00,46.1,30.9,30.03,North,11,10.0,10.0,55,0.00,,,0.00,0.00,VWS V14.01,2013-11-08 05:56:00,
2013-11-08 00:57:00,46.1,31.3,30.03,NNE,18,0.0,8.0,56,0.00,,,0.00,0.00,VWS V14.01,2013-11-08 05:57:00,
2013-11-08 00:58:00,46.2,30.9,30.03,NNE,25,0.0,6.0,55,0.00,,,0.00,0.00,VWS V14.01,2013-11-08 05:58:00,
2013-11-08 00:59:00,46.2,30.9,30.03,NNE,20,3.0,10.0,55,0.00,,,0.00,0.00,VWS V14.01,2013-11-08 05:59:00,
2013-11-08 01:00:00,46.2,30.9,30.03,North,0,1.0,4.0,55,0.00,,,0.00,0.00,VWS V14.01,2013-11-08 06:00:00,
2013-11-08 01:01:00,46.2,30.9,30.03,NE,47,0.0,9.0,55,0.00,,,0.00,0.00,VWS V14.01,2013-11-08 06:01:00,
2013-11-08 01:02:00,46.1,30.9,30.03,North,0,6.0,10.0,55,0.00,,,0.00,0.00,VWS V14.01,2013-11-08 06:02:00,
2013-11-08 01:03:00,46.4,31.1,30.03,North,0,10.0,10.0,55,0.00,,,0.00,0.00,VWS V14.01,2013-11-08 06:03:00,
2013-11-08 01:04:00,46.4,31.1,30.03,NW,321,2.0,10.0,55,0.00,,,0.00,0.00,VWS V14.01,2013-11-08 06:04:00,
2013-11-08 01:05:00,46.4,31.1,30.03,North,0,4.0,9.0,55,0.00,,,0.00,0.00,VWS V14.01,2013-11-08 06:05:00,
2013-11-08 01:06:00,46.4,31.1,30.03,North,3,6.0,8.0,55,0.00,,,0.00,0.00,VWS V14.01,2013-11-08 06:06:00,
2013-11-08 01:07:00,46.2,30.9,30.03,NNE,20,9.0,10.0,55,0.00,,,0.00,0.00,VWS V14.01,2013-11-08 06:07:00,
2013-11-08 01:08:00,46.4,31.1,30.03,NNE,15,0.0,2.0,55,0.00,,,0.00,0.00,VWS V14.01,2013-11-08 06:08:00,
2013-11-08 01:09:00,46.4,31.1,30.03,North,354,1.0,5.0,55,0.00,,,0.00,0.00,VWS V14.01,2013-11-08 06:09:00,
2013-11-08 01:10:00,46.4,31.1,30.03,NNE,26,0.0,6.0,55,0.00,,,0.00,0.00,VWS V14.01,2013-11-08 06:10:00,
2013-11-08 01:11:00,46.4,31.1,30.03,NW,313,3.0,3.0,55,0.00,,,0.00,0.00,VWS V14.01,2013-11-08 06:11:00,
2013-11-08 01:12:00,46.4,31.1,30.03,North,1,5.0,6.0,55,0.00,,,0.00,0.00,VWS V14.01,2013-11-08 06:12:00,
2013-11-08 01:13:00,46.4,31.1,30.03,North,1,6.0,9.0,55,0.00,,,0.00,0.00,VWS V14.01,2013-11-08 06:13:00,
2013-11-08 01:14:00,46.4,31.1,30.03,North,3,0.0,6.0,55,0.00,,,0.00,0.00,VWS V14.01,2013-11-08 06:14:00,
2013-11-08 01:15:00,46.4,31.1,30.04,North,3,0.0,0.0,55,0.00,,,0.00,0.00,VWS V14.01,2013-11-08 06:15:00,
2013-11-08 01:16:00,46.2,30.9,30.04,NNW,339,9.0,10.0,55,0.00,,,0.00,0.00,VWS V14.01,2013-11-08 06:16:00,
2013-11-08 01:17:00,46.4,31.1,30.03,North,9,6.0,6.0,55,0.00,,,0.00,0.00,VWS V14.01,2013-11-08 06:17:00,
2013-11-08 01:18:00,46.2,30.9,30.04,NW,319,1.0,3.0,55,0.00,,,0.00,0.00,VWS V14.01,2013-11-08 06:18:00,
2013-11-08 01:19:00,46.2,30.9,30.04,NW,321,0.0,4.0,55,0.00,,,0.00,0.00,VWS V14.01,2013-11-08 06:19:00,
2013-11-08 01:20:00,46.1,30.9,30.04,North,0,2.0,5.0,55,0.00,,,0.00,0.00,VWS V14.01,2013-11-08 06:20:00,
2013-11-08 01:21:00,46.1,31.3,30.04,NW,325,8.0,8.0,56,0.00,,,0.00,0.00,VWS V14.01,2013-11-08 06:21:00,
2013-11-08 01:22:00,46.2,30.9,30.04,North,11,2.0,9.0,55,0.00,,,0.00,0.00,VWS V14.01,2013-11-08 06:22:00,
2013-11-08 01:23:00,46.0,31.2,30.04,North,0,2.0,3.0,56,0.00,,,0.00,0.00,VWS V14.01,2013-11-08 06:23:00,
2013-11-08 01:24:00,46.0,31.2,30.04,North,1,0.0,6.0,56,0.00,,,0.00,0.00,VWS V14.01,2013-11-08 06:24:00,
2013-11-08 01:25:00,46.0,31.2,30.04,North,1,0.0,0.0,56,0.00,,,0.00,0.00,VWS V14.01,2013-11-08 06:25:00,
2013-11-08 01:26:00,46.0,31.2,30.04,NNW,344,0.0,1.0,56,0.00,,,0.00,0.00,VWS V14.01,2013-11-08 06:26:00,
2013-11-08 01:27:00,46.1,31.3,30.04,NW,314,0.0,8.0,56,0.00,,,0.00,0.00,VWS V14.01,2013-11-08 06:27:00,
2013-11-08 01:28:00,45.8,31.0,30.04,NNW,345,5.0,5.0,56,0.00,,,0.00,0.00,VWS V14.01,2013-11-08 06:28:00,
2013-11-08 01:29:00,45.8,31.0,30.04,North,3,2.0,5.0,56,0.00,,,0.00,0.00,VWS V14.01,2013-11-08 06:29:00,
2013-11-08 01:30:00,45.8,31.0,30.04,NNE,24,1.0,4.0,56,0.00,,,0.00,0.00,VWS V14.01,2013-11-08 06:30:00,
2013-11-08 01:31:00,45.8,31.0,30.04,North,0,0.0,4.0,56,0.00,,,0.00,0.00,VWS V14.01,2013-11-08 06:31:00,
2013-11-08 01:32:00,45.8,31.0,30.04,NW,326,0.0,0.0,56,0.00,,,0.00,0.00,VWS V14.01,2013-11-08 06:32:00,
2013-11-08 01:33:00,45.7,30.9,30.04,NNE,30,2.0,4.0,56,0.00,,,0.00,0.00,VWS V14.01,2013-11-08 06:33:00,
2013-11-08 01:34:00,45.7,30.9,30.04,North,0,0.0,6.0,56,0.00,,,0.00,0.00,VWS V14.01,2013-11-08 06:34:00,
2013-11-08 01:35:00,45.7,31.4,30.04,North,0,5.0,5.0,57,0.00,,,0.00,0.00,VWS V14.01,2013-11-08 06:35:00,
2013-11-08 01:36:00,45.7,31.4,30.04,NNE,23,4.0,6.0,57,0.00,,,0.00,0.00,VWS V14.01,2013-11-08 06:36:00,
2013-11-08 01:37:00,45.8,31.0,30.04,North,355,0.0,0.0,56,0.00,,,0.00,0.00,VWS V14.01,2013-11-08 06:37:00,
2013-11-08 01:38:00,45.5,30.7,30.04,NNW,345,5.0,5.0,56,0.00,,,0.00,0.00,VWS V14.01,2013-11-08 06:38:00,
2013-11-08 01:39:00,45.5,31.2,30.04,North,0,0.0,5.0,57,0.00,,,0.00,0.00,VWS V14.01,2013-11-08 06:39:00,
2013-11-08 01:40:00,45.5,31.2,30.04,North,0,0.0,0.0,57,0.00,,,0.00,0.00,VWS V14.01,2013-11-08 06:40:00,
2013-11-08 01:41:00,45.5,31.2,30.04,North,0,3.0,7.0,57,0.00,,,0.00,0.00,VWS V14.01,2013-11-08 06:41:00,
2013-11-08 01:42:00,45.7,31.4,30.04,North,358,0.0,4.0,57,0.00,,,0.00,0.00,VWS V14.01,2013-11-08 06:42:00,
2013-11-08 01:43:00,45.4,31.1,30.04,North,358,0.0,6.0,57,0.00,,,0.00,0.00,VWS V14.01,2013-11-08 06:43:00,
2013-11-08 01:44:00,45.4,31.1,30.04,NNE,29,4.0,5.0,57,0.00,,,0.00,0.00,VWS V14.01,2013-11-08 06:44:00,
2013-11-08 01:45:00,45.4,30.6,30.05,North,358,4.0,7.0,56,0.00,,,0.00,0.00,VWS V14.01,2013-11-08 06:45:00,
2013-11-08 01:46:00,45.2,30.9,30.05,North,358,0.0,4.0,57,0.00,,,0.00,0.00,VWS V14.01,2013-11-08 06:46:00,
2013-11-08 01:47:00,45.5,31.2,30.04,NNE,20,5.0,5.0,57,0.00,,,0.00,0.00,VWS V14.01,2013-11-08 06:47:00,
2013-11-08 01:48:00,45.2,30.5,30.05,North,3,2.0,2.0,56,0.00,,,0.00,0.00,VWS V14.01,2013-11-08 06:48:00,
2013-11-08 01:49:00,45.2,30.5,30.05,North,358,6.0,9.0,56,0.00,,,0.00,0.00,VWS V14.01,2013-11-08 06:49:00,
2013-11-08 01:50:00,45.2,30.9,30.05,North,358,11.0,11.0,57,0.00,,,0.00,0.00,VWS V14.01,2013-11-08 06:50:00,
2013-11-08 01:51:00,45.2,30.9,30.05,North,1,5.0,11.0,57,0.00,,,0.00,0.00,VWS V14.01,2013-11-08 06:51:00,
2013-11-08 01:52:00,45.2,30.5,30.05,NW,322,2.0,3.0,56,0.00,,,0.00,0.00,VWS V14.01,2013-11-08 06:52:00,
2013-11-08 01:53:00,45.2,30.9,30.05,North,358,0.0,6.0,57,0.00,,,0.00,0.00,VWS V14.01,2013-11-08 06:53:00,
2013-11-08 01:54:00,45.1,30.8,30.05,NNW,340,0.0,4.0,57,0.00,,,0.00,0.00,VWS V14.01,2013-11-08 06:54:00,
2013-11-08 01:55:00,45.1,30.4,30.05,NNW,348,6.0,6.0,56,0.00,,,0.00,0.00,VWS V14.01,2013-11-08 06:55:00,
2013-11-08 01:56:00,45.1,30.4,30.05,NNW,343,0.0,7.0,56,0.00,,,0.00,0.00,VWS V14.01,2013-11-08 06:56:00,
2013-11-08 01:57:00,45.2,30.9,30.05,North,0,0.0,5.0,57,0.00,,,0.00,0.00,VWS V14.01,2013-11-08 06:57:00,
2013-11-08 01:58:00,45.1,30.4,30.05,North,1,9.0,10.0,56,0.00,,,0.00,0.00,VWS V14.01,2013-11-08 06:58:00,
2013-11-08 01:59:00,45.1,30.4,30.05,North,0,7.0,9.0,56,0.00,,,0.00,0.00,VWS V14.01,2013-11-08 06:59:00,
2013-11-08 02:00:00,45.1,30.4,30.06,North,6,3.0,7.0,56,0.00,,,0.00,0.00,VWS V14.01,2013-11-08 07:00:00,
2013-11-08 02:01:00,45.1,30.4,30.06,NNE,32,7.0,7.0,56,0.00,,,0.00,0.00,VWS V14.01,2013-11-08 07:01:00,
2013-11-08 02:02:00,45.1,30.4,30.05,North,9,0.0,3.0,56,0.00,,,0.00,0.00,VWS V14.01,2013-11-08 07:02:00,
2013-11-08 02:03:00,45.1,30.4,30.06,NNW,347,6.0,11.0,56,0.00,,,0.00,0.00,VWS V14.01,2013-11-08 07:03:00,
2013-11-08 02:04:00,45.1,30.4,30.06,North,358,1.0,6.0,56,0.00,,,0.00,0.00,VWS V14.01,2013-11-08 07:04:00,
2013-11-08 02:05:00,45.1,30.4,30.06,North,5,0.0,5.0,56,0.00,,,0.00,0.00,VWS V14.01,2013-11-08 07:05:00,
2013-11-08 02:06:00,45.1,30.4,30.06,North,349,0.0,4.0,56,0.00,,,0.00,0.00,VWS V14.01,2013-11-08 07:06:00,
2013-11-08 02:07:00,45.1,30.4,30.06,NNW,335,11.0,11.0,56,0.00,,,0.00,0.00,VWS V14.01,2013-11-08 07:07:00,
2013-11-08 02:08:00,45.1,30.4,30.06,North,0,0.0,0.0,56,0.00,,,0.00,0.00,VWS V14.01,2013-11-08 07:08:00,
2013-11-08 02:09:00,45.1,30.4,30.06,North,358,0.0,0.0,56,0.00,,,0.00,0.00,VWS V14.01,2013-11-08 07:09:00,
2013-11-08 02:10:00,44.9,30.2,30.06,North,355,0.0,1.0,56,0.00,,,0.00,0.00,VWS V14.01,2013-11-08 07:10:00,
2013-11-08 02:11:00,44.9,30.2,30.06,North,355,2.0,4.0,56,0.00,,,0.00,0.00,VWS V14.01,2013-11-08 07:11:00,
2013-11-08 02:12:00,45.1,30.4,30.06,North,358,0.0,1.0,56,0.00,,,0.00,0.00,VWS V14.01,2013-11-08 07:12:00,
2013-11-08 02:13:00,44.9,30.2,30.06,NNE,20,9.0,11.0,56,0.00,,,0.00,0.00,VWS V14.01,2013-11-08 07:13:00,
2013-11-08 02:14:00,44.9,30.2,30.06,North,358,9.0,9.0,56,0.00,,,0.00,0.00,VWS V14.01,2013-11-08 07:14:00,
2013-11-08 02:15:00,44.9,30.2,30.07,NW,321,10.0,10.0,56,0.00,,,0.00,0.00,VWS V14.01,2013-11-08 07:15:00,
2013-11-08 02:16:00,44.9,30.2,30.07,NNW,330,6.0,14.0,56,0.00,,,0.00,0.00,VWS V14.01,2013-11-08 07:16:00,
2013-11-08 02:17:00,44.9,30.2,30.06,North,351,5.0,5.0,56,0.00,,,0.00,0.00,VWS V14.01,2013-11-08 07:17:00,
2013-11-08 02:18:00,44.8,30.1,30.07,North,354,2.0,3.0,56,0.00,,,0.00,0.00,VWS V14.01,2013-11-08 07:18:00,
2013-11-08 02:19:00,44.8,30.1,30.07,North,358,3.0,6.0,56,0.00,,,0.00,0.00,VWS V14.01,2013-11-08 07:19:00,
2013-11-08 02:20:00,44.8,30.1,30.07,North,7,0.0,3.0,56,0.00,,,0.00,0.00,VWS V14.01,2013-11-08 07:20:00,
2013-11-08 02:21:00,44.8,30.1,30.07,North,0,7.0,9.0,56,0.00,,,0.00,0.00,VWS V14.01,2013-11-08 07:21:00,
2013-11-08 02:22:00,44.8,30.1,30.07,NNW,331,0.0,6.0,56,0.00,,,0.00,0.00,VWS V14.01,2013-11-08 07:22:00,
2013-11-08 02:23:00,44.8,30.1,30.07,North,0,0.0,5.0,56,0.00,,,0.00,0.00,VWS V14.01,2013-11-08 07:23:00,
2013-11-08 02:24:00,44.8,30.1,30.07,NW,326,0.0,2.0,56,0.00,,,0.00,0.00,VWS V14.01,2013-11-08 07:24:00,
2013-11-08 02:25:00,44.8,30.1,30.07,North,4,0.0,0.0,56,0.00,,,0.00,0.00,VWS V14.01,2013-11-08 07:25:00,
2013-11-08 02:26:00,44.8,29.6,30.07,NNW,342,5.0,7.0,55,0.00,,,0.00,0.00,VWS V14.01,2013-11-08 07:26:00,
2013-11-08 02:27:00,44.8,30.1,30.07,North,8,2.0,7.0,56,0.00,,,0.00,0.00,VWS V14.01,2013-11-08 07:27:00,
2013-11-08 02:28:00,44.6,29.5,30.07,North,2,0.0,0.0,55,0.00,,,0.00,0.00,VWS V14.01,2013-11-08 07:28:00,
2013-11-08 02:29:00,44.6,29.5,30.07,NNW,327,5.0,5.0,55,0.00,,,0.00,0.00,VWS V14.01,2013-11-08 07:29:00,
2013-11-08 02:30:00,44.6,29.5,30.07,NNW,347,2.0,5.0,55,0.00,,,0.00,0.00,VWS V14.01,2013-11-08 07:30:00,
2013-11-08 02:31:00,44.6,29.5,30.07,NW,326,0.0,2.0,55,0.00,,,0.00,0.00,VWS V14.01,2013-11-08 07:31:00,
2013-11-08 02:32:00,44.8,29.6,30.07,North,358,4.0,6.0,55,0.00,,,0.00,0.00,VWS V14.01,2013-11-08 07:32:00,
2013-11-08 02:33:00,44.6,29.9,30.07,NNE,33,6.0,10.0,56,0.00,,,0.00,0.00,VWS V14.01,2013-11-08 07:33:00,
2013-11-08 02:34:00,44.6,29.5,30.07,NE,42,4.0,6.0,55,0.00,,,0.00,0.00,VWS V14.01,2013-11-08 07:34:00,
2013-11-08 02:35:00,44.6,29.5,30.07,North,355,0.0,4.0,55,0.00,,,0.00,0.00,VWS V14.01,2013-11-08 07:35:00,
2013-11-08 02:36:00,44.5,29.4,30.07,North,356,8.0,10.0,55,0.00,,,0.00,0.00,VWS V14.01,2013-11-08 07:36:00,
2013-11-08 02:37:00,44.6,29.5,30.07,NNW,327,0.0,0.0,55,0.00,,,0.00,0.00,VWS V14.01,2013-11-08 07:37:00,
2013-11-08 02:38:00,44.5,29.4,30.07,North,353,0.0,0.0,55,0.00,,,0.00,0.00,VWS V14.01,2013-11-08 07:38:00,
2013-11-08 02:39:00,44.5,29.4,30.07,North,356,5.0,7.0,55,0.00,,,0.00,0.00,VWS V14.01,2013-11-08 07:39:00,
2013-11-08 02:40:00,44.5,29.4,30.07,NNW,328,0.0,7.0,55,0.00,,,0.00,0.00,VWS V14.01,2013-11-08 07:40:00,
2013-11-08 02:41:00,44.5,29.4,30.07,NNW,341,3.0,3.0,55,0.00,,,0.00,0.00,VWS V14.01,2013-11-08 07:41:00,
2013-11-08 02:42:00,44.5,29.4,30.07,North,358,7.0,8.0,55,0.00,,,0.00,0.00,VWS V14.01,2013-11-08 07:42:00,
2013-11-08 02:43:00,44.5,29.4,30.07,NNW,335,9.0,9.0,55,0.00,,,0.00,0.00,VWS V14.01,2013-11-08 07:43:00,
2013-11-08 02:44:00,44.5,29.4,30.07,North,11,3.0,9.0,55,0.00,,,0.00,0.00,VWS V14.01,2013-11-08 07:44:00,
2013-11-08 02:45:00,44.5,29.4,30.08,NNE,23,0.0,4.0,55,0.00,,,0.00,0.00,VWS V14.01,2013-11-08 07:45:00,
2013-11-08 02:46:00,44.5,29.4,30.08,North,4,8.0,8.0,55,0.00,,,0.00,0.00,VWS V14.01,2013-11-08 07:46:00,
2013-11-08 02:47:00,44.5,29.4,30.07,North,357,3.0,7.0,55,0.00,,,0.00,0.00,VWS V14.01,2013-11-08 07:47:00,
2013-11-08 02:48:00,44.3,29.2,30.08,NNE,24,6.0,6.0,55,0.00,,,0.00,0.00,VWS V14.01,2013-11-08 07:48:00,
2013-11-08 02:49:00,44.3,29.2,30.08,North,0,0.0,6.0,55,0.00,,,0.00,0.00,VWS V14.01,2013-11-08 07:49:00,
2013-11-08 02:50:00,44.3,29.2,30.08,NNW,347,0.0,0.0,55,0.00,,,0.00,0.00,VWS V14.01,2013-11-08 07:50:00,
2013-11-08 02:51:00,44.3,29.2,30.08,North,356,3.0,3.0,55,0.00,,,0.00,0.00,VWS V14.01,2013-11-08 07:51:00,
2013-11-08 02:52:00,44.5,29.4,30.08,North,8,6.0,8.0,55,0.00,,,0.00,0.00,VWS V14.01,2013-11-08 07:52:00,
2013-11-08 02:54:00,44.2,29.1,30.08,North,0,0.0,0.0,55,0.00,,,0.00,0.00,VWS V14.01,2013-11-08 07:54:00,
2013-11-08 02:55:00,44.2,29.1,30.08,North,1,0.0,3.0,55,0.00,,,0.00,0.00,VWS V14.01,2013-11-08 07:55:00,
2013-11-08 02:56:00,44.2,29.5,30.08,NW,322,0.0,2.0,56,0.00,,,0.00,0.00,VWS V14.01,2013-11-08 07:56:00,
2013-11-08 02:57:00,44.3,29.2,30.08,North,358,0.0,3.0,55,0.00,,,0.00,0.00,VWS V14.01,2013-11-08 07:57:00,
2013-11-08 02:58:00,44.1,29.0,30.08,NNE,18,0.0,4.0,55,0.00,,,0.00,0.00,VWS V14.01,2013-11-08 07:58:00,
2013-11-08 02:59:00,44.1,29.0,30.08,NNE,26,0.0,4.0,55,0.00,,,0.00,0.00,VWS V14.01,2013-11-08 07:59:00,
2013-11-08 03:00:00,44.1,29.0,30.09,NNE,22,0.0,0.0,55,0.00,,,0.00,0.00,VWS V14.01,2013-11-08 08:00:00,
2013-11-08 03:01:00,43.9,29.2,30.09,NNE,20,0.0,0.0,56,0.00,,,0.00,0.00,VWS V14.01,2013-11-08 08:01:00,
2013-11-08 03:02:00,44.2,29.5,30.08,North,358,0.0,3.0,56,0.00,,,0.00,0.00,VWS V14.01,2013-11-08 08:02:00,
2013-11-08 03:03:00,43.9,28.8,30.09,NW,308,0.0,4.0,55,0.00,,,0.00,0.00,VWS V14.01,2013-11-08 08:03:00,
2013-11-08 03:04:00,43.9,28.8,30.09,NW,316,2.0,3.0,55,0.00,,,0.00,0.00,VWS V14.01,2013-11-08 08:04:00,
2013-11-08 03:05:00,43.8,28.7,30.09,North,6,4.0,7.0,55,0.00,,,0.00,0.00,VWS V14.01,2013-11-08 08:05:00,
2013-11-08 03:06:00,43.8,28.7,30.09,North,6,4.0,4.0,55,0.00,,,0.00,0.00,VWS V14.01,2013-11-08 08:06:00,
2013-11-08 03:07:00,43.9,29.2,30.09,NW,326,4.0,5.0,56,0.00,,,0.00,0.00,VWS V14.01,2013-11-08 08:07:00,
2013-11-08 03:08:00,43.8,29.1,30.09,NNE,18,0.0,0.0,56,0.00,,,0.00,0.00,VWS V14.01,2013-11-08 08:08:00,
2013-11-08 03:09:00,43.8,29.1,30.09,NNE,18,0.0,0.0,56,0.00,,,0.00,0.00,VWS V14.01,2013-11-08 08:09:00,
2013-11-08 03:10:00,43.8,29.1,30.09,NNE,18,0.0,0.0,56,0.00,,,0.00,0.00,VWS V14.01,2013-11-08 08:10:00,
2013-11-08 03:11:00,43.8,29.1,30.09,NNE,18,0.0,0.0,56,0.00,,,0.00,0.00,VWS V14.01,2013-11-08 08:11:00,
2013-11-08 03:12:00,43.8,28.7,30.09,NNE,18,0.0,4.0,55,0.00,,,0.00,0.00,VWS V14.01,2013-11-08 08:12:00,
2013-11-08 03:13:00,43.5,28.9,30.09,North,8,0.0,9.0,56,0.00,,,0.00,0.00,VWS V14.01,2013-11-08 08:13:00,
2013-11-08 03:14:00,43.5,28.9,30.09,NE,36,2.0,3.0,56,0.00,,,0.00,0.00,VWS V14.01,2013-11-08 08:14:00,
2013-11-08 03:15:00,43.5,28.9,30.09,North,11,0.0,2.0,56,0.00,,,0.00,0.00,VWS V14.01,2013-11-08 08:15:00,
2013-11-08 03:16:00,43.5,28.9,30.09,North,358,0.0,4.0,56,0.00,,,0.00,0.00,VWS V14.01,2013-11-08 08:16:00,
2013-11-08 03:17:00,43.6,29.0,30.09,North,358,2.0,4.0,56,0.00,,,0.00,0.00,VWS V14.01,2013-11-08 08:17:00,
2013-11-08 03:18:00,43.5,28.4,30.09,NNE,23,4.0,6.0,55,0.00,,,0.00,0.00,VWS V14.01,2013-11-08 08:18:00,
2013-11-08 03:19:00,43.3,28.7,30.09,North,354,0.0,4.0,56,0.00,,,0.00,0.00,VWS V14.01,2013-11-08 08:19:00,
2013-11-08 03:20:00,43.3,28.7,30.09,NNW,345,0.0,0.0,56,0.00,,,0.00,0.00,VWS V14.01,2013-11-08 08:20:00,
2013-11-08 03:21:00,43.3,28.7,30.09,North,0,0.0,12.0,56,0.00,,,0.00,0.00,VWS V14.01,2013-11-08 08:21:00,
2013-11-08 03:22:00,43.5,28.9,30.09,NNW,332,0.0,2.0,56,0.00,,,0.00,0.00,VWS V14.01,2013-11-08 08:22:00,
2013-11-08 03:23:00,43.3,28.7,30.09,North,8,0.0,5.0,56,0.00,,,0.00,0.00,VWS V14.01,2013-11-08 08:23:00,
2013-11-08 03:24:00,43.3,28.7,30.09,NNE,23,0.0,0.0,56,0.00,,,0.00,0.00,VWS V14.01,2013-11-08 08:24:00,
2013-11-08 03:25:00,43.3,28.7,30.09,NNE,22,0.0,0.0,56,0.00,,,0.00,0.00,VWS V14.01,2013-11-08 08:25:00,
2013-11-08 03:26:00,43.3,28.7,30.09,NNE,21,0.0,0.0,56,0.00,,,0.00,0.00,VWS V14.01,2013-11-08 08:26:00,
2013-11-08 03:27:00,43.3,28.7,30.09,North,358,4.0,4.0,56,0.00,,,0.00,0.00,VWS V14.01,2013-11-08 08:27:00,
2013-11-08 03:28:00,43.2,28.6,30.09,NNE,20,0.0,0.0,56,0.00,,,0.00,0.00,VWS V14.01,2013-11-08 08:28:00,
2013-11-08 03:29:00,43.2,28.6,30.09,NNE,13,0.0,0.0,56,0.00,,,0.00,0.00,VWS V14.01,2013-11-08 08:29:00,
2013-11-08 03:30:00,43.2,28.6,30.10,North,0,4.0,4.0,56,0.00,,,0.00,0.00,VWS V14.01,2013-11-08 08:30:00,
2013-11-08 03:31:00,43.2,28.6,30.10,NW,326,3.0,4.0,56,0.00,,,0.00,0.00,VWS V14.01,2013-11-08 08:31:00,
2013-11-08 03:32:00,43.3,28.7,30.09,NNE,21,0.0,0.0,56,0.00,,,0.00,0.00,VWS V14.01,2013-11-08 08:32:00,
2013-11-08 03:33:00,43.1,28.0,30.10,NNE,19,3.0,9.0,55,0.00,,,0.00,0.00,VWS V14.01,2013-11-08 08:33:00,
2013-11-08 03:34:00,43.1,28.0,30.10,NNE,12,0.0,3.0,55,0.00,,,0.00,0.00,VWS V14.01,2013-11-08 08:34:00,
2013-11-08 03:35:00,43.1,28.0,30.10,NNW,336,2.0,5.0,55,0.00,,,0.00,0.00,VWS V14.01,2013-11-08 08:35:00,
2013-11-08 03:36:00,43.1,28.0,30.10,NNW,342,0.0,2.0,55,0.00,,,0.00,0.00,VWS V14.01,2013-11-08 08:36:00,
2013-11-08 03:37:00,43.1,28.5,30.10,NNW,342,2.0,4.0,56,0.00,,,0.00,0.00,VWS V14.01,2013-11-08 08:37:00,
2013-11-08 03:38:00,43.1,28.0,30.10,NNW,342,0.0,0.0,55,0.00,,,0.00,0.00,VWS V14.01,2013-11-08 08:38:00,
2013-11-08 03:39:00,43.1,28.0,30.10,NNW,342,0.0,0.0,55,0.00,,,0.00,0.00,VWS V14.01,2013-11-08 08:39:00,
2013-11-08 03:40:00,43.1,28.0,30.10,North,8,3.0,6.0,55,0.00,,,0.00,0.00,VWS V14.01,2013-11-08 08:40:00,
2013-11-08 03:41:00,42.9,27.9,30.10,North,0,0.0,3.0,55,0.00,,,0.00,0.00,VWS V14.01,2013-11-08 08:41:00,
2013-11-08 03:42:00,43.1,28.0,30.10,NNW,342,0.0,0.0,55,0.00,,,0.00,0.00,VWS V14.01,2013-11-08 08:42:00,
2013-11-08 03:43:00,42.9,27.9,30.10,North,0,0.0,4.0,55,0.00,,,0.00,0.00,VWS V14.01,2013-11-08 08:43:00,
2013-11-08 03:44:00,42.9,27.9,30.10,North,11,0.0,5.0,55,0.00,,,0.00,0.00,VWS V14.01,2013-11-08 08:44:00,
2013-11-08 03:45:00,42.9,27.9,30.10,NW,326,4.0,7.0,55,0.00,,,0.00,0.00,VWS V14.01,2013-11-08 08:45:00,
2013-11-08 03:46:00,42.9,27.9,30.10,NNW,329,2.0,5.0,55,0.00,,,0.00,0.00,VWS V14.01,2013-11-08 08:46:00,
2013-11-08 03:47:00,42.9,27.9,30.10,North,0,0.0,0.0,55,0.00,,,0.00,0.00,VWS V14.01,2013-11-08 08:47:00,
2013-11-08 03:48:00,42.9,27.9,30.10,NNW,345,0.0,1.0,55,0.00,,,0.00,0.00,VWS V14.01,2013-11-08 08:48:00,
2013-11-08 03:49:00,42.9,27.4,30.10,NNE,20,5.0,6.0,54,0.00,,,0.00,0.00,VWS V14.01,2013-11-08 08:49:00,
2013-11-08 03:50:00,42.9,27.4,30.10,North,351,0.0,5.0,54,0.00,,,0.00,0.00,VWS V14.01,2013-11-08 08:50:00,
2013-11-08 03:51:00,42.9,27.4,30.10,North,0,0.0,0.0,54,0.00,,,0.00,0.00,VWS V14.01,2013-11-08 08:51:00,
2013-11-08 03:52:00,42.9,27.9,30.10,North,354,5.0,5.0,55,0.00,,,0.00,0.00,VWS V14.01,2013-11-08 08:52:00,
2013-11-08 03:53:00,42.9,27.9,30.10,North,0,0.0,0.0,55,0.00,,,0.00,0.00,VWS V14.01,2013-11-08 08:53:00,
2013-11-08 03:54:00,42.9,27.9,30.10,NE,35,0.0,3.0,55,0.00,,,0.00,0.00,VWS V14.01,2013-11-08 08:54:00,
2013-11-08 03:55:00,42.9,27.9,30.10,NNW,339,4.0,5.0,55,0.00,,,0.00,0.00,VWS V14.01,2013-11-08 08:55:00,
2013-11-08 03:56:00,42.9,27.9,30.10,North,358,0.0,4.0,55,0.00,,,0.00,0.00,VWS V14.01,2013-11-08 08:56:00,
2013-11-08 03:57:00,42.9,27.4,30.10,North,0,0.0,0.0,54,0.00,,,0.00,0.00,VWS V14.01,2013-11-08 08:57:00,
2013-11-08 03:58:00,42.8,27.8,30.10,ENE,58,0.0,3.0,55,0.00,,,0.00,0.00,VWS V14.01,2013-11-08 08:58:00,
2013-11-08 03:59:00,42.8,27.8,30.10,NNE,20,0.0,0.0,55,0.00,,,0.00,0.00,VWS V14.01,2013-11-08 08:59:00,
2013-11-08 04:00:00,42.8,27.8,30.10,North,8,0.0,0.0,55,0.00,,,0.00,0.00,VWS V14.01,2013-11-08 09:00:00,
2013-11-08 04:01:00,42.6,27.6,30.10,NNE,13,2.0,3.0,55,0.00,,,0.00,0.00,VWS V14.01,2013-11-08 09:01:00,
2013-11-08 04:02:00,42.8,27.3,30.10,North,358,0.0,0.0,54,0.00,,,0.00,0.00,VWS V14.01,2013-11-08 09:02:00,
2013-11-08 04:03:00,42.6,27.6,30.10,North,356,0.0,0.0,55,0.00,,,0.00,0.00,VWS V14.01,2013-11-08 09:03:00,
2013-11-08 04:04:00,42.6,27.1,30.10,North,358,0.0,0.0,54,0.00,,,0.00,0.00,VWS V14.01,2013-11-08 09:04:00,
2013-11-08 04:05:00,42.5,27.0,30.10,North,358,0.0,0.0,54,0.00,,,0.00,0.00,VWS V14.01,2013-11-08 09:05:00,
2013-11-08 04:06:00,42.5,27.5,30.10,North,358,0.0,0.0,55,0.00,,,0.00,0.00,VWS V14.01,2013-11-08 09:06:00,
2013-11-08 04:07:00,42.6,27.6,30.11,NNE,13,0.0,2.0,55,0.00,,,0.00,0.00,VWS V14.01,2013-11-08 09:07:00,
2013-11-08 04:08:00,42.5,27.5,30.10,North,358,0.0,0.0,55,0.00,,,0.00,0.00,VWS V14.01,2013-11-08 09:08:00,
2013-11-08 04:09:00,42.5,27.5,30.10,North,0,0.0,0.0,55,0.00,,,0.00,0.00,VWS V14.01,2013-11-08 09:09:00,
2013-11-08 04:10:00,42.3,27.3,30.10,NNE,16,2.0,4.0,55,0.00,,,0.00,0.00,VWS V14.01,2013-11-08 09:10:00,
2013-11-08 04:11:00,42.3,27.3,30.10,North,0,2.0,6.0,55,0.00,,,0.00,0.00,VWS V14.01,2013-11-08 09:11:00,
2013-11-08 04:12:00,42.5,27.5,30.11,North,358,0.0,0.0,55,0.00,,,0.00,0.00,VWS V14.01,2013-11-08 09:12:00,
2013-11-08 04:13:00,42.3,27.3,30.10,North,0,3.0,3.0,55,0.00,,,0.00,0.00,VWS V14.01,2013-11-08 09:13:00,
2013-11-08 04:14:00,42.2,27.2,30.10,North,0,0.0,3.0,55,0.00,,,0.00,0.00,VWS V14.01,2013-11-08 09:14:00,
2013-11-08 04:15:00,42.2,27.2,30.11,North,0,0.0,4.0,55,0.00,,,0.00,0.00,VWS V14.01,2013-11-08 09:15:00,
2013-11-08 04:16:00,42.2,27.2,30.11,North,1,0.0,0.0,55,0.00,,,0.00,0.00,VWS V14.01,2013-11-08 09:16:00,
2013-11-08 04:17:00,42.3,27.3,30.11,North,8,0.0,2.0,55,0.00,,,0.00,0.00,VWS V14.01,2013-11-08 09:17:00,
2013-11-08 04:18:00,42.2,27.2,30.11,North,1,0.0,0.0,55,0.00,,,0.00,0.00,VWS V14.01,2013-11-08 09:18:00,
2013-11-08 04:19:00,42.1,27.5,30.11,North,4,3.0,3.0,56,0.00,,,0.00,0.00,VWS V14.01,2013-11-08 09:19:00,
2013-11-08 04:20:00,42.1,27.5,30.11,NNE,22,0.0,4.0,56,0.00,,,0.00,0.00,VWS V14.01,2013-11-08 09:20:00,
2013-11-08 04:21:00,42.1,27.5,30.11,NNE,22,0.0,1.0,56,0.00,,,0.00,0.00,VWS V14.01,2013-11-08 09:21:00,
2013-11-08 04:22:00,42.2,27.2,30.11,North,1,0.0,0.0,55,0.00,,,0.00,0.00,VWS V14.01,2013-11-08 09:22:00,
2013-11-08 04:23:00,41.9,27.4,30.11,NNE,18,4.0,4.0,56,0.00,,,0.00,0.00,VWS V14.01,2013-11-08 09:23:00,
2013-11-08 04:24:00,41.9,27.4,30.11,NNE,16,3.0,5.0,56,0.00,,,0.00,0.00,VWS V14.01,2013-11-08 09:24:00,
2013-11-08 04:25:00,41.9,27.4,30.11,NNE,18,0.0,3.0,56,0.00,,,0.00,0.00,VWS V14.01,2013-11-08 09:25:00,
2013-11-08 04:26:00,41.8,27.3,30.11,North,1,0.0,4.0,56,0.00,,,0.00,0.00,VWS V14.01,2013-11-08 09:26:00,
2013-11-08 04:27:00,42.1,27.5,30.11,NNE,22,3.0,4.0,56,0.00,,,0.00,0.00,VWS V14.01,2013-11-08 09:27:00,
2013-11-08 04:28:00,41.8,27.7,30.11,North,3,0.0,2.0,57,0.00,,,0.00,0.00,VWS V14.01,2013-11-08 09:28:00,
2013-11-08 04:29:00,41.6,27.5,30.11,North,3,0.0,0.0,57,0.00,,,0.00,0.00,VWS V14.01,2013-11-08 09:29:00,
2013-11-08 04:30:00,41.6,27.5,30.12,North,3,0.0,0.0,57,0.00,,,0.00,0.00,VWS V14.01,2013-11-08 09:30:00,
2013-11-08 04:31:00,41.6,27.5,30.12,North,3,0.0,0.0,57,0.00,,,0.00,0.00,VWS V14.01,2013-11-08 09:31:00,
2013-11-08 04:32:00,41.8,27.3,30.11,North,1,0.0,0.0,56,0.00,,,0.00,0.00,VWS V14.01,2013-11-08 09:32:00,
2013-11-08 04:33:00,41.5,27.8,30.12,North,3,0.0,0.0,58,0.00,,,0.00,0.00,VWS V14.01,2013-11-08 09:33:00,
2013-11-08 04:34:00,41.3,27.6,30.12,North,3,0.0,0.0,58,0.00,,,0.00,0.00,VWS V14.01,2013-11-08 09:34:00,
2013-11-08 04:35:00,41.3,27.6,30.12,North,358,1.0,3.0,58,0.00,,,0.00,0.00,VWS V14.01,2013-11-08 09:35:00,
2013-11-08 04:36:00,41.2,27.6,30.12,North,358,0.0,1.0,58,0.00,,,0.00,0.00,VWS V14.01,2013-11-08 09:36:00,
2013-11-08 04:37:00,41.5,27.4,30.12,North,3,0.0,0.0,57,0.00,,,0.00,0.00,VWS V14.01,2013-11-08 09:37:00,
2013-11-08 04:38:00,41.2,28.0,30.12,North,0,0.0,1.0,59,0.00,,,0.00,0.00,VWS V14.01,2013-11-08 09:38:00,
2013-11-08 04:39:00,41.1,27.9,30.12,North,0,0.0,0.0,59,0.00,,,0.00,0.00,VWS V14.01,2013-11-08 09:39:00,
2013-11-08 04:40:00,41.1,27.9,30.12,North,0,0.0,0.0,59,0.00,,,0.00,0.00,VWS V14.01,2013-11-08 09:40:00,
2013-11-08 04:41:00,40.9,27.7,30.12,North,0,0.0,0.0,59,0.00,,,0.00,0.00,VWS V14.01,2013-11-08 09:41:00,
2013-11-08 04:42:00,41.2,27.6,30.12,North,0,2.0,2.0,58,0.00,,,0.00,0.00,VWS V14.01,2013-11-08 09:42:00,
2013-11-08 04:43:00,40.8,27.6,30.12,North,0,0.0,0.0,59,0.00,,,0.00,0.00,VWS V14.01,2013-11-08 09:43:00,
2013-11-08 04:44:00,40.8,27.6,30.12,North,0,0.0,0.0,59,0.00,,,0.00,0.00,VWS V14.01,2013-11-08 09:44:00,
2013-11-08 04:45:00,40.8,27.6,30.12,North,0,0.0,0.0,59,0.00,,,0.00,0.00,VWS V14.01,2013-11-08 09:45:00,
2013-11-08 04:46:00,40.6,27.4,30.12,North,0,0.0,0.0,59,0.00,,,0.00,0.00,VWS V14.01,2013-11-08 09:46:00,
2013-11-08 04:47:00,40.9,27.7,30.12,North,0,0.0,0.0,59,0.00,,,0.00,0.00,VWS V14.01,2013-11-08 09:47:00,
2013-11-08 04:48:00,40.6,27.4,30.12,North,0,0.0,2.0,59,0.00,,,0.00,0.00,VWS V14.01,2013-11-08 09:48:00,
2013-11-08 04:49:00,40.5,27.3,30.12,North,0,0.0,0.0,59,0.00,,,0.00,0.00,VWS V14.01,2013-11-08 09:49:00,
2013-11-08 04:50:00,40.5,27.3,30.12,North,0,0.0,0.0,59,0.00,,,0.00,0.00,VWS V14.01,2013-11-08 09:50:00,
2013-11-08 04:51:00,40.5,27.3,30.12,North,0,0.0,0.0,59,0.00,,,0.00,0.00,VWS V14.01,2013-11-08 09:51:00,
2013-11-08 04:52:00,40.6,27.4,30.12,North,0,4.0,4.0,59,0.00,,,0.00,0.00,VWS V14.01,2013-11-08 09:52:00,
2013-11-08 04:53:00,40.3,27.5,30.12,North,0,0.0,0.0,60,0.00,,,0.00,0.00,VWS V14.01,2013-11-08 09:53:00,
2013-11-08 04:54:00,40.3,27.5,30.12,North,0,0.0,0.0,60,0.00,,,0.00,0.00,VWS V14.01,2013-11-08 09:54:00,
2013-11-08 04:55:00,40.2,27.4,30.12,North,0,0.0,0.0,60,0.00,,,0.00,0.00,VWS V14.01,2013-11-08 09:55:00,
2013-11-08 04:56:00,40.2,27.4,30.12,North,0,0.0,0.0,60,0.00,,,0.00,0.00,VWS V14.01,2013-11-08 09:56:00,
2013-11-08 04:57:00,40.5,27.3,30.12,North,0,0.0,0.0,59,0.00,,,0.00,0.00,VWS V14.01,2013-11-08 09:57:00,
2013-11-08 04:58:00,40.1,27.8,30.12,North,0,0.0,0.0,61,0.00,,,0.00,0.00,VWS V14.01,2013-11-08 09:58:00,
2013-11-08 04:59:00,40.1,27.8,30.12,North,0,0.0,0.0,61,0.00,,,0.00,0.00,VWS V14.01,2013-11-08 09:59:00,
2013-11-08 05:00:00,39.9,27.6,30.12,North,0,0.0,0.0,61,0.00,,,0.00,0.00,VWS V14.01,2013-11-08 10:00:00,
2013-11-08 05:01:00,39.9,27.6,30.12,North,0,0.0,0.0,61,0.00,,,0.00,0.00,VWS V14.01,2013-11-08 10:01:00,
2013-11-08 05:02:00,40.2,27.4,30.12,North,0,0.0,0.0,60,0.00,,,0.00,0.00,VWS V14.01,2013-11-08 10:02:00,
2013-11-08 05:03:00,39.8,27.5,30.12,North,0,0.0,0.0,61,0.00,,,0.00,0.00,VWS V14.01,2013-11-08 10:03:00,
2013-11-08 05:04:00,39.6,27.7,30.12,North,0,0.0,0.0,62,0.00,,,0.00,0.00,VWS V14.01,2013-11-08 10:04:00,
2013-11-08 05:05:00,39.6,27.7,30.12,North,0,0.0,0.0,62,0.00,,,0.00,0.00,VWS V14.01,2013-11-08 10:05:00,
2013-11-08 05:06:00,39.5,27.2,30.12,North,0,0.0,0.0,61,0.00,,,0.00,0.00,VWS V14.01,2013-11-08 10:06:00,
2013-11-08 05:07:00,39.9,27.6,30.12,North,0,0.0,0.0,61,0.00,,,0.00,0.00,VWS V14.01,2013-11-08 10:07:00,
2013-11-08 05:08:00,39.5,27.6,30.12,North,0,0.0,0.0,62,0.00,,,0.00,0.00,VWS V14.01,2013-11-08 10:08:00,
2013-11-08 05:09:00,39.3,27.8,30.12,North,0,0.0,0.0,63,0.00,,,0.00,0.00,VWS V14.01,2013-11-08 10:09:00,
2013-11-08 05:10:00,39.3,27.8,30.12,North,0,0.0,0.0,63,0.00,,,0.00,0.00,VWS V14.01,2013-11-08 10:10:00,
2013-11-08 05:11:00,39.3,27.8,30.12,North,0,0.0,0.0,63,0.00,,,0.00,0.00,VWS V14.01,2013-11-08 10:11:00,
2013-11-08 05:12:00,39.5,27.6,30.12,North,0,0.0,0.0,62,0.00,,,0.00,0.00,VWS V14.01,2013-11-08 10:12:00,
2013-11-08 05:13:00,39.2,28.1,30.12,North,0,0.0,0.0,64,0.00,,,0.00,0.00,VWS V14.01,2013-11-08 10:13:00,
2013-11-08 05:14:00,39.1,28.0,30.12,North,0,0.0,0.0,64,0.00,,,0.00,0.00,VWS V14.01,2013-11-08 10:14:00,
2013-11-08 05:15:00,39.1,28.0,30.13,North,0,0.0,0.0,64,0.00,,,0.00,0.00,VWS V14.01,2013-11-08 10:15:00,
2013-11-08 05:16:00,38.9,27.8,30.13,North,0,0.0,0.0,64,0.00,,,0.00,0.00,VWS V14.01,2013-11-08 10:16:00,
2013-11-08 05:17:00,39.2,27.7,30.12,North,0,0.0,0.0,63,0.00,,,0.00,0.00,VWS V14.01,2013-11-08 10:17:00,
2013-11-08 05:18:00,38.8,27.7,30.13,North,0,0.0,0.0,64,0.00,,,0.00,0.00,VWS V14.01,2013-11-08 10:18:00,
2013-11-08 05:19:00,38.8,27.7,30.13,North,0,0.0,0.0,64,0.00,,,0.00,0.00,VWS V14.01,2013-11-08 10:19:00,
2013-11-08 05:20:00,38.8,27.7,30.13,North,0,0.0,0.0,64,0.00,,,0.00,0.00,VWS V14.01,2013-11-08 10:20:00,
2013-11-08 05:21:00,38.6,27.5,30.13,North,0,0.0,0.0,64,0.00,,,0.00,0.00,VWS V14.01,2013-11-08 10:21:00,
2013-11-08 05:22:00,38.9,27.8,30.13,North,0,0.0,0.0,64,0.00,,,0.00,0.00,VWS V14.01,2013-11-08 10:22:00,
2013-11-08 05:23:00,38.5,27.8,30.13,North,0,0.0,0.0,65,0.00,,,0.00,0.00,VWS V14.01,2013-11-08 10:23:00,
2013-11-08 05:24:00,38.5,27.8,30.13,North,0,0.0,0.0,65,0.00,,,0.00,0.00,VWS V14.01,2013-11-08 10:24:00,
2013-11-08 05:25:00,38.3,28.0,30.13,North,0,0.0,0.0,66,0.00,,,0.00,0.00,VWS V14.01,2013-11-08 10:25:00,
2013-11-08 05:26:00,38.3,28.0,30.13,North,0,0.0,0.0,66,0.00,,,0.00,0.00,VWS V14.01,2013-11-08 10:26:00,
2013-11-08 05:27:00,38.6,27.9,30.13,North,0,0.0,0.0,65,0.00,,,0.00,0.00,VWS V14.01,2013-11-08 10:27:00,
2013-11-08 05:28:00,38.2,27.9,30.13,North,0,0.0,0.0,66,0.00,,,0.00,0.00,VWS V14.01,2013-11-08 10:28:00,
2013-11-08 05:29:00,38.2,28.2,30.13,North,0,0.0,3.0,67,0.00,,,0.00,0.00,VWS V14.01,2013-11-08 10:29:00,
2013-11-08 05:30:00,38.0,28.0,30.14,North,0,0.0,0.0,67,0.00,,,0.00,0.00,VWS V14.01,2013-11-08 10:30:00,
2013-11-08 05:31:00,38.0,28.0,30.14,North,0,0.0,0.0,67,0.00,,,0.00,0.00,VWS V14.01,2013-11-08 10:31:00,
2013-11-08 05:32:00,38.3,28.0,30.13,North,0,0.0,0.0,66,0.00,,,0.00,0.00,VWS V14.01,2013-11-08 10:32:00,
2013-11-08 05:33:00,37.9,27.9,30.14,North,0,0.0,0.0,67,0.00,,,0.00,0.00,VWS V14.01,2013-11-08 10:33:00,
2013-11-08 05:34:00,37.9,27.9,30.14,North,0,0.0,0.0,67,0.00,,,0.00,0.00,VWS V14.01,2013-11-08 10:34:00,
2013-11-08 05:35:00,37.8,27.8,30.14,North,0,0.0,0.0,67,0.00,,,0.00,0.00,VWS V14.01,2013-11-08 10:35:00,
2013-11-08 05:36:00,37.8,27.8,30.14,North,0,0.0,0.0,67,0.00,,,0.00,0.00,VWS V14.01,2013-11-08 10:36:00,
2013-11-08 05:37:00,38.0,28.0,30.14,North,0,0.0,0.0,67,0.00,,,0.00,0.00,VWS V14.01,2013-11-08 10:37:00,
2013-11-08 05:38:00,37.6,28.0,30.14,North,0,0.0,0.0,68,0.00,,,0.00,0.00,VWS V14.01,2013-11-08 10:38:00,
2013-11-08 05:39:00,37.6,28.0,30.14,North,0,0.0,0.0,68,0.00,,,0.00,0.00,VWS V14.01,2013-11-08 10:39:00,
2013-11-08 05:40:00,37.5,27.9,30.14,North,0,0.0,0.0,68,0.00,,,0.00,0.00,VWS V14.01,2013-11-08 10:40:00,
2013-11-08 05:41:00,37.5,28.3,30.14,North,0,0.0,0.0,69,0.00,,,0.00,0.00,VWS V14.01,2013-11-08 10:41:00,
2013-11-08 05:42:00,37.8,28.2,30.14,North,0,0.0,0.0,68,0.00,,,0.00,0.00,VWS V14.01,2013-11-08 10:42:00,
2013-11-08 05:43:00,37.3,28.1,30.14,North,0,0.0,0.0,69,0.00,,,0.00,0.00,VWS V14.01,2013-11-08 10:43:00,
2013-11-08 05:44:00,37.2,28.0,30.14,North,0,0.0,3.0,69,0.00,,,0.00,0.00,VWS V14.01,2013-11-08 10:44:00,
2013-11-08 05:45:00,37.2,28.0,30.14,North,0,0.0,0.0,69,0.00,,,0.00,0.00,VWS V14.01,2013-11-08 10:45:00,
2013-11-08 05:46:00,37.2,28.0,30.14,North,0,0.0,1.0,69,0.00,,,0.00,0.00,VWS V14.01,2013-11-08 10:46:00,
2013-11-08 05:47:00,37.3,28.1,30.14,North,0,0.0,0.0,69,0.00,,,0.00,0.00,VWS V14.01,2013-11-08 10:47:00,
2013-11-08 05:48:00,37.2,28.0,30.14,North,0,0.0,4.0,69,0.00,,,0.00,0.00,VWS V14.01,2013-11-08 10:48:00,
2013-11-08 05:49:00,37.0,27.8,30.14,North,0,0.0,0.0,69,0.00,,,0.00,0.00,VWS V14.01,2013-11-08 10:49:00,
2013-11-08 05:50:00,37.0,27.8,30.14,North,0,0.0,0.0,69,0.00,,,0.00,0.00,VWS V14.01,2013-11-08 10:50:00,
2013-11-08 05:51:00,37.0,27.8,30.14,North,0,0.0,0.0,69,0.00,,,0.00,0.00,VWS V14.01,2013-11-08 10:51:00,
2013-11-08 05:52:00,37.2,28.0,30.14,North,0,0.0,0.0,69,0.00,,,0.00,0.00,VWS V14.01,2013-11-08 10:52:00,
2013-11-08 05:53:00,37.0,27.8,30.14,North,0,0.0,0.0,69,0.00,,,0.00,0.00,VWS V14.01,2013-11-08 10:53:00,
2013-11-08 05:54:00,37.0,27.8,30.14,North,0,0.0,0.0,69,0.00,,,0.00,0.00,VWS V14.01,2013-11-08 10:54:00,
2013-11-08 05:55:00,36.9,27.7,30.14,North,0,0.0,0.0,69,0.00,,,0.00,0.00,VWS V14.01,2013-11-08 10:55:00,
2013-11-08 05:56:00,36.9,27.7,30.14,North,0,0.0,0.0,69,0.00,,,0.00,0.00,VWS V14.01,2013-11-08 10:56:00,
2013-11-08 05:57:00,37.0,27.8,30.14,North,0,0.0,0.0,69,0.00,,,0.00,0.00,VWS V14.01,2013-11-08 10:57:00,
2013-11-08 05:58:00,36.9,28.0,30.14,North,0,0.0,0.0,70,0.00,,,0.00,0.00,VWS V14.01,2013-11-08 10:58:00,
2013-11-08 05:59:00,36.9,28.0,30.14,North,0,0.0,0.0,70,0.00,,,0.00,0.00,VWS V14.01,2013-11-08 10:59:00,
2013-11-08 06:00:00,36.9,28.0,30.14,North,0,0.0,0.0,70,0.00,,,0.00,0.00,VWS V14.01,2013-11-08 11:00:00,
2013-11-08 06:01:00,36.8,28.0,30.14,North,0,0.0,0.0,70,0.00,,,0.00,0.00,VWS V14.01,2013-11-08 11:01:00,
2013-11-08 06:02:00,36.9,27.7,30.14,North,0,0.0,0.0,69,0.00,,,0.00,0.00,VWS V14.01,2013-11-08 11:02:00,
2013-11-08 06:03:00,36.8,28.0,30.14,North,0,0.0,0.0,70,0.00,,,0.00,0.00,VWS V14.01,2013-11-08 11:03:00,
2013-11-08 06:04:00,36.8,28.3,30.14,North,0,0.0,0.0,71,0.00,,,0.00,0.00,VWS V14.01,2013-11-08 11:04:00,
2013-11-08 06:05:00,36.6,28.1,30.14,North,0,0.0,0.0,71,0.00,,,0.00,0.00,VWS V14.01,2013-11-08 11:05:00,
2013-11-08 06:06:00,36.6,28.1,30.14,North,0,0.0,0.0,71,0.00,,,0.00,0.00,VWS V14.01,2013-11-08 11:06:00,
2013-11-08 06:07:00,36.8,28.0,30.14,North,0,0.0,0.0,70,0.00,,,0.00,0.00,VWS V14.01,2013-11-08 11:07:00,
2013-11-08 06:08:00,36.6,28.1,30.14,North,0,0.0,0.0,71,0.00,,,0.00,0.00,VWS V14.01,2013-11-08 11:08:00,
2013-11-08 06:09:00,36.5,28.0,30.14,North,0,0.0,0.0,71,0.00,,,0.00,0.00,VWS V14.01,2013-11-08 11:09:00,
2013-11-08 06:10:00,36.5,28.0,30.14,North,0,0.0,0.0,71,0.00,,,0.00,0.00,VWS V14.01,2013-11-08 11:10:00,
2013-11-08 06:11:00,36.5,28.0,30.14,North,0,0.0,0.0,71,0.00,,,0.00,0.00,VWS V14.01,2013-11-08 11:11:00,
2013-11-08 06:12:00,36.6,28.1,30.14,North,0,0.0,0.0,71,0.00,,,0.00,0.00,VWS V14.01,2013-11-08 11:12:00,
2013-11-08 06:13:00,36.3,28.1,30.14,North,0,0.0,0.0,72,0.00,,,0.00,0.00,VWS V14.01,2013-11-08 11:13:00,
2013-11-08 06:14:00,36.3,28.1,30.14,North,0,0.0,0.0,72,0.00,,,0.00,0.00,VWS V14.01,2013-11-08 11:14:00,
2013-11-08 06:15:00,36.2,28.1,30.14,North,0,0.0,0.0,72,0.00,,,0.00,0.00,VWS V14.01,2013-11-08 11:15:00,
2013-11-08 06:16:00,36.2,28.1,30.14,North,0,0.0,0.0,72,0.00,,,0.00,0.00,VWS V14.01,2013-11-08 11:16:00,
2013-11-08 06:17:00,36.5,28.0,30.14,North,0,0.0,0.0,71,0.00,,,0.00,0.00,VWS V14.01,2013-11-08 11:17:00,
2013-11-08 06:18:00,36.0,27.9,30.14,North,0,0.0,0.0,72,0.00,,,0.00,0.00,VWS V14.01,2013-11-08 11:18:00,
2013-11-08 06:19:00,36.0,27.9,30.14,North,0,0.0,0.0,72,0.00,,,0.00,0.00,VWS V14.01,2013-11-08 11:19:00,
2013-11-08 06:20:00,35.9,27.8,30.14,North,0,0.0,0.0,72,0.00,,,0.00,0.00,VWS V14.01,2013-11-08 11:20:00,
2013-11-08 06:21:00,35.9,27.8,30.14,North,0,0.0,0.0,72,0.00,,,0.00,0.00,VWS V14.01,2013-11-08 11:21:00,
2013-11-08 06:22:00,36.2,28.1,30.14,North,0,0.0,0.0,72,0.00,,,0.00,0.00,VWS V14.01,2013-11-08 11:22:00,
2013-11-08 06:23:00,35.8,28.0,30.14,North,0,0.0,0.0,73,0.00,,,0.00,0.00,VWS V14.01,2013-11-08 11:23:00,
2013-11-08 06:24:00,35.8,28.0,30.14,North,0,0.0,0.0,73,0.00,,,0.00,0.00,VWS V14.01,2013-11-08 11:24:00,
2013-11-08 06:25:00,35.8,28.3,30.14,North,0,0.0,0.0,74,0.00,,,0.00,0.00,VWS V14.01,2013-11-08 11:25:00,
2013-11-08 06:26:00,35.8,28.7,30.14,North,0,0.0,0.0,75,0.00,,,0.00,0.00,VWS V14.01,2013-11-08 11:26:00,
2013-11-08 06:27:00,35.9,27.8,30.14,North,0,0.0,0.0,72,0.00,,,0.00,0.00,VWS V14.01,2013-11-08 11:27:00,
2013-11-08 06:28:00,35.6,28.8,30.14,North,0,0.0,0.0,76,0.00,,,0.00,0.00,VWS V14.01,2013-11-08 11:28:00,
2013-11-08 06:29:00,35.6,29.1,30.14,North,0,0.0,0.0,77,0.00,,,0.00,0.00,VWS V14.01,2013-11-08 11:29:00,
2013-11-08 06:30:00,35.6,29.1,30.15,North,0,0.0,0.0,77,0.00,,,0.00,0.00,VWS V14.01,2013-11-08 11:30:00,
2013-11-08 06:32:00,35.8,28.7,30.14,North,0,0.0,0.0,75,0.00,,,0.00,0.00,VWS V14.01,2013-11-08 11:32:00,
2013-11-08 06:33:00,35.6,29.4,30.15,North,0,0.0,0.0,78,0.00,,,0.00,0.00,VWS V14.01,2013-11-08 11:33:00,
2013-11-08 06:34:00,35.5,29.6,30.15,North,0,0.0,0.0,79,0.00,,,0.00,0.00,VWS V14.01,2013-11-08 11:34:00,
2013-11-08 06:35:00,35.5,29.6,30.15,North,0,0.0,0.0,79,0.00,,,0.00,0.00,VWS V14.01,2013-11-08 11:35:00,
2013-11-08 06:36:00,35.5,29.6,30.15,North,0,0.0,0.0,79,0.00,,,0.00,0.00,VWS V14.01,2013-11-08 11:36:00,
2013-11-08 06:37:00,35.6,29.4,30.15,North,0,0.0,0.0,78,0.00,,,0.00,0.00,VWS V14.01,2013-11-08 11:37:00,
2013-11-08 06:38:00,35.5,29.6,30.15,North,0,0.0,0.0,79,0.00,,,0.00,0.00,VWS V14.01,2013-11-08 11:38:00,
2013-11-08 06:39:00,35.3,29.5,30.15,North,0,0.0,0.0,79,0.00,,,0.00,5.00,VWS V14.01,2013-11-08 11:39:00,
2013-11-08 06:40:00,35.3,29.5,30.15,North,0,0.0,0.0,79,0.00,,,0.00,5.00,VWS V14.01,2013-11-08 11:40:00,
2013-11-08 06:41:00,35.3,29.5,30.15,North,0,0.0,0.0,79,0.00,,,0.00,5.00,VWS V14.01,2013-11-08 11:41:00,
2013-11-08 06:42:00,35.5,29.6,30.15,North,0,0.0,0.0,79,0.00,,,0.00,0.00,VWS V14.01,2013-11-08 11:42:00,
2013-11-08 06:43:00,35.2,29.4,30.15,North,0,0.0,0.0,79,0.00,,,0.00,5.00,VWS V14.01,2013-11-08 11:43:00,
2013-11-08 06:44:00,35.2,29.4,30.15,North,0,0.0,0.0,79,0.00,,,0.00,7.00,VWS V14.01,2013-11-08 11:44:00,
2013-11-08 06:45:00,35.0,29.2,30.15,North,0,0.0,0.0,79,0.00,,,0.00,7.00,VWS V14.01,2013-11-08 11:45:00,
2013-11-08 06:46:00,35.0,29.2,30.15,North,0,0.0,0.0,79,0.00,,,0.00,7.00,VWS V14.01,2013-11-08 11:46:00,
2013-11-08 06:47:00,35.3,29.5,30.15,North,0,0.0,0.0,79,0.00,,,0.00,5.00,VWS V14.01,2013-11-08 11:47:00,
2013-11-08 06:48:00,34.9,29.1,30.15,North,0,0.0,0.0,79,0.00,,,0.00,7.00,VWS V14.01,2013-11-08 11:48:00,
2013-11-08 06:49:00,34.9,29.1,30.15,North,0,0.0,0.0,79,0.00,,,0.00,9.00,VWS V14.01,2013-11-08 11:49:00,
2013-11-08 06:50:00,34.9,29.1,30.15,North,0,0.0,0.0,79,0.00,,,0.00,9.00,VWS V14.01,2013-11-08 11:50:00,
2013-11-08 06:51:00,34.7,28.9,30.15,North,0,0.0,0.0,79,0.00,,,0.00,9.00,VWS V14.01,2013-11-08 11:51:00,
2013-11-08 06:52:00,35.0,29.2,30.15,North,0,0.0,0.0,79,0.00,,,0.00,7.00,VWS V14.01,2013-11-08 11:52:00,
2013-11-08 06:53:00,34.7,28.9,30.15,North,0,0.0,0.0,79,0.00,,,0.00,11.00,VWS V14.01,2013-11-08 11:53:00,
2013-11-08 06:54:00,34.6,28.8,30.15,North,0,0.0,0.0,79,0.00,,,0.00,11.00,VWS V14.01,2013-11-08 11:54:00,
2013-11-08 06:55:00,34.6,29.1,30.15,North,0,0.0,0.0,80,0.00,,,0.00,11.00,VWS V14.01,2013-11-08 11:55:00,
2013-11-08 06:56:00,34.6,29.1,30.15,North,0,0.0,0.0,80,0.00,,,0.00,11.00,VWS V14.01,2013-11-08 11:56:00,
2013-11-08 06:57:00,34.7,28.9,30.15,North,0,0.0,0.0,79,0.00,,,0.00,9.00,VWS V14.01,2013-11-08 11:57:00,
2013-11-08 06:58:00,34.4,28.9,30.15,North,0,0.0,0.0,80,0.00,,,0.00,11.00,VWS V14.01,2013-11-08 11:58:00,
2013-11-08 06:59:00,34.4,28.9,30.15,North,0,0.0,0.0,80,0.00,,,0.00,12.00,VWS V14.01,2013-11-08 11:59:00,
2013-11-08 07:00:00,34.3,28.8,30.15,North,0,0.0,0.0,80,0.00,,,0.00,12.00,VWS V14.01,2013-11-08 12:00:00,
2013-11-08 07:01:00,34.3,28.8,30.15,North,0,0.0,0.0,80,0.00,,,0.00,12.00,VWS V14.01,2013-11-08 12:01:00,
2013-11-08 07:02:00,34.6,29.1,30.15,North,0,0.0,0.0,80,0.00,,,0.00,11.00,VWS V14.01,2013-11-08 12:02:00,
2013-11-08 07:03:00,34.3,28.8,30.15,North,0,0.0,0.0,80,0.00,,,0.00,14.00,VWS V14.01,2013-11-08 12:03:00,
2013-11-08 07:04:00,34.1,28.6,30.15,North,0,0.0,0.0,80,0.00,,,0.00,14.00,VWS V14.01,2013-11-08 12:04:00,
2013-11-08 07:05:00,34.1,28.6,30.15,North,0,0.0,0.0,80,0.00,,,0.00,14.00,VWS V14.01,2013-11-08 12:05:00,
2013-11-08 07:06:00,34.1,28.6,30.15,North,0,0.0,0.0,80,0.00,,,0.00,14.00,VWS V14.01,2013-11-08 12:06:00,
2013-11-08 07:07:00,34.3,28.8,30.15,North,0,0.0,0.0,80,0.00,,,0.00,12.00,VWS V14.01,2013-11-08 12:07:00,
2013-11-08 07:08:00,34.0,28.5,30.15,North,0,0.0,0.0,80,0.00,,,0.00,16.00,VWS V14.01,2013-11-08 12:08:00,
2013-11-08 07:09:00,34.0,28.5,30.15,North,0,0.0,0.0,80,0.00,,,0.00,16.00,VWS V14.01,2013-11-08 12:09:00,
2013-11-08 07:10:00,34.0,28.5,30.15,North,0,0.0,0.0,80,0.00,,,0.00,18.00,VWS V14.01,2013-11-08 12:10:00,
2013-11-08 07:11:00,34.0,28.5,30.15,North,0,0.0,0.0,80,0.00,,,0.00,18.00,VWS V14.01,2013-11-08 12:11:00,
2013-11-08 07:12:00,34.1,28.6,30.15,North,0,0.0,0.0,80,0.00,,,0.00,16.00,VWS V14.01,2013-11-08 12:12:00,
2013-11-08 07:13:00,33.8,28.3,30.15,North,0,0.0,0.0,80,0.00,,,0.00,19.00,VWS V14.01,2013-11-08 12:13:00,
2013-11-08 07:14:00,33.8,28.6,30.15,North,0,0.0,0.0,81,0.00,,,0.00,19.00,VWS V14.01,2013-11-08 12:14:00,
2013-11-08 07:15:00,33.8,28.6,30.15,North,0,0.0,0.0,81,0.00,,,0.00,19.00,VWS V14.01,2013-11-08 12:15:00,
2013-11-08 07:16:00,33.8,28.6,30.15,North,0,0.0,0.0,81,0.00,,,0.00,19.00,VWS V14.01,2013-11-08 12:16:00,
2013-11-08 07:17:00,34.0,28.5,30.15,North,0,0.0,0.0,80,0.00,,,0.00,18.00,VWS V14.01,2013-11-08 12:17:00,
2013-11-08 07:18:00,33.8,28.6,30.15,North,0,0.0,0.0,81,0.00,,,0.00,19.00,VWS V14.01,2013-11-08 12:18:00,
2013-11-08 07:19:00,33.8,28.6,30.15,North,0,0.0,0.0,81,0.00,,,0.00,21.00,VWS V14.01,2013-11-08 12:19:00,
2013-11-08 07:20:00,33.8,28.9,30.15,North,0,0.0,0.0,82,0.00,,,0.00,21.00,VWS V14.01,2013-11-08 12:20:00,
2013-11-08 07:21:00,33.8,28.9,30.15,North,0,0.0,0.0,82,0.00,,,0.00,21.00,VWS V14.01,2013-11-08 12:21:00,
2013-11-08 07:22:00,33.8,28.6,30.16,North,0,0.0,0.0,81,0.00,,,0.00,19.00,VWS V14.01,2013-11-08 12:22:00,
2013-11-08 07:23:00,34.0,29.1,30.15,North,0,0.0,0.0,82,0.00,,,0.00,21.00,VWS V14.01,2013-11-08 12:23:00,
2013-11-08 07:24:00,34.0,29.4,30.15,North,0,0.0,0.0,83,0.00,,,0.00,21.00,VWS V14.01,2013-11-08 12:24:00,
2013-11-08 07:25:00,34.0,29.7,30.15,North,0,0.0,0.0,84,0.00,,,0.00,21.00,VWS V14.01,2013-11-08 12:25:00,
2013-11-08 07:26:00,34.1,29.8,30.15,North,0,0.0,0.0,84,0.00,,,0.00,21.00,VWS V14.01,2013-11-08 12:26:00,
2013-11-08 07:27:00,33.8,28.9,30.16,North,0,0.0,0.0,82,0.00,,,0.00,21.00,VWS V14.01,2013-11-08 12:27:00,
2013-11-08 07:28:00,34.3,30.0,30.15,North,0,0.0,0.0,84,0.00,,,0.00,21.00,VWS V14.01,2013-11-08 12:28:00,
2013-11-08 07:29:00,34.4,30.1,30.15,North,0,0.0,0.0,84,0.00,,,0.00,23.00,VWS V14.01,2013-11-08 12:29:00,
2013-11-08 07:30:00,34.4,30.4,30.16,North,0,0.0,0.0,85,0.00,,,0.00,23.00,VWS V14.01,2013-11-08 12:30:00,
2013-11-08 07:31:00,34.6,30.6,30.16,North,0,2.0,3.0,85,0.00,,,0.00,23.00,VWS V14.01,2013-11-08 12:31:00,
2013-11-08 07:32:00,34.1,29.8,30.16,North,0,0.0,0.0,84,0.00,,,0.00,21.00,VWS V14.01,2013-11-08 12:32:00,
2013-11-08 07:33:00,34.7,30.7,30.16,North,0,3.0,3.0,85,0.00,,,0.00,23.00,VWS V14.01,2013-11-08 12:33:00,
2013-11-08 07:34:00,34.9,30.9,30.16,NNW,332,2.0,6.0,85,0.00,,,0.00,23.00,VWS V14.01,2013-11-08 12:34:00,
2013-11-08 07:35:00,35.0,31.0,30.16,NNW,332,4.0,5.0,85,0.00,,,0.00,23.00,VWS V14.01,2013-11-08 12:35:00,
2013-11-08 07:36:00,35.2,31.1,30.16,NW,318,3.0,5.0,85,0.00,,,0.00,23.00,VWS V14.01,2013-11-08 12:36:00,
2013-11-08 07:37:00,34.6,30.6,30.16,North,0,3.0,3.0,85,0.00,,,0.00,23.00,VWS V14.01,2013-11-08 12:37:00,
2013-11-08 07:38:00,35.6,31.2,30.16,NNW,333,0.0,0.0,84,0.00,,,0.00,25.00,VWS V14.01,2013-11-08 12:38:00,
2013-11-08 07:39:00,35.8,31.5,30.16,NW,320,3.0,4.0,84,0.00,,,0.00,25.00,VWS V14.01,2013-11-08 12:39:00,
2013-11-08 07:40:00,35.9,31.2,30.16,WNW,301,0.0,5.0,83,0.00,,,0.00,25.00,VWS V14.01,2013-11-08 12:40:00,
2013-11-08 07:41:00,36.2,31.5,30.16,WNW,303,1.0,1.0,83,0.00,,,0.00,25.00,VWS V14.01,2013-11-08 12:41:00,
2013-11-08 07:42:00,35.3,31.2,30.16,NNW,333,4.0,5.0,85,0.00,,,0.00,23.00,VWS V14.01,2013-11-08 12:42:00,
2013-11-08 07:43:00,36.5,31.2,30.16,WNW,303,0.0,0.0,81,0.00,,,0.00,25.00,VWS V14.01,2013-11-08 12:43:00,
2013-11-08 07:44:00,36.6,31.3,30.16,NW,304,3.0,3.0,81,0.00,,,0.00,25.00,VWS V14.01,2013-11-08 12:44:00,
2013-11-08 07:45:00,36.8,31.2,30.17,NW,306,0.0,3.0,80,0.00,,,0.00,25.00,VWS V14.01,2013-11-08 12:45:00,
2013-11-08 07:46:00,36.9,31.3,30.17,NW,306,0.0,0.0,80,0.00,,,0.00,25.00,VWS V14.01,2013-11-08 12:46:00,
2013-11-08 07:47:00,36.2,31.2,30.16,WNW,303,0.0,1.0,82,0.00,,,0.00,25.00,VWS V14.01,2013-11-08 12:47:00,
2013-11-08 07:48:00,37.2,31.0,30.17,NW,306,0.0,0.0,78,0.00,,,0.00,25.00,VWS V14.01,2013-11-08 12:48:00,
2013-11-08 07:49:00,37.5,31.3,30.17,NW,306,0.0,0.0,78,0.00,,,0.00,25.00,VWS V14.01,2013-11-08 12:49:00,
2013-11-08 07:50:00,37.6,31.1,30.17,NW,306,2.0,2.0,77,0.00,,,0.00,26.00,VWS V14.01,2013-11-08 12:50:00,
2013-11-08 07:51:00,37.8,31.2,30.17,NW,306,0.0,2.0,77,0.00,,,0.00,26.00,VWS V14.01,2013-11-08 12:51:00,
2013-11-08 07:52:00,36.9,31.3,30.17,NW,306,0.0,0.0,80,0.00,,,0.00,25.00,VWS V14.01,2013-11-08 12:52:00,
2013-11-08 07:53:00,38.0,31.1,30.17,NW,307,0.0,0.0,76,0.00,,,0.00,26.00,VWS V14.01,2013-11-08 12:53:00,
2013-11-08 07:54:00,38.2,31.0,30.17,NW,307,0.0,0.0,75,0.00,,,0.00,26.00,VWS V14.01,2013-11-08 12:54:00,
2013-11-08 07:55:00,38.3,31.1,30.17,NW,307,0.0,0.0,75,0.00,,,0.00,26.00,VWS V14.01,2013-11-08 12:55:00,
2013-11-08 07:56:00,38.5,31.0,30.17,NW,307,0.0,0.0,74,0.00,,,0.00,26.00,VWS V14.01,2013-11-08 12:56:00,
2013-11-08 07:57:00,37.8,31.2,30.17,NW,307,2.0,2.0,77,0.00,,,0.00,26.00,VWS V14.01,2013-11-08 12:57:00,
2013-11-08 07:58:00,38.8,30.9,30.17,NW,307,0.0,2.0,73,0.00,,,0.00,26.00,VWS V14.01,2013-11-08 12:58:00,
2013-11-08 07:59:00,38.9,31.0,30.17,NW,307,0.0,0.0,73,0.00,,,0.00,26.00,VWS V14.01,2013-11-08 12:59:00,
2013-11-08 08:00:00,39.1,30.9,30.18,NW,307,0.0,0.0,72,0.00,,,0.00,26.00,VWS V14.01,2013-11-08 13:00:00,
2013-11-08 08:01:00,39.2,31.0,30.18,NW,307,0.0,0.0,72,0.00,,,0.00,26.00,VWS V14.01,2013-11-08 13:01:00,
2013-11-08 08:02:00,38.5,31.0,30.17,NW,307,0.0,0.0,74,0.00,,,0.00,26.00,VWS V14.01,2013-11-08 13:02:00,
2013-11-08 08:03:00,39.6,31.0,30.18,NW,307,0.0,0.0,71,0.00,,,0.00,26.00,VWS V14.01,2013-11-08 13:03:00,
2013-11-08 08:04:00,39.8,31.2,30.18,NW,307,0.0,0.0,71,0.00,,,0.00,26.00,VWS V14.01,2013-11-08 13:04:00,
2013-11-08 08:05:00,39.9,30.6,30.18,NW,307,0.0,0.0,69,0.00,,,0.00,26.00,VWS V14.01,2013-11-08 13:05:00,
2013-11-08 08:06:00,40.1,30.8,30.18,NW,307,0.0,0.0,69,0.00,,,0.00,28.00,VWS V14.01,2013-11-08 13:06:00,
2013-11-08 08:07:00,39.3,31.0,30.18,NW,307,0.0,0.0,72,0.00,,,0.00,26.00,VWS V14.01,2013-11-08 13:07:00,
2013-11-08 08:08:00,40.3,31.0,30.18,NW,307,0.0,3.0,69,0.00,,,0.00,28.00,VWS V14.01,2013-11-08 13:08:00,
2013-11-08 08:09:00,40.5,30.8,30.18,NW,307,0.0,3.0,68,0.00,,,0.00,28.00,VWS V14.01,2013-11-08 13:09:00,
2013-11-08 08:10:00,40.6,30.9,30.18,NW,319,0.0,3.0,68,0.00,,,0.00,28.00,VWS V14.01,2013-11-08 13:10:00,
2013-11-08 08:11:00,40.9,30.4,30.18,NNW,328,2.0,5.0,66,0.00,,,0.00,42.00,VWS V14.01,2013-11-08 13:11:00,
2013-11-08 08:12:00,40.1,30.8,30.18,NW,307,0.0,0.0,69,0.00,,,0.00,28.00,VWS V14.01,2013-11-08 13:12:00,
2013-11-08 08:13:00,41.2,30.0,30.18,NNW,337,3.0,3.0,64,0.00,,,0.00,262.00,VWS V14.01,2013-11-08 13:13:00,
2013-11-08 08:14:00,41.5,30.2,30.18,NNW,330,0.0,3.0,64,0.00,,,0.00,265.00,VWS V14.01,2013-11-08 13:14:00,
2013-11-08 08:15:00,41.5,30.2,30.18,NNW,330,0.0,0.0,64,0.00,,,0.00,265.00,VWS V14.01,2013-11-08 13:15:00,
2013-11-08 08:16:00,41.5,30.2,30.18,NNW,330,0.0,0.0,64,0.00,,,0.00,265.00,VWS V14.01,2013-11-08 13:16:00,
2013-11-08 08:17:00,40.9,30.4,30.18,NNW,328,0.0,2.0,66,0.00,,,0.00,132.00,VWS V14.01,2013-11-08 13:17:00,
2013-11-08 08:18:00,42.5,30.4,30.18,NW,318,0.0,0.0,62,0.00,,,0.00,279.00,VWS V14.01,2013-11-08 13:18:00,
2013-11-08 08:19:00,42.6,30.1,30.18,NNW,329,2.0,2.0,61,0.00,,,0.00,283.00,VWS V14.01,2013-11-08 13:19:00,
2013-11-08 08:20:00,42.9,30.4,30.18,NNW,332,0.0,4.0,61,0.00,,,0.00,285.00,VWS V14.01,2013-11-08 13:20:00,
2013-11-08 08:21:00,43.2,30.3,30.18,NNW,332,3.0,3.0,60,0.00,,,0.00,288.00,VWS V14.01,2013-11-08 13:21:00,
2013-11-08 08:22:00,41.5,30.2,30.18,NNW,330,0.0,0.0,64,0.00,,,0.00,265.00,VWS V14.01,2013-11-08 13:22:00,
2013-11-08 08:23:00,43.8,30.0,30.18,NNW,333,0.0,2.0,58,0.00,,,0.00,294.00,VWS V14.01,2013-11-08 13:23:00,
2013-11-08 08:24:00,44.1,30.3,30.18,WNW,301,0.0,3.0,58,0.00,,,0.00,299.00,VWS V14.01,2013-11-08 13:24:00,
2013-11-08 08:25:00,44.3,30.0,30.18,WNW,301,0.0,0.0,57,0.00,,,0.00,301.00,VWS V14.01,2013-11-08 13:25:00,
2013-11-08 08:26:00,44.6,30.3,30.18,WNW,301,0.0,0.0,57,0.00,,,0.00,304.00,VWS V14.01,2013-11-08 13:26:00,
2013-11-08 08:27:00,43.3,30.8,30.18,NW,319,3.0,3.0,61,0.00,,,0.00,288.00,VWS V14.01,2013-11-08 13:27:00,
2013-11-08 08:28:00,45.2,30.5,30.18,North,358,1.0,4.0,56,0.00,,,0.00,309.00,VWS V14.01,2013-11-08 13:28:00,
2013-11-08 08:29:00,45.4,30.2,30.18,North,358,0.0,1.0,55,0.00,,,0.00,313.00,VWS V14.01,2013-11-08 13:29:00,
2013-11-08 08:30:00,45.8,30.1,30.19,North,358,0.0,0.0,54,0.00,,,0.00,318.00,VWS V14.01,2013-11-08 13:30:00,
2013-11-08 08:31:00,46.1,30.4,30.19,North,358,0.0,0.0,54,0.00,,,0.00,320.00,VWS V14.01,2013-11-08 13:31:00,
2013-11-08 08:32:00,44.8,30.5,30.18,WNW,301,0.0,0.0,57,0.00,,,0.00,304.00,VWS V14.01,2013-11-08 13:32:00,
2013-11-08 08:33:00,46.7,29.5,30.19,NNW,329,0.0,0.0,51,0.00,,,0.00,325.00,VWS V14.01,2013-11-08 13:33:00,
2013-11-08 08:34:00,47.0,30.3,30.19,North,4,1.0,2.0,52,0.00,,,0.00,329.00,VWS V14.01,2013-11-08 13:34:00,
2013-11-08 08:35:00,47.1,29.9,30.19,NNW,340,0.0,4.0,51,0.00,,,0.00,332.00,VWS V14.01,2013-11-08 13:35:00,
2013-11-08 08:36:00,47.4,29.7,30.19,NNW,340,0.0,0.0,50,0.00,,,0.00,338.00,VWS V14.01,2013-11-08 13:36:00,
2013-11-08 08:37:00,46.1,30.4,30.19,North,358,0.0,0.0,54,0.00,,,0.00,320.00,VWS V14.01,2013-11-08 13:37:00,
2013-11-08 08:38:00,47.7,30.0,30.19,NNW,340,0.0,0.0,50,0.00,,,0.00,343.00,VWS V14.01,2013-11-08 13:38:00,
2013-11-08 08:39:00,47.9,30.2,30.19,NNW,340,0.0,0.0,50,0.00,,,0.00,345.00,VWS V14.01,2013-11-08 13:39:00,
2013-11-08 08:40:00,48.0,29.8,30.19,NW,312,6.0,6.0,49,0.00,,,0.00,348.00,VWS V14.01,2013-11-08 13:40:00,
2013-11-08 08:41:00,48.2,29.5,30.19,WNW,302,0.0,6.0,48,0.00,,,0.00,352.00,VWS V14.01,2013-11-08 13:41:00,
2013-11-08 08:42:00,47.4,29.7,30.19,NNW,340,0.0,0.0,50,0.00,,,0.00,338.00,VWS V14.01,2013-11-08 13:42:00,
2013-11-08 08:43:00,48.5,30.2,30.19,North,0,0.0,2.0,49,0.00,,,0.00,357.00,VWS V14.01,2013-11-08 13:43:00,
2013-11-08 08:44:00,48.6,29.8,30.19,NNW,347,0.0,4.0,48,0.00,,,0.00,360.00,VWS V14.01,2013-11-08 13:44:00,
2013-11-08 08:45:00,48.8,30.0,30.19,North,355,5.0,7.0,48,0.00,,,0.00,362.00,VWS V14.01,2013-11-08 13:45:00,
2013-11-08 08:46:00,48.9,29.6,30.19,NNW,334,0.0,5.0,47,0.00,,,0.00,366.00,VWS V14.01,2013-11-08 13:46:00,
2013-11-08 08:47:00,48.2,29.5,30.19,WNW,302,0.0,0.0,48,0.00,,,0.00,352.00,VWS V14.01,2013-11-08 13:47:00,
2013-11-08 08:48:00,49.2,29.9,30.19,NW,319,0.0,0.0,47,0.00,,,0.00,373.00,VWS V14.01,2013-11-08 13:48:00,
2013-11-08 08:49:00,49.4,30.0,30.19,NNW,343,0.0,4.0,47,0.00,,,0.00,374.00,VWS V14.01,2013-11-08 13:49:00,
2013-11-08 08:50:00,49.5,30.1,30.19,NW,309,0.0,3.0,47,0.00,,,0.00,378.00,VWS V14.01,2013-11-08 13:50:00,
2013-11-08 08:51:00,49.6,30.2,30.19,NNW,338,2.0,5.0,47,0.00,,,0.00,380.00,VWS V14.01,2013-11-08 13:51:00,
2013-11-08 08:52:00,48.9,29.6,30.19,NW,325,3.0,3.0,47,0.00,,,0.00,366.00,VWS V14.01,2013-11-08 13:52:00,
2013-11-08 08:53:00,49.9,29.4,30.19,West,271,4.0,6.0,45,0.00,,,0.00,388.00,VWS V14.01,2013-11-08 13:53:00,
2013-11-08 08:54:00,49.9,29.4,30.19,WNW,297,0.0,4.0,45,0.00,,,0.00,390.00,VWS V14.01,2013-11-08 13:54:00,
2013-11-08 08:55:00,50.1,29.0,30.19,WNW,288,1.0,3.0,44,0.00,,,0.00,394.00,VWS V14.01,2013-11-08 13:55:00,
2013-11-08 08:56:00,50.2,29.1,30.19,West,270,4.0,5.0,44,0.00,,,0.00,396.00,VWS V14.01,2013-11-08 13:56:00,
2013-11-08 08:57:00,49.6,29.7,30.19,North,351,2.0,3.0,46,0.00,,,0.00,380.00,VWS V14.01,2013-11-08 13:57:00,
2013-11-08 08:58:00,50.4,29.9,30.19,North,9,0.0,6.0,45,0.00,,,0.00,399.00,VWS V14.01,2013-11-08 13:58:00,
2013-11-08 08:59:00,50.4,29.3,30.19,North,8,0.0,0.0,44,0.00,,,0.00,403.00,VWS V14.01,2013-11-08 13:59:00,
2013-11-08 09:00:00,50.5,29.4,30.19,North,7,0.0,0.0,44,0.00,,,0.00,406.00,VWS V14.01,2013-11-08 14:00:00,
2013-11-08 09:01:00,50.5,29.4,30.19,North,0,0.0,0.0,44,0.00,,,0.00,410.00,VWS V14.01,2013-11-08 14:01:00,
2013-11-08 09:02:00,50.2,29.1,30.19,WNW,292,4.0,5.0,44,0.00,,,0.00,396.00,VWS V14.01,2013-11-08 14:02:00,
2013-11-08 09:03:00,50.8,29.1,30.19,North,0,3.0,4.0,43,0.00,,,0.00,411.00,VWS V14.01,2013-11-08 14:03:00,
2013-11-08 09:04:00,50.8,29.7,30.19,North,0,5.0,5.0,44,0.00,,,0.00,417.00,VWS V14.01,2013-11-08 14:04:00,
2013-11-08 09:05:00,51.0,29.9,30.19,North,8,0.0,5.0,44,0.00,,,0.00,420.00,VWS V14.01,2013-11-08 14:05:00,
2013-11-08 09:06:00,51.1,29.4,30.19,NNW,334,4.0,7.0,43,0.00,,,0.00,422.00,VWS V14.01,2013-11-08 14:06:00,
2013-11-08 09:07:00,50.5,29.4,30.19,North,0,0.0,0.0,44,0.00,,,0.00,410.00,VWS V14.01,2013-11-08 14:07:00,
2013-11-08 09:08:00,51.3,29.6,30.19,NW,305,2.0,3.0,43,0.00,,,0.00,427.00,VWS V14.01,2013-11-08 14:08:00,
2013-11-08 09:09:00,51.3,29.0,30.19,NNW,334,2.0,4.0,42,0.00,,,0.00,431.00,VWS V14.01,2013-11-08 14:09:00,
2013-11-08 09:10:00,51.3,29.0,30.19,NNW,333,3.0,6.0,42,0.00,,,0.00,432.00,VWS V14.01,2013-11-08 14:10:00,
2013-11-08 09:11:00,51.3,27.8,30.19,North,358,0.0,5.0,40,0.00,,,0.00,438.00,VWS V14.01,2013-11-08 14:11:00,
2013-11-08 09:12:00,51.1,29.4,30.19,NW,319,5.0,5.0,43,0.00,,,0.00,422.00,VWS V14.01,2013-11-08 14:12:00,
2013-11-08 09:13:00,51.1,27.6,30.19,NNE,19,0.0,7.0,40,0.00,,,0.00,441.00,VWS V14.01,2013-11-08 14:13:00,
2013-11-08 09:14:00,51.1,28.2,30.19,North,0,0.0,1.0,41,0.00,,,0.00,445.00,VWS V14.01,2013-11-08 14:14:00,
2013-11-08 09:15:00,51.1,28.8,30.19,North,0,0.0,0.0,42,0.00,,,0.00,446.00,VWS V14.01,2013-11-08 14:15:00,
2013-11-08 09:16:00,51.3,28.4,30.19,NE,47,4.0,4.0,41,0.00,,,0.00,450.00,VWS V14.01,2013-11-08 14:16:00,
2013-11-08 09:17:00,51.3,27.8,30.19,North,358,0.0,0.0,40,0.00,,,0.00,438.00,VWS V14.01,2013-11-08 14:17:00,
2013-11-08 09:18:00,51.4,28.5,30.19,North,0,2.0,5.0,41,0.00,,,0.00,455.00,VWS V14.01,2013-11-08 14:18:00,
2013-11-08 09:19:00,51.4,29.1,30.19,NNW,330,4.0,4.0,42,0.00,,,0.00,457.00,VWS V14.01,2013-11-08 14:19:00,
2013-11-08 09:20:00,51.4,29.7,30.19,NNW,330,3.0,10.0,43,0.00,,,0.00,461.00,VWS V14.01,2013-11-08 14:20:00,
2013-11-08 09:21:00,51.6,29.9,30.19,WNW,296,4.0,4.0,43,0.00,,,0.00,461.00,VWS V14.01,2013-11-08 14:21:00,
2013-11-08 09:22:00,51.3,28.4,30.19,NNE,29,2.0,4.0,41,0.00,,,0.00,452.00,VWS V14.01,2013-11-08 14:22:00,
2013-11-08 09:23:00,51.6,28.1,30.19,NW,307,1.0,1.0,40,0.00,,,0.00,468.00,VWS V14.01,2013-11-08 14:23:00,
2013-11-08 09:24:00,51.7,28.2,30.19,NW,306,1.0,5.0,40,0.00,,,0.00,469.00,VWS V14.01,2013-11-08 14:24:00,
2013-11-08 09:25:00,51.7,28.2,30.19,NW,312,0.0,5.0,40,0.00,,,0.00,473.00,VWS V14.01,2013-11-08 14:25:00,
2013-11-08 09:26:00,51.7,28.2,30.19,NW,312,0.0,0.0,40,0.00,,,0.00,475.00,VWS V14.01,2013-11-08 14:26:00,
2013-11-08 09:27:00,51.6,27.5,30.19,WNW,300,2.0,4.0,39,0.00,,,0.00,461.00,VWS V14.01,2013-11-08 14:27:00,
2013-11-08 09:28:00,51.9,28.4,30.19,NNW,339,0.0,0.0,40,0.00,,,0.00,480.00,VWS V14.01,2013-11-08 14:28:00,
2013-11-08 09:29:00,52.0,26.5,30.19,North,0,3.0,13.0,37,0.00,,,0.00,483.00,VWS V14.01,2013-11-08 14:29:00,
2013-11-08 09:30:00,52.0,28.5,30.20,North,352,0.0,6.0,40,0.00,,,0.00,483.00,VWS V14.01,2013-11-08 14:30:00,
2013-11-08 09:31:00,52.2,28.6,30.20,North,2,4.0,4.0,40,0.00,,,0.00,487.00,VWS V14.01,2013-11-08 14:31:00,
2013-11-08 09:32:00,51.7,28.2,30.19,NW,312,1.0,1.0,40,0.00,,,0.00,475.00,VWS V14.01,2013-11-08 14:32:00,
2013-11-08 09:33:00,52.3,29.3,30.20,North,0,1.0,5.0,41,0.00,,,0.00,490.00,VWS V14.01,2013-11-08 14:33:00,
2013-11-08 09:34:00,52.5,29.5,30.20,NW,319,5.0,5.0,41,0.00,,,0.00,497.00,VWS V14.01,2013-11-08 14:34:00,
2013-11-08 09:35:00,52.5,29.5,30.20,NW,319,2.0,5.0,41,0.00,,,0.00,497.00,VWS V14.01,2013-11-08 14:35:00,
2013-11-08 09:36:00,52.5,28.3,30.20,NNW,338,0.0,2.0,39,0.00,,,0.00,501.00,VWS V14.01,2013-11-08 14:36:00,
2013-11-08 09:37:00,52.2,28.6,30.20,North,2,3.0,4.0,40,0.00,,,0.00,487.00,VWS V14.01,2013-11-08 14:37:00,
2013-11-08 09:38:00,52.6,28.4,30.20,North,10,8.0,9.0,39,0.00,,,0.00,504.00,VWS V14.01,2013-11-08 14:38:00,
2013-11-08 09:39:00,52.8,28.5,30.20,North,358,11.0,13.0,39,0.00,,,0.00,506.00,VWS V14.01,2013-11-08 14:39:00,
2013-11-08 09:40:00,52.6,27.7,30.20,NNE,20,0.0,11.0,38,0.00,,,0.00,512.00,VWS V14.01,2013-11-08 14:40:00,
2013-11-08 09:41:00,52.6,27.7,30.20,NW,325,0.0,9.0,38,0.00,,,0.00,513.00,VWS V14.01,2013-11-08 14:41:00,
2013-11-08 09:42:00,52.5,28.3,30.20,NW,326,4.0,4.0,39,0.00,,,0.00,501.00,VWS V14.01,2013-11-08 14:42:00,
2013-11-08 09:43:00,52.8,28.5,30.20,WNW,287,0.0,6.0,39,0.00,,,0.00,517.00,VWS V14.01,2013-11-08 14:43:00,
2013-11-08 09:44:00,52.9,28.6,30.20,North,358,1.0,5.0,39,0.00,,,0.00,517.00,VWS V14.01,2013-11-08 14:44:00,
2013-11-08 09:45:00,52.9,30.5,30.19,North,351,6.0,6.0,42,0.00,,,0.00,519.00,VWS V14.01,2013-11-08 14:45:00,
2013-11-08 09:46:00,53.1,28.8,30.19,North,2,5.0,11.0,39,0.00,,,0.00,522.00,VWS V14.01,2013-11-08 14:46:00,
2013-11-08 09:47:00,52.6,27.7,30.20,NW,325,0.0,0.0,38,0.00,,,0.00,513.00,VWS V14.01,2013-11-08 14:47:00,
2013-11-08 09:48:00,52.9,28.0,30.19,NNE,22,5.0,7.0,38,0.00,,,0.00,527.00,VWS V14.01,2013-11-08 14:48:00,
2013-11-08 09:49:00,52.9,28.0,30.19,NNE,22,5.0,5.0,38,0.00,,,0.00,527.00,VWS V14.01,2013-11-08 14:49:00,
2013-11-08 09:50:00,53.1,28.2,30.19,North,0,4.0,5.0,38,0.00,,,0.00,527.00,VWS V14.01,2013-11-08 14:50:00,
2013-11-08 09:51:00,53.1,29.4,30.19,NNW,328,5.0,7.0,40,0.00,,,0.00,533.00,VWS V14.01,2013-11-08 14:51:00,
2013-11-08 09:52:00,53.1,28.8,30.19,North,354,8.0,8.0,39,0.00,,,0.00,522.00,VWS V14.01,2013-11-08 14:52:00,
2013-11-08 09:53:00,53.2,28.3,30.19,WNW,293,0.0,0.0,38,0.00,,,0.00,540.00,VWS V14.01,2013-11-08 14:53:00,
2013-11-08 09:54:00,53.2,28.9,30.19,WNW,293,0.0,2.0,39,0.00,,,0.00,540.00,VWS V14.01,2013-11-08 14:54:00,
2013-11-08 09:55:00,53.3,29.0,30.19,WNW,293,0.0,0.0,39,0.00,,,0.00,543.00,VWS V14.01,2013-11-08 14:55:00,
2013-11-08 09:56:00,53.3,29.0,30.19,North,2,1.0,4.0,39,0.00,,,0.00,545.00,VWS V14.01,2013-11-08 14:56:00,
2013-11-08 09:57:00,53.1,29.4,30.19,NNW,328,4.0,5.0,40,0.00,,,0.00,536.00,VWS V14.01,2013-11-08 14:57:00,
2013-11-08 09:58:00,53.5,27.9,30.19,NNW,333,6.0,8.0,37,0.00,,,0.00,550.00,VWS V14.01,2013-11-08 14:58:00,
2013-11-08 09:59:00,53.6,28.0,30.19,North,0,11.0,11.0,37,0.00,,,0.00,550.00,VWS V14.01,2013-11-08 14:59:00,
2013-11-08 10:00:00,53.6,28.6,30.18,NW,321,5.0,11.0,38,0.00,,,0.00,554.00,VWS V14.01,2013-11-08 15:00:00,
2013-11-08 10:01:00,53.6,27.3,30.18,North,0,9.0,9.0,36,0.00,,,0.00,555.00,VWS V14.01,2013-11-08 15:01:00,
2013-11-08 10:02:00,53.3,29.0,30.19,North,2,0.0,1.0,39,0.00,,,0.00,545.00,VWS V14.01,2013-11-08 15:02:00,
2013-11-08 10:03:00,53.6,26.6,30.18,NW,304,5.0,9.0,35,0.00,,,0.00,559.00,VWS V14.01,2013-11-08 15:03:00,
2013-11-08 10:04:00,53.6,26.6,30.18,WNW,286,9.0,9.0,35,0.00,,,0.00,561.00,VWS V14.01,2013-11-08 15:04:00,
2013-11-08 10:05:00,53.6,25.9,30.18,North,8,5.0,10.0,34,0.00,,,0.00,564.00,VWS V14.01,2013-11-08 15:05:00,
2013-11-08 10:06:00,53.5,25.1,30.18,North,0,9.0,9.0,33,0.00,,,0.00,566.00,VWS V14.01,2013-11-08 15:06:00,
2013-11-08 10:07:00,53.6,27.3,30.18,North,0,9.0,9.0,36,0.00,,,0.00,555.00,VWS V14.01,2013-11-08 15:07:00,
2013-11-08 10:08:00,53.5,26.5,30.18,NW,317,7.0,12.0,35,0.00,,,0.00,570.00,VWS V14.01,2013-11-08 15:08:00,
2013-11-08 10:09:00,53.3,26.4,30.18,NW,323,4.0,7.0,35,0.00,,,0.00,577.00,VWS V14.01,2013-11-08 15:09:00,
2013-11-08 10:10:00,53.3,26.4,30.18,West,267,0.0,8.0,35,0.00,,,0.00,575.00,VWS V14.01,2013-11-08 15:10:00,
2013-11-08 10:11:00,53.3,25.7,30.18,NW,314,4.0,14.0,34,0.00,,,0.00,577.00,VWS V14.01,2013-11-08 15:11:00,
2013-11-08 10:12:00,53.5,25.1,30.18,North,1,9.0,9.0,33,0.00,,,0.00,566.00,VWS V14.01,2013-11-08 15:12:00,
2013-11-08 10:13:00,53.2,26.3,30.18,NNW,344,13.0,15.0,35,0.00,,,0.00,577.00,VWS V14.01,2013-11-08 15:13:00,
2013-11-08 10:14:00,53.2,26.3,30.18,NW,311,4.0,13.0,35,0.00,,,0.00,578.00,VWS V14.01,2013-11-08 15:14:00,
2013-11-08 10:15:00,53.2,26.3,30.18,North,358,4.0,8.0,35,0.00,,,0.00,584.00,VWS V14.01,2013-11-08 15:15:00,
2013-11-08 10:16:00,53.2,26.3,30.18,NE,49,2.0,9.0,35,0.00,,,0.00,584.00,VWS V14.01,2013-11-08 15:16:00,
2013-11-08 10:17:00,53.3,25.7,30.18,WNW,287,5.0,5.0,34,0.00,,,0.00,577.00,VWS V14.01,2013-11-08 15:17:00,
2013-11-08 10:18:00,53.2,27.0,30.18,NNW,328,1.0,6.0,36,0.00,,,0.00,587.00,VWS V14.01,2013-11-08 15:18:00,
2013-11-08 10:19:00,53.3,27.0,30.18,NW,326,4.0,4.0,36,0.00,,,0.00,587.00,VWS V14.01,2013-11-08 15:19:00,
2013-11-08 10:20:00,53.3,27.0,30.18,NNW,348,7.0,12.0,36,0.00,,,0.00,589.00,VWS V14.01,2013-11-08 15:20:00,
2013-11-08 10:21:00,53.3,26.4,30.18,NW,305,6.0,7.0,35,0.00,,,0.00,592.00,VWS V14.01,2013-11-08 15:21:00,
2013-11-08 10:22:00,53.2,26.3,30.18,NE,34,5.0,5.0,35,0.00,,,0.00,584.00,VWS V14.01,2013-11-08 15:22:00,
2013-11-08 10:23:00,53.5,27.9,30.18,North,0,0.0,8.0,37,0.00,,,0.00,598.00,VWS V14.01,2013-11-08 15:23:00,
2013-11-08 10:24:00,53.6,28.0,30.18,North,358,8.0,10.0,37,0.00,,,0.00,598.00,VWS V14.01,2013-11-08 15:24:00,
2013-11-08 10:25:00,53.6,27.3,30.18,NNW,332,6.0,14.0,36,0.00,,,0.00,598.00,VWS V14.01,2013-11-08 15:25:00,
2013-11-08 10:26:00,53.6,25.9,30.18,NNW,340,0.0,6.0,34,0.00,,,0.00,603.00,VWS V14.01,2013-11-08 15:26:00,
2013-11-08 10:27:00,53.3,26.4,30.18,NW,305,6.0,7.0,35,0.00,,,0.00,592.00,VWS V14.01,2013-11-08 15:27:00,
2013-11-08 10:28:00,53.6,25.9,30.18,North,0,3.0,3.0,34,0.00,,,0.00,605.00,VWS V14.01,2013-11-08 15:28:00,
2013-11-08 10:29:00,53.8,27.5,30.18,NW,314,0.0,3.0,36,0.00,,,0.00,605.00,VWS V14.01,2013-11-08 15:29:00,
2013-11-08 10:30:00,53.8,28.2,30.18,NW,306,0.0,0.0,37,0.00,,,0.00,608.00,VWS V14.01,2013-11-08 15:30:00,
2013-11-08 10:31:00,53.9,27.6,30.18,WNW,302,5.0,7.0,36,0.00,,,0.00,610.00,VWS V14.01,2013-11-08 15:31:00,
2013-11-08 10:32:00,53.6,25.9,30.18,NNW,340,0.0,6.0,34,0.00,,,0.00,603.00,VWS V14.01,2013-11-08 15:32:00,
2013-11-08 10:33:00,53.9,26.9,30.18,NW,307,10.0,12.0,35,0.00,,,0.00,613.00,VWS V14.01,2013-11-08 15:33:00,
2013-11-08 10:34:00,54.1,27.1,30.18,NW,305,7.0,10.0,35,0.00,,,0.00,615.00,VWS V14.01,2013-11-08 15:34:00,
2013-11-08 10:35:00,53.9,26.9,30.18,NW,307,4.0,7.0,35,0.00,,,0.00,615.00,VWS V14.01,2013-11-08 15:35:00,
2013-11-08 10:36:00,54.1,27.1,30.18,North,350,13.0,13.0,35,0.00,,,0.00,615.00,VWS V14.01,2013-11-08 15:36:00,
2013-11-08 10:37:00,53.9,28.2,30.18,WNW,290,3.0,5.0,37,0.00,,,0.00,610.00,VWS V14.01,2013-11-08 15:37:00,
2013-11-08 10:38:00,53.9,26.9,30.18,WNW,288,1.0,7.0,35,0.00,,,0.00,621.00,VWS V14.01,2013-11-08 15:38:00,
2013-11-08 10:39:00,53.9,26.9,30.18,NNW,347,5.0,8.0,35,0.00,,,0.00,621.00,VWS V14.01,2013-11-08 15:39:00,
2013-11-08 10:40:00,53.9,26.2,30.18,NW,322,4.0,9.0,34,0.00,,,0.00,622.00,VWS V14.01,2013-11-08 15:40:00,
2013-11-08 10:41:00,53.9,26.9,30.18,NW,321,0.0,4.0,35,0.00,,,0.00,622.00,VWS V14.01,2013-11-08 15:41:00,
2013-11-08 10:42:00,54.1,27.1,30.18,North,0,12.0,13.0,35,0.00,,,0.00,615.00,VWS V14.01,2013-11-08 15:42:00,
2013-11-08 10:43:00,53.9,27.6,30.18,North,356,4.0,6.0,36,0.00,,,0.00,626.00,VWS V14.01,2013-11-08 15:43:00,
2013-11-08 10:44:00,54.1,27.8,30.18,NNW,331,0.0,4.0,36,0.00,,,0.00,626.00,VWS V14.01,2013-11-08 15:44:00,
2013-11-08 10:45:00,54.1,27.1,30.18,West,281,4.0,6.0,35,0.00,,,0.00,629.00,VWS V14.01,2013-11-08 15:45:00,
2013-11-08 10:46:00,54.2,27.9,30.18,NNW,341,9.0,13.0,36,0.00,,,0.00,631.00,VWS V14.01,2013-11-08 15:46:00,
2013-11-08 10:47:00,53.9,26.9,30.18,NW,321,0.0,0.0,35,0.00,,,0.00,622.00,VWS V14.01,2013-11-08 15:47:00,
2013-11-08 10:48:00,54.4,27.3,30.18,WNW,285,5.0,10.0,35,0.00,,,0.00,633.00,VWS V14.01,2013-11-08 15:48:00,
2013-11-08 10:49:00,54.4,27.3,30.18,West,263,9.0,10.0,35,0.00,,,0.00,633.00,VWS V14.01,2013-11-08 15:49:00,
2013-11-08 10:50:00,54.5,27.4,30.18,WNW,290,11.0,12.0,35,0.00,,,0.00,636.00,VWS V14.01,2013-11-08 15:50:00,
2013-11-08 10:51:00,54.4,27.3,30.18,WNW,284,7.0,11.0,35,0.00,,,0.00,638.00,VWS V14.01,2013-11-08 15:51:00,
2013-11-08 10:52:00,54.2,27.9,30.18,NNW,327,11.0,11.0,36,0.00,,,0.00,631.00,VWS V14.01,2013-11-08 15:52:00,
2013-11-08 10:53:00,54.4,27.3,30.18,NNW,339,6.0,9.0,35,0.00,,,0.00,640.00,VWS V14.01,2013-11-08 15:53:00,
2013-11-08 10:54:00,54.5,28.1,30.18,NW,305,8.0,12.0,36,0.00,,,0.00,640.00,VWS V14.01,2013-11-08 15:54:00,
2013-11-08 10:55:00,54.4,27.3,30.18,West,274,5.0,11.0,35,0.00,,,0.00,640.00,VWS V14.01,2013-11-08 15:55:00,
2013-11-08 10:56:00,54.4,27.3,30.18,WSW,256,0.0,5.0,35,0.00,,,0.00,643.00,VWS V14.01,2013-11-08 15:56:00,
2013-11-08 10:57:00,54.4,27.3,30.18,WNW,284,7.0,11.0,35,0.00,,,0.00,638.00,VWS V14.01,2013-11-08 15:57:00,
2013-11-08 10:58:00,54.4,27.3,30.18,West,272,0.0,0.0,35,0.00,,,0.00,643.00,VWS V14.01,2013-11-08 15:58:00,
2013-11-08 10:59:00,54.5,28.8,30.18,North,0,3.0,3.0,37,0.00,,,0.00,643.00,VWS V14.01,2013-11-08 15:59:00,
2013-11-08 11:00:00,54.5,26.7,30.18,NNW,343,4.0,4.0,34,0.00,,,0.00,649.00,VWS V14.01,2013-11-08 16:00:00,
2013-11-08 11:01:00,54.5,28.1,30.18,NNW,330,0.0,6.0,36,0.00,,,0.00,649.00,VWS V14.01,2013-11-08 16:01:00,
2013-11-08 11:02:00,54.4,27.3,30.18,WSW,256,0.0,0.0,35,0.00,,,0.00,643.00,VWS V14.01,2013-11-08 16:02:00,
2013-11-08 11:03:00,54.7,26.9,30.18,North,1,10.0,12.0,34,0.00,,,0.00,649.00,VWS V14.01,2013-11-08 16:03:00,
2013-11-08 11:04:00,54.5,26.7,30.18,North,358,8.0,11.0,34,0.00,,,0.00,650.00,VWS V14.01,2013-11-08 16:04:00,
2013-11-08 11:05:00,54.7,26.9,30.18,NNE,20,6.0,8.0,34,0.00,,,0.00,652.00,VWS V14.01,2013-11-08 16:05:00,
2013-11-08 11:06:00,54.7,27.6,30.18,North,0,9.0,9.0,35,0.00,,,0.00,650.00,VWS V14.01,2013-11-08 16:06:00,
2013-11-08 11:07:00,54.5,28.1,30.18,NNW,330,0.0,0.0,36,0.00,,,0.00,650.00,VWS V14.01,2013-11-08 16:07:00,
2013-11-08 11:08:00,54.5,26.7,30.18,NE,50,0.0,12.0,34,0.00,,,0.00,656.00,VWS V14.01,2013-11-08 16:08:00,
2013-11-08 11:09:00,54.5,27.4,30.18,North,357,7.0,7.0,35,0.00,,,0.00,656.00,VWS V14.01,2013-11-08 16:09:00,
2013-11-08 11:10:00,54.5,27.4,30.18,NNW,346,10.0,11.0,35,0.00,,,0.00,657.00,VWS V14.01,2013-11-08 16:10:00,
2013-11-08 11:11:00,54.5,27.4,30.18,NNW,342,9.0,10.0,35,0.00,,,0.00,659.00,VWS V14.01,2013-11-08 16:11:00,
2013-11-08 11:12:00,54.7,27.6,30.18,North,351,9.0,9.0,35,0.00,,,0.00,650.00,VWS V14.01,2013-11-08 16:12:00,
2013-11-08 11:13:00,54.5,27.4,30.18,WNW,290,1.0,5.0,35,0.00,,,0.00,657.00,VWS V14.01,2013-11-08 16:13:00,
2013-11-08 11:14:00,54.7,27.6,30.18,North,1,7.0,7.0,35,0.00,,,0.00,661.00,VWS V14.01,2013-11-08 16:14:00,
2013-11-08 11:15:00,54.7,27.6,30.18,North,1,8.0,8.0,35,0.00,,,0.00,661.00,VWS V14.01,2013-11-08 16:15:00,
2013-11-08 11:16:00,54.7,26.9,30.18,North,1,0.0,8.0,34,0.00,,,0.00,661.00,VWS V14.01,2013-11-08 16:16:00,
2013-11-08 11:17:00,54.5,27.4,30.18,NNW,343,6.0,9.0,35,0.00,,,0.00,659.00,VWS V14.01,2013-11-08 16:17:00,
2013-11-08 11:18:00,54.8,27.7,30.18,NNW,328,7.0,10.0,35,0.00,,,0.00,661.00,VWS V14.01,2013-11-08 16:18:00,
2013-11-08 11:19:00,55.0,27.9,30.18,WNW,302,5.0,7.0,35,0.00,,,0.00,668.00,VWS V14.01,2013-11-08 16:19:00,
2013-11-08 11:20:00,55.0,27.9,30.18,North,0,1.0,6.0,35,0.00,,,0.00,666.00,VWS V14.01,2013-11-08 16:20:00,
2013-11-08 11:21:00,55.1,28.6,30.18,WNW,290,5.0,6.0,36,0.00,,,0.00,664.00,VWS V14.01,2013-11-08 16:21:00,
2013-11-08 11:22:00,54.7,26.9,30.18,North,1,0.0,8.0,34,0.00,,,0.00,661.00,VWS V14.01,2013-11-08 16:22:00,
2013-11-08 11:23:00,55.1,27.3,30.18,NW,319,3.0,6.0,34,0.00,,,0.00,661.00,VWS V14.01,2013-11-08 16:23:00,
2013-11-08 11:24:00,55.3,27.4,30.18,NNW,345,4.0,5.0,34,0.00,,,0.00,663.00,VWS V14.01,2013-11-08 16:24:00,
2013-11-08 11:25:00,55.3,26.7,30.18,North,349,0.0,4.0,33,0.00,,,0.00,666.00,VWS V14.01,2013-11-08 16:25:00,
2013-11-08 11:26:00,55.4,28.9,30.18,NW,318,4.0,5.0,36,0.00,,,0.00,668.00,VWS V14.01,2013-11-08 16:26:00,
2013-11-08 11:27:00,55.1,28.6,30.18,WNW,283,3.0,5.0,36,0.00,,,0.00,664.00,VWS V14.01,2013-11-08 16:27:00,
2013-11-08 11:28:00,55.4,27.5,30.18,North,0,3.0,6.0,34,0.00,,,0.00,668.00,VWS V14.01,2013-11-08 16:28:00,
2013-11-08 11:29:00,55.6,28.4,30.18,NNW,333,12.0,12.0,35,0.00,,,0.00,670.00,VWS V14.01,2013-11-08 16:29:00,
2013-11-08 11:30:00,55.6,27.7,30.17,North,354,9.0,12.0,34,0.00,,,0.00,666.00,VWS V14.01,2013-11-08 16:30:00,
2013-11-08 11:31:00,55.6,27.7,30.17,NNW,328,9.0,10.0,34,0.00,,,0.00,671.00,VWS V14.01,2013-11-08 16:31:00,
2013-11-08 11:32:00,55.4,28.9,30.18,NW,318,4.0,5.0,36,0.00,,,0.00,668.00,VWS V14.01,2013-11-08 16:32:00,
2013-11-08 11:33:00,55.6,27.0,30.17,NW,324,1.0,7.0,33,0.00,,,0.00,671.00,VWS V14.01,2013-11-08 16:33:00,
2013-11-08 11:34:00,55.6,27.7,30.17,North,6,6.0,6.0,34,0.00,,,0.00,675.00,VWS V14.01,2013-11-08 16:34:00,
2013-11-08 11:35:00,55.7,28.5,30.17,NE,38,3.0,6.0,35,0.00,,,0.00,671.00,VWS V14.01,2013-11-08 16:35:00,
2013-11-08 11:36:00,55.7,27.1,30.17,West,281,3.0,4.0,33,0.00,,,0.00,673.00,VWS V14.01,2013-11-08 16:36:00,
2013-11-08 11:37:00,55.6,27.7,30.17,NNW,328,9.0,10.0,34,0.00,,,0.00,671.00,VWS V14.01,2013-11-08 16:37:00,
2013-11-08 11:38:00,55.6,27.7,30.17,WNW,283,3.0,7.0,34,0.00,,,0.00,671.00,VWS V14.01,2013-11-08 16:38:00,
2013-11-08 11:39:00,55.6,26.2,30.17,WSW,243,6.0,9.0,32,0.00,,,0.00,673.00,VWS V14.01,2013-11-08 16:39:00,
2013-11-08 11:40:00,55.4,25.3,30.17,WNW,297,0.0,9.0,31,0.00,,,0.00,675.00,VWS V14.01,2013-11-08 16:40:00,
2013-11-08 11:41:00,55.4,26.0,30.17,NW,311,9.0,9.0,32,0.00,,,0.00,673.00,VWS V14.01,2013-11-08 16:41:00,
2013-11-08 11:42:00,55.7,27.1,30.17,West,281,3.0,4.0,33,0.00,,,0.00,673.00,VWS V14.01,2013-11-08 16:42:00,
2013-11-08 11:43:00,55.4,27.5,30.17,NNW,333,0.0,3.0,34,0.00,,,0.00,673.00,VWS V14.01,2013-11-08 16:43:00,
2013-11-08 11:44:00,55.6,27.7,30.17,East,85,5.0,5.0,34,0.00,,,0.00,677.00,VWS V14.01,2013-11-08 16:44:00,
2013-11-08 11:45:00,55.7,28.5,30.15,East,85,2.0,5.0,35,0.00,,,0.00,673.00,VWS V14.01,2013-11-08 16:45:00,
2013-11-08 11:46:00,55.9,28.7,30.15,ESE,106,0.0,2.0,35,0.00,,,0.00,673.00,VWS V14.01,2013-11-08 16:46:00,
2013-11-08 11:47:00,55.4,26.0,30.17,NW,311,9.0,9.0,32,0.00,,,0.00,673.00,VWS V14.01,2013-11-08 16:47:00,
2013-11-08 11:48:00,56.2,28.2,30.15,North,7,2.0,5.0,34,0.00,,,0.00,679.00,VWS V14.01,2013-11-08 16:48:00,
2013-11-08 11:49:00,56.3,27.6,30.15,WSW,251,10.0,10.0,33,0.00,,,0.00,677.00,VWS V14.01,2013-11-08 16:49:00,
2013-11-08 11:50:00,56.3,26.8,30.15,WSW,257,9.0,12.0,32,0.00,,,0.00,677.00,VWS V14.01,2013-11-08 16:50:00,
2013-11-08 11:51:00,56.5,26.2,30.15,NW,320,10.0,10.0,31,0.00,,,0.00,679.00,VWS V14.01,2013-11-08 16:51:00,
2013-11-08 11:52:00,55.9,28.7,30.16,ESE,106,0.0,2.0,35,0.00,,,0.00,673.00,VWS V14.01,2013-11-08 16:52:00,
2013-11-08 11:53:00,56.6,26.3,30.15,West,266,10.0,10.0,31,0.00,,,0.00,682.00,VWS V14.01,2013-11-08 16:53:00,
2013-11-08 11:54:00,56.6,26.3,30.15,West,275,6.0,12.0,31,0.00,,,0.00,682.00,VWS V14.01,2013-11-08 16:54:00,
2013-11-08 11:55:00,56.6,26.3,30.15,North,357,6.0,13.0,31,0.00,,,0.00,680.00,VWS V14.01,2013-11-08 16:55:00,
2013-11-08 11:56:00,56.5,25.5,30.15,NNW,345,10.0,12.0,30,0.00,,,0.00,680.00,VWS V14.01,2013-11-08 16:56:00,
2013-11-08 11:57:00,56.5,26.2,30.16,NW,320,10.0,10.0,31,0.00,,,0.00,679.00,VWS V14.01,2013-11-08 16:57:00,
2013-11-08 11:58:00,56.6,26.3,30.15,NNW,338,5.0,6.0,31,0.00,,,0.00,680.00,VWS V14.01,2013-11-08 16:58:00,
2013-11-08 11:59:00,56.6,26.3,30.15,WNW,293,4.0,10.0,31,0.00,,,0.00,680.00,VWS V14.01,2013-11-08 16:59:00,
2013-11-08 12:00:00,56.6,26.3,30.15,North,0,1.0,6.0,31,0.00,,,0.00,680.00,VWS V14.01,2013-11-08 17:00:00,
2013-11-08 12:01:00,56.6,26.3,30.15,NW,324,3.0,3.0,31,0.00,,,0.00,680.00,VWS V14.01,2013-11-08 17:01:00,
2013-11-08 12:02:00,56.5,25.5,30.16,NNW,345,10.0,12.0,30,0.00,,,0.00,680.00,VWS V14.01,2013-11-08 17:02:00,
2013-11-08 12:03:00,56.7,24.8,30.15,NNW,343,0.0,2.0,29,0.00,,,0.00,680.00,VWS V14.01,2013-11-08 17:03:00,
2013-11-08 12:04:00,56.7,26.4,30.15,WNW,303,4.0,10.0,31,0.00,,,0.00,680.00,VWS V14.01,2013-11-08 17:04:00,
2013-11-08 12:05:00,56.7,26.4,30.15,WSW,248,3.0,9.0,31,0.00,,,0.00,680.00,VWS V14.01,2013-11-08 17:05:00,
2013-11-08 12:06:00,56.7,26.4,30.15,WNW,298,7.0,11.0,31,0.00,,,0.00,680.00,VWS V14.01,2013-11-08 17:06:00,
2013-11-08 12:07:00,56.6,26.3,30.15,North,0,1.0,6.0,31,0.00,,,0.00,680.00,VWS V14.01,2013-11-08 17:07:00,
2013-11-08 12:08:00,56.7,26.4,30.15,West,276,13.0,13.0,31,0.00,,,0.00,679.00,VWS V14.01,2013-11-08 17:08:00,
2013-11-08 12:09:00,56.6,26.3,30.15,West,263,5.0,13.0,31,0.00,,,0.00,679.00,VWS V14.01,2013-11-08 17:09:00,
2013-11-08 12:10:00,56.6,26.3,30.15,WNW,285,4.0,9.0,31,0.00,,,0.00,679.00,VWS V14.01,2013-11-08 17:10:00,
2013-11-08 12:11:00,56.6,26.3,30.15,NW,325,3.0,8.0,31,0.00,,,0.00,679.00,VWS V14.01,2013-11-08 17:11:00,
2013-11-08 12:12:00,56.7,25.6,30.15,WNW,290,5.0,11.0,30,0.00,,,0.00,680.00,VWS V14.01,2013-11-08 17:12:00,
2013-11-08 12:13:00,56.7,27.2,30.15,WNW,290,8.0,12.0,32,0.00,,,0.00,677.00,VWS V14.01,2013-11-08 17:13:00,
2013-11-08 12:14:00,56.7,26.4,30.15,North,0,4.0,8.0,31,0.00,,,0.00,677.00,VWS V14.01,2013-11-08 17:14:00,
2013-11-08 12:15:00,56.9,27.4,30.15,WNW,300,5.0,5.0,32,0.00,,,0.00,677.00,VWS V14.01,2013-11-08 17:15:00,
2013-11-08 12:16:00,57.0,26.7,30.15,NW,320,8.0,12.0,31,0.00,,,0.00,679.00,VWS V14.01,2013-11-08 17:16:00,
2013-11-08 12:17:00,56.6,26.3,30.15,West,271,3.0,3.0,31,0.00,,,0.00,680.00,VWS V14.01,2013-11-08 17:17:00,
2013-11-08 12:18:00,57.0,25.1,30.15,NW,311,4.0,9.0,29,0.00,,,0.00,677.00,VWS V14.01,2013-11-08 17:18:00,
2013-11-08 12:19:00,57.0,25.9,30.15,NW,315,0.0,4.0,30,0.00,,,0.00,677.00,VWS V14.01,2013-11-08 17:19:00,
2013-11-08 12:20:00,57.0,26.7,30.15,North,1,5.0,5.0,31,0.00,,,0.00,679.00,VWS V14.01,2013-11-08 17:20:00,
2013-11-08 12:21:00,57.2,26.9,30.15,North,358,0.0,9.0,31,0.00,,,0.00,679.00,VWS V14.01,2013-11-08 17:21:00,
2013-11-08 12:22:00,57.0,26.7,30.15,WNW,285,7.0,13.0,31,0.00,,,0.00,677.00,VWS V14.01,2013-11-08 17:22:00,
2013-11-08 12:23:00,57.2,26.1,30.15,North,0,7.0,10.0,30,0.00,,,0.00,679.00,VWS V14.01,2013-11-08 17:23:00,
2013-11-08 12:24:00,57.3,26.2,30.15,West,273,9.0,9.0,30,0.00,,,0.00,677.00,VWS V14.01,2013-11-08 17:24:00,
2013-11-08 12:25:00,57.3,27.0,30.15,NNW,333,0.0,9.0,31,0.00,,,0.00,679.00,VWS V14.01,2013-11-08 17:25:00,
2013-11-08 12:26:00,57.5,26.3,30.15,NW,308,6.0,10.0,30,0.00,,,0.00,679.00,VWS V14.01,2013-11-08 17:26:00,
2013-11-08 12:27:00,57.2,26.1,30.15,North,349,4.0,7.0,30,0.00,,,0.00,679.00,VWS V14.01,2013-11-08 17:27:00,
2013-11-08 12:28:00,57.5,27.1,30.15,North,1,4.0,10.0,31,0.00,,,0.00,679.00,VWS V14.01,2013-11-08 17:28:00,
2013-11-08 12:29:00,57.6,27.2,30.15,North,0,7.0,7.0,31,0.00,,,0.00,677.00,VWS V14.01,2013-11-08 17:29:00,
2013-11-08 12:30:00,57.6,24.8,30.14,NNW,347,4.0,9.0,28,0.00,,,0.00,675.00,VWS V14.01,2013-11-08 17:30:00,
2013-11-08 12:31:00,57.5,25.5,30.14,North,2,0.0,8.0,29,0.00,,,0.00,671.00,VWS V14.01,2013-11-08 17:31:00,
2013-11-08 12:32:00,57.5,27.1,30.15,North,4,7.0,14.0,31,0.00,,,0.00,677.00,VWS V14.01,2013-11-08 17:32:00,
2013-11-08 12:33:00,57.5,25.5,30.14,North,0,10.0,10.0,29,0.00,,,0.00,670.00,VWS V14.01,2013-11-08 17:33:00,
2013-11-08 12:34:00,57.5,25.5,30.14,North,0,5.0,10.0,29,0.00,,,0.00,668.00,VWS V14.01,2013-11-08 17:34:00,
2013-11-08 12:35:00,57.5,25.5,30.14,NNE,15,5.0,10.0,29,0.00,,,0.00,666.00,VWS V14.01,2013-11-08 17:35:00,
2013-11-08 12:36:00,57.3,24.5,30.14,NNW,333,4.0,7.0,28,0.00,,,0.00,670.00,VWS V14.01,2013-11-08 17:36:00,
2013-11-08 12:37:00,57.5,24.7,30.14,North,358,11.0,11.0,28,0.00,,,0.00,670.00,VWS V14.01,2013-11-08 17:37:00,
2013-11-08 12:38:00,57.3,25.3,30.14,North,356,6.0,9.0,29,0.00,,,0.00,664.00,VWS V14.01,2013-11-08 17:38:00,
2013-11-08 12:39:00,57.3,25.3,30.14,NNE,23,4.0,7.0,29,0.00,,,0.00,664.00,VWS V14.01,2013-11-08 17:39:00,
2013-11-08 12:40:00,57.3,24.5,30.14,NNW,338,4.0,13.0,28,0.00,,,0.00,663.00,VWS V14.01,2013-11-08 17:40:00,
2013-11-08 12:41:00,57.3,24.5,30.14,North,0,12.0,16.0,28,0.00,,,0.00,663.00,VWS V14.01,2013-11-08 17:41:00,
2013-11-08 12:42:00,57.3,24.5,30.14,NNW,345,0.0,4.0,28,0.00,,,0.00,670.00,VWS V14.01,2013-11-08 17:42:00,
2013-11-08 12:43:00,57.3,23.6,30.14,NNE,12,5.0,13.0,27,0.00,,,0.00,661.00,VWS V14.01,2013-11-08 17:43:00,
2013-11-08 12:44:00,57.2,24.4,30.14,NW,307,5.0,5.0,28,0.00,,,0.00,663.00,VWS V14.01,2013-11-08 17:44:00,
2013-11-08 12:45:00,57.2,25.2,30.14,ENE,58,2.0,5.0,29,0.00,,,0.00,663.00,VWS V14.01,2013-11-08 17:45:00,
2013-11-08 12:46:00,57.2,25.2,30.14,North,349,5.0,5.0,29,0.00,,,0.00,659.00,VWS V14.01,2013-11-08 17:46:00,
2013-11-08 12:47:00,57.3,24.5,30.14,North,3,6.0,12.0,28,0.00,,,0.00,663.00,VWS V14.01,2013-11-08 17:47:00,
2013-11-08 12:48:00,57.2,24.4,30.14,NNE,32,9.0,9.0,28,0.00,,,0.00,661.00,VWS V14.01,2013-11-08 17:48:00,
2013-11-08 12:49:00,57.2,25.2,30.14,NE,39,2.0,9.0,29,0.00,,,0.00,659.00,VWS V14.01,2013-11-08 17:49:00,
2013-11-08 12:50:00,57.2,26.1,30.14,NNW,341,6.0,7.0,30,0.00,,,0.00,657.00,VWS V14.01,2013-11-08 17:50:00,
2013-11-08 12:51:00,57.3,27.0,30.14,WNW,302,4.0,10.0,31,0.00,,,0.00,657.00,VWS V14.01,2013-11-08 17:51:00,
2013-11-08 12:52:00,57.2,26.9,30.14,North,0,5.0,14.0,31,0.00,,,0.00,659.00,VWS V14.01,2013-11-08 17:52:00,
2013-11-08 12:53:00,57.3,27.0,30.14,NNW,327,6.0,7.0,31,0.00,,,0.00,654.00,VWS V14.01,2013-11-08 17:53:00,
2013-11-08 12:54:00,57.3,26.2,30.14,NW,304,5.0,11.0,30,0.00,,,0.00,650.00,VWS V14.01,2013-11-08 17:54:00,
2013-11-08 12:55:00,57.5,28.6,30.14,North,4,4.0,9.0,33,0.00,,,0.00,652.00,VWS V14.01,2013-11-08 17:55:00,
2013-11-08 12:56:00,57.5,28.6,30.14,North,354,3.0,11.0,33,0.00,,,0.00,650.00,VWS V14.01,2013-11-08 17:56:00,
2013-11-08 12:57:00,57.3,27.0,30.14,North,355,8.0,12.0,31,0.00,,,0.00,656.00,VWS V14.01,2013-11-08 17:57:00,
2013-11-08 12:58:00,57.6,24.8,30.14,NE,55,7.0,10.0,28,0.00,,,0.00,650.00,VWS V14.01,2013-11-08 17:58:00,
2013-11-08 12:59:00,57.6,25.6,30.14,North,5,12.0,12.0,29,0.00,,,0.00,649.00,VWS V14.01,2013-11-08 17:59:00,
2013-11-08 13:00:00,57.6,27.2,30.13,North,357,11.0,12.0,31,0.00,,,0.00,647.00,VWS V14.01,2013-11-08 18:00:00,
2013-11-08 13:01:00,57.8,24.9,30.13,NW,321,4.0,11.0,28,0.00,,,0.00,647.00,VWS V14.01,2013-11-08 18:01:00,
2013-11-08 13:02:00,57.5,24.7,30.14,North,356,12.0,12.0,28,0.00,,,0.00,652.00,VWS V14.01,2013-11-08 18:02:00,
2013-11-08 13:03:00,57.8,25.8,30.13,NNW,338,6.0,14.0,29,0.00,,,0.00,643.00,VWS V14.01,2013-11-08 18:03:00,
2013-11-08 13:04:00,57.6,23.0,30.13,WNW,302,6.0,9.0,26,0.00,,,0.00,643.00,VWS V14.01,2013-11-08 18:04:00,
2013-11-08 13:05:00,57.6,25.6,30.13,NNW,338,0.0,6.0,29,0.00,,,0.00,640.00,VWS V14.01,2013-11-08 18:05:00,
2013-11-08 13:06:00,57.6,26.4,30.13,NW,326,9.0,9.0,30,0.00,,,0.00,642.00,VWS V14.01,2013-11-08 18:06:00,
2013-11-08 13:07:00,57.8,25.8,30.13,NW,308,4.0,8.0,29,0.00,,,0.00,645.00,VWS V14.01,2013-11-08 18:07:00,
2013-11-08 13:08:00,57.6,25.6,30.13,NNW,336,12.0,16.0,29,0.00,,,0.00,640.00,VWS V14.01,2013-11-08 18:08:00,
2013-11-08 13:09:00,57.6,25.6,30.13,North,354,4.0,12.0,29,0.00,,,0.00,638.00,VWS V14.01,2013-11-08 18:09:00,
2013-11-08 13:10:00,57.6,24.8,30.13,West,262,6.0,7.0,28,0.00,,,0.00,638.00,VWS V14.01,2013-11-08 18:10:00,
2013-11-08 13:11:00,57.6,24.8,30.13,North,5,12.0,12.0,28,0.00,,,0.00,633.00,VWS V14.01,2013-11-08 18:11:00,
2013-11-08 13:12:00,57.6,26.4,30.13,NNW,344,4.0,10.0,30,0.00,,,0.00,642.00,VWS V14.01,2013-11-08 18:12:00,
2013-11-08 13:13:00,57.6,23.9,30.13,North,358,10.0,10.0,27,0.00,,,0.00,629.00,VWS V14.01,2013-11-08 18:13:00,
2013-11-08 13:14:00,57.6,23.9,30.13,North,358,11.0,11.0,27,0.00,,,0.00,629.00,VWS V14.01,2013-11-08 18:14:00,
2013-11-08 13:15:00,57.6,23.9,30.13,NE,56,6.0,14.0,27,0.00,,,0.00,628.00,VWS V14.01,2013-11-08 18:15:00,
2013-11-08 13:16:00,57.6,24.8,30.13,North,0,1.0,7.0,28,0.00,,,0.00,628.00,VWS V14.01,2013-11-08 18:16:00,
2013-11-08 13:17:00,57.6,23.9,30.13,North,2,11.0,12.0,27,0.00,,,0.00,633.00,VWS V14.01,2013-11-08 18:17:00,
2013-11-08 13:18:00,57.8,25.8,30.13,North,1,7.0,12.0,29,0.00,,,0.00,624.00,VWS V14.01,2013-11-08 18:18:00,
2013-11-08 13:19:00,57.8,24.1,30.13,North,0,5.0,14.0,27,0.00,,,0.00,622.00,VWS V14.01,2013-11-08 18:19:00,
2013-11-08 13:20:00,57.8,24.9,30.13,NW,306,6.0,13.0,28,0.00,,,0.00,622.00,VWS V14.01,2013-11-08 18:20:00,
2013-11-08 13:21:00,57.8,24.9,30.13,NW,316,5.0,6.0,28,0.00,,,0.00,621.00,VWS V14.01,2013-11-08 18:21:00,
2013-11-08 13:22:00,57.6,24.8,30.13,WNW,300,0.0,3.0,28,0.00,,,0.00,628.00,VWS V14.01,2013-11-08 18:22:00,
2013-11-08 13:23:00,58.0,25.9,30.13,NNW,328,7.0,12.0,29,0.00,,,0.00,615.00,VWS V14.01,2013-11-08 18:23:00,
2013-11-08 13:24:00,58.0,24.2,30.13,NW,321,5.0,7.0,27,0.00,,,0.00,613.00,VWS V14.01,2013-11-08 18:24:00,
2013-11-08 13:25:00,58.0,24.2,30.13,North,0,9.0,9.0,27,0.00,,,0.00,613.00,VWS V14.01,2013-11-08 18:25:00,
2013-11-08 13:26:00,58.0,24.2,30.13,NW,317,8.0,9.0,27,0.00,,,0.00,613.00,VWS V14.01,2013-11-08 18:26:00,
2013-11-08 13:27:00,57.8,24.9,30.13,NW,314,0.0,5.0,28,0.00,,,0.00,619.00,VWS V14.01,2013-11-08 18:27:00,
2013-11-08 13:28:00,58.0,25.1,30.13,NW,319,11.0,12.0,28,0.00,,,0.00,603.00,VWS V14.01,2013-11-08 18:28:00,
2013-11-08 13:29:00,58.0,25.9,30.13,NW,306,3.0,11.0,29,0.00,,,0.00,603.00,VWS V14.01,2013-11-08 18:29:00,
2013-11-08 13:30:00,58.0,25.9,30.13,West,266,6.0,8.0,29,0.00,,,0.00,603.00,VWS V14.01,2013-11-08 18:30:00,
2013-11-08 13:31:00,58.0,25.9,30.13,North,10,7.0,7.0,29,0.00,,,0.00,601.00,VWS V14.01,2013-11-08 18:31:00,
2013-11-08 13:32:00,58.0,26.0,30.13,NW,315,10.0,14.0,29,0.00,,,0.00,610.00,VWS V14.01,2013-11-08 18:32:00,
2013-11-08 13:33:00,58.1,26.0,30.13,NNW,347,11.0,14.0,29,0.00,,,0.00,601.00,VWS V14.01,2013-11-08 18:33:00,
2013-11-08 13:34:00,58.1,25.2,30.13,NW,323,8.0,12.0,28,0.00,,,0.00,598.00,VWS V14.01,2013-11-08 18:34:00,
2013-11-08 13:35:00,58.1,25.2,30.13,NW,324,6.0,14.0,28,0.00,,,0.00,598.00,VWS V14.01,2013-11-08 18:35:00,
2013-11-08 13:36:00,58.0,25.1,30.13,NNE,21,11.0,14.0,28,0.00,,,0.00,596.00,VWS V14.01,2013-11-08 18:36:00,
2013-11-08 13:37:00,58.1,26.0,30.13,NNW,332,5.0,8.0,29,0.00,,,0.00,603.00,VWS V14.01,2013-11-08 18:37:00,
2013-11-08 13:38:00,58.0,24.2,30.13,North,4,12.0,12.0,27,0.00,,,0.00,592.00,VWS V14.01,2013-11-08 18:38:00,
2013-11-08 13:39:00,57.8,24.1,30.13,North,0,4.0,12.0,27,0.00,,,0.00,592.00,VWS V14.01,2013-11-08 18:39:00,
2013-11-08 13:40:00,57.8,24.9,30.13,NNW,340,4.0,10.0,28,0.00,,,0.00,589.00,VWS V14.01,2013-11-08 18:40:00,
2013-11-08 13:41:00,57.8,24.9,30.13,NW,314,0.0,4.0,28,0.00,,,0.00,587.00,VWS V14.01,2013-11-08 18:41:00,
2013-11-08 13:42:00,58.0,25.1,30.13,NNW,340,11.0,12.0,28,0.00,,,0.00,594.00,VWS V14.01,2013-11-08 18:42:00,
2013-11-08 13:43:00,57.8,24.9,30.13,NW,322,10.0,10.0,28,0.00,,,0.00,584.00,VWS V14.01,2013-11-08 18:43:00,
2013-11-08 13:44:00,57.8,24.9,30.13,North,1,11.0,11.0,28,0.00,,,0.00,584.00,VWS V14.01,2013-11-08 18:44:00,
2013-11-08 13:46:00,58.0,25.1,30.13,North,352,12.0,12.0,28,0.00,,,0.00,577.00,VWS V14.01,2013-11-08 18:46:00,
2013-11-08 13:47:00,57.8,25.8,30.13,NW,326,7.0,7.0,29,0.00,,,0.00,587.00,VWS V14.01,2013-11-08 18:47:00,
2013-11-08 13:48:00,57.8,24.9,30.13,North,0,13.0,13.0,28,0.00,,,0.00,575.00,VWS V14.01,2013-11-08 18:48:00,
2013-11-08 13:49:00,57.8,24.1,30.13,North,352,0.0,17.0,27,0.00,,,0.00,573.00,VWS V14.01,2013-11-08 18:49:00,
2013-11-08 13:50:00,57.6,23.9,30.13,North,350,3.0,3.0,27,0.00,,,0.00,571.00,VWS V14.01,2013-11-08 18:50:00,
2013-11-08 13:51:00,57.6,24.8,30.13,West,262,3.0,7.0,28,0.00,,,0.00,571.00,VWS V14.01,2013-11-08 18:51:00,
2013-11-08 13:52:00,58.0,25.1,30.13,North,349,12.0,13.0,28,0.00,,,0.00,577.00,VWS V14.01,2013-11-08 18:52:00,
2013-11-08 13:53:00,57.8,25.8,30.13,NNW,340,6.0,13.0,29,0.00,,,0.00,566.00,VWS V14.01,2013-11-08 18:53:00,
2013-11-08 13:54:00,57.8,24.9,30.13,North,355,5.0,6.0,28,0.00,,,0.00,561.00,VWS V14.01,2013-11-08 18:54:00,
2013-11-08 13:55:00,58.0,26.8,30.13,West,281,8.0,10.0,30,0.00,,,0.00,561.00,VWS V14.01,2013-11-08 18:55:00,
2013-11-08 13:56:00,58.0,25.1,30.13,NW,311,0.0,8.0,28,0.00,,,0.00,561.00,VWS V14.01,2013-11-08 18:56:00,
2013-11-08 13:57:00,57.6,24.8,30.13,WNW,293,7.0,10.0,28,0.00,,,0.00,570.00,VWS V14.01,2013-11-08 18:57:00,
2013-11-08 13:58:00,58.3,25.4,30.13,North,0,8.0,13.0,28,0.00,,,0.00,554.00,VWS V14.01,2013-11-08 18:58:00,
2013-11-08 13:59:00,58.3,25.4,30.13,NNW,335,6.0,13.0,28,0.00,,,0.00,552.00,VWS V14.01,2013-11-08 18:59:00,
2013-11-08 14:00:00,58.3,25.4,30.13,NNW,342,4.0,11.0,28,0.00,,,0.00,548.00,VWS V14.01,2013-11-08 19:00:00,
2013-11-08 14:01:00,58.3,25.4,30.13,NNW,340,9.0,9.0,28,0.00,,,0.00,548.00,VWS V14.01,2013-11-08 19:01:00,
2013-11-08 14:02:00,58.1,25.2,30.13,North,356,0.0,0.0,28,0.00,,,0.00,559.00,VWS V14.01,2013-11-08 19:02:00,
2013-11-08 14:03:00,58.3,25.4,30.13,NW,321,0.0,8.0,28,0.00,,,0.00,541.00,VWS V14.01,2013-11-08 19:03:00,
2013-11-08 14:04:00,58.3,26.2,30.13,North,6,11.0,11.0,29,0.00,,,0.00,540.00,VWS V14.01,2013-11-08 19:04:00,
2013-11-08 14:05:00,58.3,25.4,30.13,North,0,3.0,11.0,28,0.00,,,0.00,538.00,VWS V14.01,2013-11-08 19:05:00,
2013-11-08 14:06:00,58.3,24.5,30.13,NW,317,3.0,7.0,27,0.00,,,0.00,536.00,VWS V14.01,2013-11-08 19:06:00,
2013-11-08 14:07:00,58.3,25.4,30.13,North,0,6.0,11.0,28,0.00,,,0.00,545.00,VWS V14.01,2013-11-08 19:07:00,
2013-11-08 14:08:00,58.4,25.5,30.13,West,274,14.0,14.0,28,0.00,,,0.00,533.00,VWS V14.01,2013-11-08 19:08:00,
2013-11-08 14:09:00,58.3,24.5,30.13,North,11,4.0,14.0,27,0.00,,,0.00,531.00,VWS V14.01,2013-11-08 19:09:00,
2013-11-08 14:10:00,58.3,25.4,30.13,NNW,330,5.0,5.0,28,0.00,,,0.00,527.00,VWS V14.01,2013-11-08 19:10:00,
2013-11-08 14:11:00,58.3,25.4,30.13,North,358,13.0,13.0,28,0.00,,,0.00,524.00,VWS V14.01,2013-11-08 19:11:00,
2013-11-08 14:12:00,58.3,25.4,30.13,North,355,8.0,10.0,28,0.00,,,0.00,533.00,VWS V14.01,2013-11-08 19:12:00,
2013-11-08 14:13:00,58.3,25.4,30.13,North,356,3.0,14.0,28,0.00,,,0.00,524.00,VWS V14.01,2013-11-08 19:13:00,
2013-11-08 14:14:00,58.3,25.4,30.13,WNW,301,7.0,17.0,28,0.00,,,0.00,522.00,VWS V14.01,2013-11-08 19:14:00,
2013-11-08 14:15:00,58.3,24.5,30.13,NNW,346,5.0,9.0,27,0.00,,,0.00,517.00,VWS V14.01,2013-11-08 19:15:00,
2013-11-08 14:16:00,58.1,24.3,30.13,North,0,0.0,7.0,27,0.00,,,0.00,515.00,VWS V14.01,2013-11-08 19:16:00,
2013-11-08 14:17:00,58.3,25.4,30.13,North,358,8.0,14.0,28,0.00,,,0.00,524.00,VWS V14.01,2013-11-08 19:17:00,
2013-11-08 14:18:00,58.0,25.1,30.13,WNW,295,10.0,17.0,28,0.00,,,0.00,512.00,VWS V14.01,2013-11-08 19:18:00,
2013-11-08 14:19:00,58.0,25.1,30.13,NNW,347,4.0,10.0,28,0.00,,,0.00,510.00,VWS V14.01,2013-11-08 19:19:00,
2013-11-08 14:20:00,58.0,25.1,30.13,NW,318,0.0,9.0,28,0.00,,,0.00,506.00,VWS V14.01,2013-11-08 19:20:00,
2013-11-08 14:21:00,57.8,24.1,30.13,North,11,4.0,8.0,27,0.00,,,0.00,501.00,VWS V14.01,2013-11-08 19:21:00,
2013-11-08 14:22:00,58.1,25.2,30.13,NW,319,2.0,3.0,28,0.00,,,0.00,515.00,VWS V14.01,2013-11-08 19:22:00,
2013-11-08 14:23:00,57.8,24.9,30.13,NNE,25,4.0,10.0,28,0.00,,,0.00,497.00,VWS V14.01,2013-11-08 19:23:00,
2013-11-08 14:24:00,57.8,24.9,30.13,North,4,3.0,15.0,28,0.00,,,0.00,497.00,VWS V14.01,2013-11-08 19:24:00,
2013-11-08 14:25:00,57.8,24.1,30.13,North,1,0.0,5.0,27,0.00,,,0.00,497.00,VWS V14.01,2013-11-08 19:25:00,
2013-11-08 14:26:00,57.8,24.9,30.13,NW,326,0.0,4.0,28,0.00,,,0.00,494.00,VWS V14.01,2013-11-08 19:26:00,
2013-11-08 14:27:00,57.8,24.1,30.13,NE,39,5.0,10.0,27,0.00,,,0.00,501.00,VWS V14.01,2013-11-08 19:27:00,
2013-11-08 14:28:00,58.0,25.1,30.13,NW,305,4.0,6.0,28,0.00,,,0.00,492.00,VWS V14.01,2013-11-08 19:28:00,
2013-11-08 14:30:00,58.1,24.3,30.13,NW,309,3.0,5.0,27,0.00,,,0.00,494.00,VWS V14.01,2013-11-08 19:30:00,
2013-11-08 14:31:00,58.1,25.2,30.13,NNW,329,4.0,9.0,28,0.00,,,0.00,489.00,VWS V14.01,2013-11-08 19:31:00,
2013-11-08 14:32:00,58.0,25.1,30.13,NW,326,0.0,0.0,28,0.00,,,0.00,489.00,VWS V14.01,2013-11-08 19:32:00,
2013-11-08 14:33:00,58.3,25.4,30.13,NW,321,8.0,8.0,28,0.00,,,0.00,480.00,VWS V14.01,2013-11-08 19:33:00,
2013-11-08 14:34:00,58.3,24.5,30.13,North,7,10.0,13.0,27,0.00,,,0.00,475.00,VWS V14.01,2013-11-08 19:34:00,
2013-11-08 14:35:00,58.3,25.4,30.13,NNE,14,4.0,10.0,28,0.00,,,0.00,473.00,VWS V14.01,2013-11-08 19:35:00,
2013-11-08 14:36:00,58.4,24.6,30.13,NNW,339,1.0,9.0,27,0.00,,,0.00,469.00,VWS V14.01,2013-11-08 19:36:00,
2013-11-08 14:37:00,58.1,24.3,30.13,WNW,297,7.0,7.0,27,0.00,,,0.00,483.00,VWS V14.01,2013-11-08 19:37:00,
2013-11-08 14:38:00,58.4,24.6,30.13,WNW,302,6.0,12.0,27,0.00,,,0.00,464.00,VWS V14.01,2013-11-08 19:38:00,
2013-11-08 14:39:00,58.3,24.5,30.13,North,351,6.0,7.0,27,0.00,,,0.00,462.00,VWS V14.01,2013-11-08 19:39:00,
2013-11-08 14:40:00,58.3,24.5,30.13,NE,44,5.0,6.0,27,0.00,,,0.00,459.00,VWS V14.01,2013-11-08 19:40:00,
2013-11-08 14:41:00,58.4,25.5,30.13,North,358,1.0,5.0,28,0.00,,,0.00,455.00,VWS V14.01,2013-11-08 19:41:00,
2013-11-08 14:42:00,58.4,24.6,30.13,North,4,3.0,9.0,27,0.00,,,0.00,469.00,VWS V14.01,2013-11-08 19:42:00,
2013-11-08 14:43:00,58.4,25.5,30.13,ENE,65,4.0,10.0,28,0.00,,,0.00,454.00,VWS V14.01,2013-11-08 19:43:00,
2013-11-08 14:44:00,58.4,25.5,30.13,NNE,23,8.0,8.0,28,0.00,,,0.00,462.00,VWS V14.01,2013-11-08 19:44:00,
2013-11-08 14:45:00,58.4,25.5,30.13,NNW,333,5.0,8.0,28,0.00,,,0.00,461.00,VWS V14.01,2013-11-08 19:45:00,
2013-11-08 14:46:00,58.4,25.5,30.13,NNW,345,6.0,10.0,28,0.00,,,0.00,452.00,VWS V14.01,2013-11-08 19:46:00,
2013-11-08 14:47:00,58.4,25.5,30.13,North,0,0.0,1.0,28,0.00,,,0.00,455.00,VWS V14.01,2013-11-08 19:47:00,
2013-11-08 14:48:00,58.4,26.3,30.13,NNW,338,0.0,10.0,29,0.00,,,0.00,443.00,VWS V14.01,2013-11-08 19:48:00,
2013-11-08 14:49:00,58.4,25.5,30.13,WNW,296,5.0,5.0,28,0.00,,,0.00,439.00,VWS V14.01,2013-11-08 19:49:00,
2013-11-08 14:50:00,58.3,25.4,30.13,WNW,283,9.0,11.0,28,0.00,,,0.00,436.00,VWS V14.01,2013-11-08 19:50:00,
2013-11-08 14:51:00,58.3,24.5,30.13,NW,323,5.0,10.0,27,0.00,,,0.00,432.00,VWS V14.01,2013-11-08 19:51:00,
2013-11-08 14:52:00,58.4,25.5,30.13,North,358,0.0,6.0,28,0.00,,,0.00,452.00,VWS V14.01,2013-11-08 19:52:00,
2013-11-08 14:53:00,58.1,25.2,30.13,North,352,0.0,2.0,28,0.00,,,0.00,366.00,VWS V14.01,2013-11-08 19:53:00,
2013-11-08 14:54:00,58.1,25.2,30.13,WNW,297,7.0,14.0,28,0.00,,,0.00,165.00,VWS V14.01,2013-11-08 19:54:00,
2013-11-08 14:55:00,58.0,24.2,30.13,NW,316,8.0,17.0,27,0.00,,,0.00,116.00,VWS V14.01,2013-11-08 19:55:00,
2013-11-08 14:57:00,58.3,24.5,30.13,West,274,3.0,5.0,27,0.00,,,0.00,432.00,VWS V14.01,2013-11-08 19:57:00,
2013-11-08 14:58:00,57.6,23.9,30.13,West,276,3.0,6.0,27,0.00,,,0.00,98.00,VWS V14.01,2013-11-08 19:58:00,
2013-11-08 14:59:00,57.6,24.8,30.13,NW,318,7.0,12.0,28,0.00,,,0.00,105.00,VWS V14.01,2013-11-08 19:59:00,
2013-11-08 15:00:00,57.5,24.7,30.13,NNW,338,3.0,14.0,28,0.00,,,0.00,77.00,VWS V14.01,2013-11-08 20:00:00,
2013-11-08 15:01:00,57.5,24.7,30.13,North,352,0.0,6.0,28,0.00,,,0.00,74.00,VWS V14.01,2013-11-08 20:01:00,
2013-11-08 15:02:00,57.8,24.9,30.13,North,351,7.0,10.0,28,0.00,,,0.00,69.00,VWS V14.01,2013-11-08 20:02:00,
2013-11-08 15:03:00,57.3,23.6,30.13,West,272,6.0,6.0,27,0.00,,,0.00,93.00,VWS V14.01,2013-11-08 20:03:00,
2013-11-08 15:04:00,57.2,23.5,30.13,NNW,348,11.0,11.0,27,0.00,,,0.00,86.00,VWS V14.01,2013-11-08 20:04:00,
2013-11-08 15:05:00,57.2,24.4,30.13,North,358,6.0,15.0,28,0.00,,,0.00,69.00,VWS V14.01,2013-11-08 20:05:00,
2013-11-08 15:06:00,57.0,24.2,30.13,NW,318,0.0,10.0,28,0.00,,,0.00,72.00,VWS V14.01,2013-11-08 20:06:00,
2013-11-08 15:07:00,57.5,24.7,30.13,North,352,0.0,0.0,28,0.00,,,0.00,69.00,VWS V14.01,2013-11-08 20:07:00,
2013-11-08 15:08:00,57.0,23.4,30.13,North,358,9.0,10.0,27,0.00,,,0.00,63.00,VWS V14.01,2013-11-08 20:08:00,
2013-11-08 15:09:00,56.9,23.3,30.13,NW,309,4.0,9.0,27,0.00,,,0.00,74.00,VWS V14.01,2013-11-08 20:09:00,
2013-11-08 15:10:00,56.7,23.1,30.13,North,358,6.0,6.0,27,0.00,,,0.00,77.00,VWS V14.01,2013-11-08 20:10:00,
2013-11-08 15:11:00,56.7,24.0,30.13,NNW,343,0.0,6.0,28,0.00,,,0.00,60.00,VWS V14.01,2013-11-08 20:11:00,
2013-11-08 15:12:00,57.0,23.4,30.13,NW,314,2.0,2.0,27,0.00,,,0.00,72.00,VWS V14.01,2013-11-08 20:12:00,
2013-11-08 15:13:00,56.6,23.9,30.13,West,274,0.0,5.0,28,0.00,,,0.00,54.00,VWS V14.01,2013-11-08 20:13:00,
2013-11-08 15:14:00,56.6,23.9,30.13,West,278,3.0,5.0,28,0.00,,,0.00,60.00,VWS V14.01,2013-11-08 20:14:00,
2013-11-08 15:15:00,56.6,23.0,30.13,WNW,300,6.0,10.0,27,0.00,,,0.00,56.00,VWS V14.01,2013-11-08 20:15:00,
2013-11-08 15:16:00,56.5,23.8,30.13,NW,307,5.0,9.0,28,0.00,,,0.00,54.00,VWS V14.01,2013-11-08 20:16:00,
2013-11-08 15:17:00,56.7,23.1,30.13,NNW,343,0.0,0.0,27,0.00,,,0.00,54.00,VWS V14.01,2013-11-08 20:17:00,
2013-11-08 15:18:00,56.5,23.8,30.13,NW,321,14.0,14.0,28,0.00,,,0.00,54.00,VWS V14.01,2013-11-08 20:18:00,
2013-11-08 15:19:00,56.3,22.8,30.13,North,1,5.0,15.0,27,0.00,,,0.00,53.00,VWS V14.01,2013-11-08 20:19:00,
2013-11-08 15:20:00,56.3,23.6,30.13,North,4,6.0,14.0,28,0.00,,,0.00,74.00,VWS V14.01,2013-11-08 20:20:00,
2013-11-08 15:21:00,56.2,23.5,30.13,NW,318,5.0,9.0,28,0.00,,,0.00,86.00,VWS V14.01,2013-11-08 20:21:00,
2013-11-08 15:22:00,56.5,23.8,30.13,West,279,7.0,7.0,28,0.00,,,0.00,53.00,VWS V14.01,2013-11-08 20:22:00,
2013-11-08 15:23:00,56.0,23.4,30.13,West,277,5.0,7.0,28,0.00,,,0.00,58.00,VWS V14.01,2013-11-08 20:23:00,
2013-11-08 15:24:00,56.0,23.4,30.13,WNW,295,3.0,7.0,28,0.00,,,0.00,51.00,VWS V14.01,2013-11-08 20:24:00,
2013-11-08 15:25:00,56.0,23.4,30.13,NW,317,6.0,9.0,28,0.00,,,0.00,51.00,VWS V14.01,2013-11-08 20:25:00,
2013-11-08 15:26:00,55.9,23.3,30.13,NW,314,11.0,11.0,28,0.00,,,0.00,65.00,VWS V14.01,2013-11-08 20:26:00,
2013-11-08 15:27:00,56.2,22.7,30.13,WNW,298,9.0,13.0,27,0.00,,,0.00,86.00,VWS V14.01,2013-11-08 20:27:00,
2013-11-08 15:28:00,55.9,23.3,30.13,NNW,331,4.0,6.0,28,0.00,,,0.00,74.00,VWS V14.01,2013-11-08 20:28:00,
2013-11-08 15:29:00,55.9,23.3,30.13,WNW,283,1.0,4.0,28,0.00,,,0.00,53.00,VWS V14.01,2013-11-08 20:29:00,
2013-11-08 15:30:00,55.9,24.9,30.14,NNE,15,9.0,9.0,30,0.00,,,0.00,49.00,VWS V14.01,2013-11-08 20:30:00,
2013-11-08 15:31:00,55.9,24.9,30.14,WNW,300,5.0,11.0,30,0.00,,,0.00,49.00,VWS V14.01,2013-11-08 20:31:00,
2013-11-08 15:32:00,55.9,23.3,30.13,NW,322,9.0,13.0,28,0.00,,,0.00,65.00,VWS V14.01,2013-11-08 20:32:00,
2013-11-08 15:33:00,55.7,24.0,30.14,NW,323,0.0,1.0,29,0.00,,,0.00,79.00,VWS V14.01,2013-11-08 20:33:00,
2013-11-08 15:34:00,55.7,24.8,30.14,West,278,3.0,6.0,30,0.00,,,0.00,76.00,VWS V14.01,2013-11-08 20:34:00,
2013-11-08 15:35:00,55.7,25.5,30.14,NW,319,7.0,9.0,31,0.00,,,0.00,53.00,VWS V14.01,2013-11-08 20:35:00,
2013-11-08 15:36:00,55.7,24.0,30.14,NW,309,10.0,11.0,29,0.00,,,0.00,47.00,VWS V14.01,2013-11-08 20:36:00,
2013-11-08 15:37:00,55.9,24.9,30.14,NW,323,3.0,6.0,30,0.00,,,0.00,49.00,VWS V14.01,2013-11-08 20:37:00,
2013-11-08 15:38:00,55.6,23.9,30.14,NW,308,7.0,7.0,29,0.00,,,0.00,47.00,VWS V14.01,2013-11-08 20:38:00,
2013-11-08 15:39:00,55.6,23.9,30.14,NNW,348,0.0,7.0,29,0.00,,,0.00,47.00,VWS V14.01,2013-11-08 20:39:00,
2013-11-08 15:40:00,55.6,23.9,30.14,North,356,5.0,6.0,29,0.00,,,0.00,47.00,VWS V14.01,2013-11-08 20:40:00,
2013-11-08 15:41:00,55.6,23.9,30.14,North,0,0.0,5.0,29,0.00,,,0.00,47.00,VWS V14.01,2013-11-08 20:41:00,
2013-11-08 15:42:00,55.7,24.0,30.14,NW,317,5.0,10.0,29,0.00,,,0.00,47.00,VWS V14.01,2013-11-08 20:42:00,
2013-11-08 15:43:00,55.6,24.7,30.14,West,264,3.0,6.0,30,0.00,,,0.00,47.00,VWS V14.01,2013-11-08 20:43:00,
2013-11-08 15:44:00,55.6,23.9,30.14,NW,316,6.0,6.0,29,0.00,,,0.00,46.00,VWS V14.01,2013-11-08 20:44:00,
2013-11-08 15:45:00,55.6,24.7,30.14,NW,326,3.0,8.0,30,0.00,,,0.00,46.00,VWS V14.01,2013-11-08 20:45:00,
2013-11-08 15:46:00,55.6,24.7,30.14,NW,314,4.0,4.0,30,0.00,,,0.00,46.00,VWS V14.01,2013-11-08 20:46:00,
2013-11-08 15:47:00,55.6,23.9,30.14,North,350,0.0,1.0,29,0.00,,,0.00,47.00,VWS V14.01,2013-11-08 20:47:00,
2013-11-08 15:48:00,55.4,24.5,30.14,NW,323,3.0,9.0,30,0.00,,,0.00,46.00,VWS V14.01,2013-11-08 20:48:00,
2013-11-08 15:49:00,55.4,25.3,30.14,WNW,300,0.0,8.0,31,0.00,,,0.00,44.00,VWS V14.01,2013-11-08 20:49:00,
2013-11-08 15:50:00,55.4,25.3,30.14,North,350,6.0,10.0,31,0.00,,,0.00,44.00,VWS V14.01,2013-11-08 20:50:00,
2013-11-08 15:51:00,55.4,25.3,30.14,West,276,4.0,6.0,31,0.00,,,0.00,44.00,VWS V14.01,2013-11-08 20:51:00,
2013-11-08 15:52:00,55.4,25.3,30.14,NW,310,2.0,4.0,31,0.00,,,0.00,46.00,VWS V14.01,2013-11-08 20:52:00,
2013-11-08 15:53:00,55.3,24.4,30.14,NNW,339,1.0,2.0,30,0.00,,,0.00,44.00,VWS V14.01,2013-11-08 20:53:00,
2013-11-08 15:54:00,55.3,24.4,30.14,North,358,3.0,7.0,30,0.00,,,0.00,42.00,VWS V14.01,2013-11-08 20:54:00,
2013-11-08 15:55:00,55.3,24.4,30.14,NNW,340,4.0,9.0,30,0.00,,,0.00,42.00,VWS V14.01,2013-11-08 20:55:00,
2013-11-08 15:56:00,55.3,24.4,30.14,North,351,1.0,7.0,30,0.00,,,0.00,42.00,VWS V14.01,2013-11-08 20:56:00,
2013-11-08 15:57:00,55.4,25.3,30.14,NW,310,8.0,13.0,31,0.00,,,0.00,44.00,VWS V14.01,2013-11-08 20:57:00,
2013-11-08 15:58:00,55.1,25.0,30.14,NW,320,6.0,12.0,31,0.00,,,0.00,40.00,VWS V14.01,2013-11-08 20:58:00,
2013-11-08 15:59:00,55.1,24.2,30.14,North,354,8.0,12.0,30,0.00,,,0.00,40.00,VWS V14.01,2013-11-08 20:59:00,
2013-11-08 16:00:00,55.1,25.0,30.14,WNW,297,4.0,8.0,31,0.00,,,0.00,40.00,VWS V14.01,2013-11-08 21:00:00,
2013-11-08 16:01:00,55.0,24.9,30.14,NNW,332,4.0,9.0,31,0.00,,,0.00,39.00,VWS V14.01,2013-11-08 21:01:00,
2013-11-08 16:02:00,55.3,25.2,30.14,NW,305,2.0,5.0,31,0.00,,,0.00,42.00,VWS V14.01,2013-11-08 21:02:00,
2013-11-08 16:03:00,54.8,24.0,30.14,North,1,5.0,5.0,30,0.00,,,0.00,39.00,VWS V14.01,2013-11-08 21:03:00,
2013-11-08 16:04:00,54.8,24.8,30.14,North,7,0.0,9.0,31,0.00,,,0.00,37.00,VWS V14.01,2013-11-08 21:04:00,
2013-11-08 16:05:00,54.8,24.0,30.14,WNW,288,7.0,10.0,30,0.00,,,0.00,37.00,VWS V14.01,2013-11-08 21:05:00,
2013-11-08 16:06:00,54.7,23.1,30.14,NNW,341,7.0,9.0,29,0.00,,,0.00,35.00,VWS V14.01,2013-11-08 21:06:00,
2013-11-08 16:07:00,55.0,24.9,30.14,North,0,10.0,10.0,31,0.00,,,0.00,39.00,VWS V14.01,2013-11-08 21:07:00,
2013-11-08 16:08:00,54.7,23.9,30.14,NW,325,4.0,5.0,30,0.00,,,0.00,33.00,VWS V14.01,2013-11-08 21:08:00,
2013-11-08 16:09:00,54.5,23.7,30.14,North,354,1.0,7.0,30,0.00,,,0.00,33.00,VWS V14.01,2013-11-08 21:09:00,
2013-11-08 16:10:00,54.5,23.7,30.14,NW,310,7.0,7.0,30,0.00,,,0.00,32.00,VWS V14.01,2013-11-08 21:10:00,
2013-11-08 16:11:00,54.5,24.5,30.14,NNW,336,4.0,7.0,31,0.00,,,0.00,32.00,VWS V14.01,2013-11-08 21:11:00,
2013-11-08 16:12:00,54.7,23.1,30.14,NW,315,5.0,7.0,29,0.00,,,0.00,35.00,VWS V14.01,2013-11-08 21:12:00,
2013-11-08 16:13:00,54.4,23.6,30.14,WNW,297,5.0,8.0,30,0.00,,,0.00,30.00,VWS V14.01,2013-11-08 21:13:00,
2013-11-08 16:14:00,54.4,24.4,30.14,North,358,2.0,5.0,31,0.00,,,0.00,28.00,VWS V14.01,2013-11-08 21:14:00,
2013-11-08 16:15:00,54.4,24.4,30.14,North,352,1.0,4.0,31,0.00,,,0.00,28.00,VWS V14.01,2013-11-08 21:15:00,
2013-11-08 16:16:00,54.2,24.2,30.14,North,358,1.0,5.0,31,0.00,,,0.00,28.00,VWS V14.01,2013-11-08 21:16:00,
2013-11-08 16:17:00,54.5,24.5,30.14,NW,321,4.0,4.0,31,0.00,,,0.00,30.00,VWS V14.01,2013-11-08 21:17:00,
2013-11-08 16:18:00,54.2,24.2,30.14,North,350,2.0,5.0,31,0.00,,,0.00,26.00,VWS V14.01,2013-11-08 21:18:00,
2013-11-08 16:19:00,54.1,24.2,30.14,WNW,290,2.0,3.0,31,0.00,,,0.00,25.00,VWS V14.01,2013-11-08 21:19:00,
2013-11-08 16:20:00,54.1,24.9,30.14,North,349,0.0,6.0,32,0.00,,,0.00,25.00,VWS V14.01,2013-11-08 21:20:00,
2013-11-08 16:21:00,54.1,24.2,30.14,NW,318,5.0,10.0,31,0.00,,,0.00,23.00,VWS V14.01,2013-11-08 21:21:00,
2013-11-08 16:22:00,54.2,24.2,30.14,NNW,340,5.0,5.0,31,0.00,,,0.00,26.00,VWS V14.01,2013-11-08 21:22:00,
2013-11-08 16:23:00,53.9,24.0,30.14,NW,320,5.0,7.0,31,0.00,,,0.00,23.00,VWS V14.01,2013-11-08 21:23:00,
2013-11-08 16:24:00,53.9,24.0,30.14,NNW,332,0.0,5.0,31,0.00,,,0.00,21.00,VWS V14.01,2013-11-08 21:24:00,
2013-11-08 16:25:00,53.9,24.0,30.14,NW,308,5.0,7.0,31,0.00,,,0.00,21.00,VWS V14.01,2013-11-08 21:25:00,
2013-11-08 16:26:00,53.9,24.0,30.14,NNW,332,6.0,6.0,31,0.00,,,0.00,21.00,VWS V14.01,2013-11-08 21:26:00,
2013-11-08 16:27:00,54.1,24.2,30.14,NW,318,4.0,6.0,31,0.00,,,0.00,23.00,VWS V14.01,2013-11-08 21:27:00,
2013-11-08 16:28:00,53.8,23.9,30.14,WNW,286,0.0,6.0,31,0.00,,,0.00,19.00,VWS V14.01,2013-11-08 21:28:00,
2013-11-08 16:29:00,53.8,23.9,30.14,NNW,340,5.0,5.0,31,0.00,,,0.00,19.00,VWS V14.01,2013-11-08 21:29:00,
2013-11-08 16:30:00,53.6,23.7,30.15,NW,308,0.0,5.0,31,0.00,,,0.00,19.00,VWS V14.01,2013-11-08 21:30:00,
2013-11-08 16:31:00,53.6,24.5,30.15,NW,316,4.0,4.0,32,0.00,,,0.00,18.00,VWS V14.01,2013-11-08 21:31:00,
2013-11-08 16:32:00,53.8,23.9,30.14,NNW,334,3.0,6.0,31,0.00,,,0.00,21.00,VWS V14.01,2013-11-08 21:32:00,
2013-11-08 16:33:00,53.6,24.5,30.15,North,349,0.0,5.0,32,0.00,,,0.00,18.00,VWS V14.01,2013-11-08 21:33:00,
2013-11-08 16:34:00,53.6,23.7,30.15,NNW,348,5.0,5.0,31,0.00,,,0.00,18.00,VWS V14.01,2013-11-08 21:34:00,
2013-11-08 16:35:00,53.5,24.4,30.15,North,352,0.0,7.0,32,0.00,,,0.00,16.00,VWS V14.01,2013-11-08 21:35:00,
2013-11-08 16:36:00,53.5,23.6,30.15,North,349,2.0,2.0,31,0.00,,,0.00,16.00,VWS V14.01,2013-11-08 21:36:00,
2013-11-08 16:37:00,53.6,23.7,30.15,NNW,338,1.0,9.0,31,0.00,,,0.00,18.00,VWS V14.01,2013-11-08 21:37:00,
2013-11-08 16:38:00,53.5,24.4,30.15,NNW,331,2.0,4.0,32,0.00,,,0.00,14.00,VWS V14.01,2013-11-08 21:38:00,
2013-11-08 16:39:00,53.3,25.0,30.15,North,0,4.0,4.0,33,0.00,,,0.00,14.00,VWS V14.01,2013-11-08 21:39:00,
2013-11-08 16:40:00,53.3,25.7,30.15,North,352,0.0,5.0,34,0.00,,,0.00,14.00,VWS V14.01,2013-11-08 21:40:00,
2013-11-08 16:41:00,53.2,24.9,30.15,NW,318,0.0,3.0,33,0.00,,,0.00,14.00,VWS V14.01,2013-11-08 21:41:00,
2013-11-08 16:42:00,53.5,23.6,30.15,NNW,327,2.0,5.0,31,0.00,,,0.00,16.00,VWS V14.01,2013-11-08 21:42:00,
2013-11-08 16:43:00,53.1,26.2,30.15,NNW,327,5.0,5.0,35,0.00,,,0.00,12.00,VWS V14.01,2013-11-08 21:43:00,
2013-11-08 16:44:00,53.1,26.2,30.15,NNW,341,0.0,5.0,35,0.00,,,0.00,12.00,VWS V14.01,2013-11-08 21:44:00,
2013-11-08 16:45:00,52.9,26.0,30.15,WNW,300,0.0,8.0,35,0.00,,,0.00,12.00,VWS V14.01,2013-11-08 21:45:00,
2013-11-08 16:46:00,52.8,25.2,30.15,WNW,288,0.0,4.0,34,0.00,,,0.00,12.00,VWS V14.01,2013-11-08 21:46:00,
2013-11-08 16:47:00,53.2,24.9,30.15,NW,311,3.0,3.0,33,0.00,,,0.00,14.00,VWS V14.01,2013-11-08 21:47:00,
2013-11-08 16:48:00,52.8,25.9,30.15,NW,314,0.0,3.0,35,0.00,,,0.00,11.00,VWS V14.01,2013-11-08 21:48:00,
2013-11-08 16:49:00,52.6,25.0,30.15,NW,319,0.0,6.0,34,0.00,,,0.00,11.00,VWS V14.01,2013-11-08 21:49:00,
2013-11-08 16:50:00,52.6,25.8,30.15,NNW,338,0.0,2.0,35,0.00,,,0.00,11.00,VWS V14.01,2013-11-08 21:50:00,
2013-11-08 16:51:00,52.5,25.0,30.15,NNW,338,0.0,1.0,34,0.00,,,0.00,11.00,VWS V14.01,2013-11-08 21:51:00,
2013-11-08 16:52:00,52.8,25.2,30.15,NNW,347,6.0,6.0,34,0.00,,,0.00,12.00,VWS V14.01,2013-11-08 21:52:00,
2013-11-08 16:53:00,52.3,24.8,30.15,NW,318,0.0,2.0,34,0.00,,,0.00,9.00,VWS V14.01,2013-11-08 21:53:00,
2013-11-08 16:54:00,52.3,24.8,30.15,NW,318,0.0,0.0,34,0.00,,,0.00,9.00,VWS V14.01,2013-11-08 21:54:00,
2013-11-08 16:55:00,52.2,24.7,30.15,NW,317,0.0,0.0,34,0.00,,,0.00,9.00,VWS V14.01,2013-11-08 21:55:00,
2013-11-08 16:56:00,52.2,24.7,30.15,NW,317,0.0,2.0,34,0.00,,,0.00,9.00,VWS V14.01,2013-11-08 21:56:00,
2013-11-08 16:57:00,52.5,25.0,30.15,NNW,338,0.0,0.0,34,0.00,,,0.00,11.00,VWS V14.01,2013-11-08 21:57:00,
2013-11-08 16:58:00,52.0,25.2,30.15,NW,317,0.0,0.0,35,0.00,,,0.00,7.00,VWS V14.01,2013-11-08 21:58:00,
2013-11-08 16:59:00,52.0,25.2,30.15,NW,317,0.0,0.0,35,0.00,,,0.00,7.00,VWS V14.01,2013-11-08 21:59:00,
2013-11-08 17:00:00,51.9,25.1,30.16,NW,317,0.0,0.0,35,0.00,,,0.00,7.00,VWS V14.01,2013-11-08 22:00:00,
2013-11-08 17:01:00,51.9,25.1,30.16,NW,317,2.0,2.0,35,0.00,,,0.00,7.00,VWS V14.01,2013-11-08 22:01:00,
2013-11-08 17:02:00,52.2,25.4,30.15,NW,317,0.0,0.0,35,0.00,,,0.00,9.00,VWS V14.01,2013-11-08 22:02:00,
2013-11-08 17:03:00,51.7,25.6,30.16,NW,317,1.0,1.0,36,0.00,,,0.00,5.00,VWS V14.01,2013-11-08 22:03:00,
2013-11-08 17:04:00,51.7,25.6,30.16,NW,317,0.0,2.0,36,0.00,,,0.00,5.00,VWS V14.01,2013-11-08 22:04:00,
2013-11-08 17:05:00,51.6,24.9,30.16,NW,317,0.0,0.0,35,0.00,,,0.00,5.00,VWS V14.01,2013-11-08 22:05:00,
2013-11-08 17:06:00,51.6,25.5,30.16,NW,317,0.0,0.0,36,0.00,,,0.00,0.00,VWS V14.01,2013-11-08 22:06:00,
2013-11-08 17:07:00,51.9,25.8,30.16,NW,317,0.0,2.0,36,0.00,,,0.00,7.00,VWS V14.01,2013-11-08 22:07:00,
2013-11-08 17:08:00,51.4,26.7,30.16,NW,317,0.0,0.0,38,0.00,,,0.00,0.00,VWS V14.01,2013-11-08 22:08:00,
2013-11-08 17:09:00,51.3,26.6,30.16,NW,317,0.0,0.0,38,0.00,,,0.00,0.00,VWS V14.01,2013-11-08 22:09:00,
2013-11-08 17:10:00,51.3,27.2,30.16,NW,317,0.0,0.0,39,0.00,,,0.00,0.00,VWS V14.01,2013-11-08 22:10:00,
2013-11-08 17:11:00,51.1,27.6,30.16,NW,317,0.0,0.0,40,0.00,,,0.00,0.00,VWS V14.01,2013-11-08 22:11:00,
2013-11-08 17:12:00,51.6,25.5,30.16,NW,317,0.0,0.0,36,0.00,,,0.00,0.00,VWS V14.01,2013-11-08 22:12:00,
2013-11-08 17:13:00,51.0,27.5,30.16,NW,322,3.0,5.0,40,0.00,,,0.00,0.00,VWS V14.01,2013-11-08 22:13:00,
2013-11-08 17:14:00,50.8,28.0,30.16,NW,322,0.0,3.0,41,0.00,,,0.00,0.00,VWS V14.01,2013-11-08 22:14:00,
2013-11-08 17:15:00,50.7,27.3,30.17,NW,321,3.0,4.0,40,0.00,,,0.00,0.00,VWS V14.01,2013-11-08 22:15:00,
2013-11-08 17:16:00,50.5,27.1,30.17,NW,321,0.0,4.0,40,0.00,,,0.00,0.00,VWS V14.01,2013-11-08 22:16:00,
2013-11-08 17:17:00,51.1,27.6,30.16,NW,317,0.0,0.0,40,0.00,,,0.00,0.00,VWS V14.01,2013-11-08 22:17:00,
2013-11-08 17:18:00,50.4,27.0,30.17,NW,321,0.0,0.0,40,0.00,,,0.00,0.00,VWS V14.01,2013-11-08 22:18:00,
2013-11-08 17:19:00,50.2,26.2,30.17,NW,321,0.0,0.0,39,0.00,,,0.00,0.00,VWS V14.01,2013-11-08 22:19:00,
2013-11-08 17:20:00,50.1,26.1,30.17,NW,321,0.0,3.0,39,0.00,,,0.00,0.00,VWS V14.01,2013-11-08 22:20:00,
2013-11-08 17:21:00,50.1,27.3,30.17,NW,321,0.0,0.0,41,0.00,,,0.00,0.00,VWS V14.01,2013-11-08 22:21:00,
2013-11-08 17:22:00,50.5,27.1,30.17,NW,321,0.0,0.0,40,0.00,,,0.00,0.00,VWS V14.01,2013-11-08 22:22:00,
2013-11-08 17:23:00,49.9,26.6,30.17,NW,321,0.0,0.0,40,0.00,,,0.00,0.00,VWS V14.01,2013-11-08 22:23:00,
2013-11-08 17:24:00,49.8,25.9,30.17,NW,321,0.0,0.0,39,0.00,,,0.00,0.00,VWS V14.01,2013-11-08 22:24:00,
2013-11-08 17:25:00,49.8,25.9,30.17,NW,321,0.0,0.0,39,0.00,,,0.00,0.00,VWS V14.01,2013-11-08 22:25:00,
2013-11-08 17:26:00,49.6,25.7,30.17,NW,321,0.0,0.0,39,0.00,,,0.00,0.00,VWS V14.01,2013-11-08 22:26:00,
2013-11-08 17:27:00,50.1,27.3,30.17,NW,321,0.0,0.0,41,0.00,,,0.00,0.00,VWS V14.01,2013-11-08 22:27:00,
2013-11-08 17:28:00,49.5,26.8,30.17,NW,321,0.0,0.0,41,0.00,,,0.00,0.00,VWS V14.01,2013-11-08 22:28:00,
2013-11-08 17:29:00,49.5,26.8,30.17,NW,321,0.0,0.0,41,0.00,,,0.00,0.00,VWS V14.01,2013-11-08 22:29:00,
2013-11-08 17:30:00,49.4,26.7,30.17,NW,321,0.0,0.0,41,0.00,,,0.00,0.00,VWS V14.01,2013-11-08 22:30:00,
2013-11-08 17:31:00,49.4,26.7,30.17,NW,321,0.0,0.0,41,0.00,,,0.00,0.00,VWS V14.01,2013-11-08 22:31:00,
2013-11-08 17:32:00,49.6,26.9,30.17,NW,321,0.0,0.0,41,0.00,,,0.00,0.00,VWS V14.01,2013-11-08 22:32:00,
2013-11-08 17:33:00,49.2,27.7,30.17,NW,321,0.0,0.0,43,0.00,,,0.00,0.00,VWS V14.01,2013-11-08 22:33:00,
2013-11-08 17:34:00,49.1,27.6,30.17,NW,321,0.0,0.0,43,0.00,,,0.00,0.00,VWS V14.01,2013-11-08 22:34:00,
2013-11-08 17:35:00,49.1,27.6,30.17,NW,321,0.0,0.0,43,0.00,,,0.00,0.00,VWS V14.01,2013-11-08 22:35:00,
2013-11-08 17:36:00,48.9,27.4,30.17,NW,321,0.0,0.0,43,0.00,,,0.00,0.00,VWS V14.01,2013-11-08 22:36:00,
2013-11-08 17:37:00,49.4,26.7,30.17,NW,321,0.0,0.0,41,0.00,,,0.00,0.00,VWS V14.01,2013-11-08 22:37:00,
2013-11-08 17:38:00,48.8,28.4,30.17,NW,321,0.0,0.0,45,0.00,,,0.00,0.00,VWS V14.01,2013-11-08 22:38:00,
2013-11-08 17:39:00,48.6,28.8,30.17,NW,321,0.0,0.0,46,0.00,,,0.00,0.00,VWS V14.01,2013-11-08 22:39:00,
2013-11-08 17:40:00,48.6,28.8,30.17,NW,321,0.0,0.0,46,0.00,,,0.00,0.00,VWS V14.01,2013-11-08 22:40:00,
2013-11-08 17:41:00,48.5,29.2,30.17,NW,321,0.0,0.0,47,0.00,,,0.00,0.00,VWS V14.01,2013-11-08 22:41:00,
2013-11-08 17:42:00,48.9,27.4,30.17,NW,321,0.0,0.0,43,0.00,,,0.00,0.00,VWS V14.01,2013-11-08 22:42:00,
2013-11-08 17:43:00,48.3,29.0,30.17,NW,321,0.0,0.0,47,0.00,,,0.00,0.00,VWS V14.01,2013-11-08 22:43:00,
2013-11-08 17:44:00,48.2,29.5,30.17,NW,321,1.0,3.0,48,0.00,,,0.00,0.00,VWS V14.01,2013-11-08 22:44:00,
2013-11-08 17:45:00,48.0,28.8,30.17,NW,321,0.0,1.0,47,0.00,,,0.00,0.00,VWS V14.01,2013-11-08 22:45:00,
2013-11-08 17:46:00,47.9,29.2,30.17,NW,321,0.0,0.0,48,0.00,,,0.00,0.00,VWS V14.01,2013-11-08 22:46:00,
2013-11-08 17:47:00,48.5,29.2,30.17,NW,321,0.0,0.0,47,0.00,,,0.00,0.00,VWS V14.01,2013-11-08 22:47:00,
2013-11-08 17:48:00,47.7,29.5,30.17,NW,321,0.0,0.0,49,0.00,,,0.00,0.00,VWS V14.01,2013-11-08 22:48:00,
2013-11-08 17:49:00,47.6,29.4,30.17,NW,321,0.0,0.0,49,0.00,,,0.00,0.00,VWS V14.01,2013-11-08 22:49:00,
2013-11-08 17:50:00,47.4,29.7,30.17,NW,321,0.0,0.0,50,0.00,,,0.00,0.00,VWS V14.01,2013-11-08 22:50:00,
2013-11-08 17:51:00,47.4,29.7,30.17,NW,321,0.0,0.0,50,0.00,,,0.00,0.00,VWS V14.01,2013-11-08 22:51:00,
2013-11-08 17:52:00,47.9,29.2,30.17,NW,321,0.0,0.0,48,0.00,,,0.00,0.00,VWS V14.01,2013-11-08 22:52:00,
2013-11-08 17:53:00,47.1,29.9,30.17,NW,321,0.0,0.0,51,0.00,,,0.00,0.00,VWS V14.01,2013-11-08 22:53:00,
2013-11-08 17:54:00,47.0,29.8,30.17,NW,321,0.0,0.0,51,0.00,,,0.00,0.00,VWS V14.01,2013-11-08 22:54:00,
2013-11-08 17:55:00,46.8,29.6,30.17,NW,321,0.0,0.0,51,0.00,,,0.00,0.00,VWS V14.01,2013-11-08 22:55:00,
2013-11-08 17:56:00,46.7,29.5,30.17,NW,321,0.0,0.0,51,0.00,,,0.00,0.00,VWS V14.01,2013-11-08 22:56:00,
2013-11-08 17:57:00,47.3,29.6,30.17,NW,321,0.0,0.0,50,0.00,,,0.00,0.00,VWS V14.01,2013-11-08 22:57:00,
2013-11-08 17:58:00,46.5,29.8,30.17,NW,321,0.0,0.0,52,0.00,,,0.00,0.00,VWS V14.01,2013-11-08 22:58:00,
2013-11-08 17:59:00,46.4,30.2,30.17,NW,321,0.0,0.0,53,0.00,,,0.00,0.00,VWS V14.01,2013-11-08 22:59:00,
2013-11-08 18:00:00,46.2,30.0,30.18,NW,321,0.0,0.0,53,0.00,,,0.00,0.00,VWS V14.01,2013-11-08 23:00:00,
2013-11-08 18:01:00,46.1,29.9,30.18,NW,321,0.0,0.0,53,0.00,,,0.00,0.00,VWS V14.01,2013-11-08 23:01:00,
2013-11-08 18:02:00,46.7,29.5,30.17,NW,321,0.0,0.0,51,0.00,,,0.00,0.00,VWS V14.01,2013-11-08 23:02:00,
2013-11-08 18:03:00,46.0,30.3,30.18,NW,321,0.0,0.0,54,0.00,,,0.00,0.00,VWS V14.01,2013-11-08 23:03:00,
2013-11-08 18:04:00,45.8,29.7,30.18,NW,321,0.0,0.0,53,0.00,,,0.00,0.00,VWS V14.01,2013-11-08 23:04:00,
2013-11-08 18:05:00,45.8,30.1,30.18,NW,321,0.0,0.0,54,0.00,,,0.00,0.00,VWS V14.01,2013-11-08 23:05:00,
2013-11-08 18:06:00,45.7,30.0,30.18,NW,321,0.0,0.0,54,0.00,,,0.00,0.00,VWS V14.01,2013-11-08 23:06:00,
2013-11-08 18:07:00,46.1,29.9,30.18,NW,321,0.0,0.0,53,0.00,,,0.00,0.00,VWS V14.01,2013-11-08 23:07:00,
2013-11-08 18:08:00,45.4,30.2,30.18,NW,321,0.0,0.0,55,0.00,,,0.00,0.00,VWS V14.01,2013-11-08 23:08:00,
2013-11-08 18:09:00,45.2,30.0,30.18,NW,321,0.0,0.0,55,0.00,,,0.00,0.00,VWS V14.01,2013-11-08 23:09:00,
2013-11-08 18:10:00,45.2,30.0,30.18,NW,321,0.0,0.0,55,0.00,,,0.00,0.00,VWS V14.01,2013-11-08 23:10:00,
2013-11-08 18:11:00,45.1,29.9,30.18,NW,321,0.0,0.0,55,0.00,,,0.00,0.00,VWS V14.01,2013-11-08 23:11:00,
2013-11-08 18:12:00,45.7,30.0,30.18,NW,321,0.0,0.0,54,0.00,,,0.00,0.00,VWS V14.01,2013-11-08 23:12:00,
2013-11-08 18:13:00,44.8,29.6,30.18,NW,321,0.0,0.0,55,0.00,,,0.00,0.00,VWS V14.01,2013-11-08 23:13:00,
2013-11-08 18:14:00,44.6,29.9,30.18,NW,321,0.0,0.0,56,0.00,,,0.00,0.00,VWS V14.01,2013-11-08 23:14:00,
2013-11-08 18:15:00,44.6,29.9,30.19,NW,321,0.0,0.0,56,0.00,,,0.00,0.00,VWS V14.01,2013-11-08 23:15:00,
2013-11-08 18:16:00,44.5,29.8,30.19,NW,321,0.0,0.0,56,0.00,,,0.00,0.00,VWS V14.01,2013-11-08 23:16:00,
2013-11-08 18:17:00,45.1,29.9,30.18,NW,321,0.0,0.0,55,0.00,,,0.00,0.00,VWS V14.01,2013-11-08 23:17:00,
2013-11-08 18:18:00,44.3,29.6,30.19,NW,321,0.0,0.0,56,0.00,,,0.00,0.00,VWS V14.01,2013-11-08 23:18:00,
2013-11-08 18:19:00,44.2,30.0,30.19,NW,321,0.0,0.0,57,0.00,,,0.00,0.00,VWS V14.01,2013-11-08 23:19:00,
2013-11-08 18:20:00,44.1,30.3,30.19,NW,321,0.0,0.0,58,0.00,,,0.00,0.00,VWS V14.01,2013-11-08 23:20:00,
2013-11-08 18:21:00,44.1,30.3,30.19,NW,321,0.0,0.0,58,0.00,,,0.00,0.00,VWS V14.01,2013-11-08 23:21:00,
2013-11-08 18:22:00,44.5,29.8,30.19,NW,321,0.0,0.0,56,0.00,,,0.00,0.00,VWS V14.01,2013-11-08 23:22:00,
2013-11-08 18:23:00,43.8,30.0,30.19,NW,321,0.0,0.0,58,0.00,,,0.00,0.00,VWS V14.01,2013-11-08 23:23:00,
2013-11-08 18:24:00,43.8,30.0,30.19,NW,321,0.0,0.0,58,0.00,,,0.00,0.00,VWS V14.01,2013-11-08 23:24:00,
2013-11-08 18:25:00,43.6,29.8,30.19,NW,321,0.0,0.0,58,0.00,,,0.00,0.00,VWS V14.01,2013-11-08 23:25:00,
2013-11-08 18:26:00,43.5,29.7,30.19,NW,321,0.0,0.0,58,0.00,,,0.00,0.00,VWS V14.01,2013-11-08 23:26:00,
2013-11-08 18:27:00,44.1,30.3,30.19,NW,321,0.0,0.0,58,0.00,,,0.00,0.00,VWS V14.01,2013-11-08 23:27:00,
2013-11-08 18:28:00,43.3,29.5,30.19,NW,321,0.0,0.0,58,0.00,,,0.00,0.00,VWS V14.01,2013-11-08 23:28:00,
2013-11-08 18:29:00,43.2,29.9,30.19,NW,321,0.0,0.0,59,0.00,,,0.00,0.00,VWS V14.01,2013-11-08 23:29:00,
2013-11-08 18:30:00,43.1,29.8,30.19,NW,321,0.0,0.0,59,0.00,,,0.00,0.00,VWS V14.01,2013-11-08 23:30:00,
2013-11-08 18:31:00,42.9,29.6,30.19,NW,321,0.0,0.0,59,0.00,,,0.00,0.00,VWS V14.01,2013-11-08 23:31:00,
2013-11-08 18:32:00,43.5,29.7,30.19,NW,321,0.0,0.0,58,0.00,,,0.00,0.00,VWS V14.01,2013-11-08 23:32:00,
2013-11-08 18:33:00,42.8,29.5,30.19,NW,321,0.0,0.0,59,0.00,,,0.00,0.00,VWS V14.01,2013-11-08 23:33:00,
2013-11-08 18:34:00,42.6,29.7,30.19,NW,321,0.0,0.0,60,0.00,,,0.00,0.00,VWS V14.01,2013-11-08 23:34:00,
2013-11-08 18:35:00,42.6,29.7,30.19,NW,321,0.0,0.0,60,0.00,,,0.00,0.00,VWS V14.01,2013-11-08 23:35:00,
2013-11-08 18:36:00,42.5,29.6,30.19,NW,321,0.0,0.0,60,0.00,,,0.00,0.00,VWS V14.01,2013-11-08 23:36:00,
2013-11-08 18:37:00,42.9,29.6,30.19,NW,321,0.0,0.0,59,0.00,,,0.00,0.00,VWS V14.01,2013-11-08 23:37:00,
2013-11-08 18:38:00,42.3,30.2,30.19,NW,321,0.0,0.0,62,0.00,,,0.00,0.00,VWS V14.01,2013-11-08 23:38:00,
2013-11-08 18:39:00,42.3,30.2,30.19,NW,321,0.0,0.0,62,0.00,,,0.00,0.00,VWS V14.01,2013-11-08 23:39:00,
2013-11-08 18:40:00,42.2,30.1,30.19,NW,321,0.0,0.0,62,0.00,,,0.00,0.00,VWS V14.01,2013-11-08 23:40:00,
2013-11-08 18:41:00,42.2,30.1,30.19,NW,321,0.0,0.0,62,0.00,,,0.00,0.00,VWS V14.01,2013-11-08 23:41:00,
2013-11-08 18:42:00,42.5,29.6,30.19,NW,321,0.0,0.0,60,0.00,,,0.00,0.00,VWS V14.01,2013-11-08 23:42:00,
2013-11-08 18:43:00,42.1,30.8,30.19,NW,321,0.0,0.0,64,0.00,,,0.00,0.00,VWS V14.01,2013-11-08 23:43:00,
2013-11-08 18:44:00,41.9,30.6,30.19,NW,321,0.0,0.0,64,0.00,,,0.00,0.00,VWS V14.01,2013-11-08 23:44:00,
2013-11-08 18:45:00,41.9,30.6,30.20,NW,321,0.0,0.0,64,0.00,,,0.00,0.00,VWS V14.01,2013-11-08 23:45:00,
2013-11-08 18:46:00,41.9,30.6,30.20,NW,321,0.0,0.0,64,0.00,,,0.00,0.00,VWS V14.01,2013-11-08 23:46:00,
2013-11-08 18:47:00,42.2,30.5,30.19,NW,321,0.0,0.0,63,0.00,,,0.00,0.00,VWS V14.01,2013-11-08 23:47:00,
2013-11-08 18:48:00,41.8,30.9,30.20,NW,321,0.0,0.0,65,0.00,,,0.00,0.00,VWS V14.01,2013-11-08 23:48:00,
2013-11-08 18:49:00,41.6,30.3,30.20,NW,321,0.0,0.0,64,0.00,,,0.00,0.00,VWS V14.01,2013-11-08 23:49:00,
2013-11-08 18:50:00,41.6,30.3,30.20,NW,321,0.0,0.0,64,0.00,,,0.00,0.00,VWS V14.01,2013-11-08 23:50:00,
2013-11-08 18:51:00,41.5,30.2,30.20,NW,321,0.0,0.0,64,0.00,,,0.00,0.00,VWS V14.01,2013-11-08 23:51:00,
2013-11-08 18:52:00,41.8,30.5,30.20,NW,321,0.0,0.0,64,0.00,,,0.00,0.00,VWS V14.01,2013-11-08 23:52:00,
2013-11-08 18:53:00,41.3,30.1,30.20,NW,321,0.0,0.0,64,0.00,,,0.00,0.00,VWS V14.01,2013-11-08 23:53:00,
2013-11-08 18:54:00,41.3,30.1,30.20,NW,321,0.0,0.0,64,0.00,,,0.00,0.00,VWS V14.01,2013-11-08 23:54:00,
2013-11-08 18:55:00,41.2,30.3,30.20,NW,321,0.0,0.0,65,0.00,,,0.00,0.00,VWS V14.01,2013-11-08 23:55:00,
2013-11-08 18:56:00,41.2,30.3,30.20,NW,321,0.0,0.0,65,0.00,,,0.00,0.00,VWS V14.01,2013-11-08 23:56:00,
2013-11-08 18:57:00,41.5,30.2,30.20,NW,321,0.0,0.0,64,0.00,,,0.00,0.00,VWS V14.01,2013-11-08 23:57:00,
2013-11-08 18:58:00,41.1,29.9,30.20,NW,321,0.0,0.0,64,0.00,,,0.00,0.00,VWS V14.01,2013-11-08 23:58:00,
2013-11-08 18:59:00,40.9,29.7,30.20,NW,321,0.0,0.0,64,0.00,,,0.00,0.00,VWS V14.01,2013-11-08 23:59:00,
2013-11-08 19:00:00,40.9,30.1,30.20,NW,321,0.0,0.0,65,0.00,,,0.00,0.00,VWS V14.01,2013-11-09 00:00:00,
2013-11-08 19:01:00,40.8,30.0,30.20,NW,321,0.0,0.0,65,0.00,,,0.00,0.00,VWS V14.01,2013-11-09 00:01:00,
2013-11-08 19:02:00,41.2,30.3,30.20,NW,321,0.0,0.0,65,0.00,,,0.00,0.00,VWS V14.01,2013-11-09 00:02:00,
2013-11-08 19:03:00,40.8,30.3,30.20,NW,321,0.0,0.0,66,0.00,,,0.00,0.00,VWS V14.01,2013-11-09 00:03:00,
2013-11-08 19:04:00,40.6,30.1,30.20,NW,321,0.0,0.0,66,0.00,,,0.00,0.00,VWS V14.01,2013-11-09 00:04:00,
2013-11-08 19:05:00,40.6,30.5,30.20,NW,321,0.0,0.0,67,0.00,,,0.00,0.00,VWS V14.01,2013-11-09 00:05:00,
2013-11-08 19:06:00,40.5,30.4,30.20,NW,321,0.0,0.0,67,0.00,,,0.00,0.00,VWS V14.01,2013-11-09 00:06:00,
2013-11-08 19:07:00,40.8,30.0,30.20,NW,321,0.0,0.0,65,0.00,,,0.00,0.00,VWS V14.01,2013-11-09 00:07:00,
2013-11-08 19:08:00,40.3,30.6,30.20,NW,321,0.0,0.0,68,0.00,,,0.00,0.00,VWS V14.01,2013-11-09 00:08:00,
2013-11-08 19:09:00,40.3,30.6,30.20,NW,321,0.0,0.0,68,0.00,,,0.00,0.00,VWS V14.01,2013-11-09 00:09:00,
2013-11-08 19:10:00,40.2,30.5,30.20,NW,321,0.0,0.0,68,0.00,,,0.00,0.00,VWS V14.01,2013-11-09 00:10:00,
2013-11-08 19:11:00,40.2,30.5,30.20,NW,321,0.0,0.0,68,0.00,,,0.00,0.00,VWS V14.01,2013-11-09 00:11:00,
2013-11-08 19:12:00,40.5,30.8,30.20,NW,321,0.0,0.0,68,0.00,,,0.00,0.00,VWS V14.01,2013-11-09 00:12:00,
2013-11-08 19:13:00,40.1,30.8,30.20,NW,321,0.0,0.0,69,0.00,,,0.00,0.00,VWS V14.01,2013-11-09 00:13:00,
2013-11-08 19:14:00,40.1,30.8,30.20,NW,321,0.0,0.0,69,0.00,,,0.00,0.00,VWS V14.01,2013-11-09 00:14:00,
2013-11-08 19:15:00,39.9,30.9,30.20,NW,321,0.0,0.0,70,0.00,,,0.00,0.00,VWS V14.01,2013-11-09 00:15:00,
2013-11-08 19:16:00,39.9,30.9,30.20,NW,321,0.0,0.0,70,0.00,,,0.00,0.00,VWS V14.01,2013-11-09 00:16:00,
2013-11-08 19:17:00,40.2,30.5,30.20,NW,321,0.0,0.0,68,0.00,,,0.00,0.00,VWS V14.01,2013-11-09 00:17:00,
2013-11-08 19:18:00,39.8,30.8,30.20,NW,321,0.0,0.0,70,0.00,,,0.00,0.00,VWS V14.01,2013-11-09 00:18:00,
2013-11-08 19:19:00,39.8,31.5,30.20,NW,321,0.0,0.0,72,0.00,,,0.00,0.00,VWS V14.01,2013-11-09 00:19:00,
2013-11-08 19:20:00,39.6,31.3,30.20,NW,321,0.0,0.0,72,0.00,,,0.00,0.00,VWS V14.01,2013-11-09 00:20:00,
2013-11-08 19:21:00,39.6,31.7,30.20,NW,321,0.0,0.0,73,0.00,,,0.00,0.00,VWS V14.01,2013-11-09 00:21:00,
2013-11-08 19:22:00,39.9,30.9,30.20,NW,321,0.0,0.0,70,0.00,,,0.00,0.00,VWS V14.01,2013-11-09 00:22:00,
2013-11-08 19:23:00,39.6,32.0,30.20,NW,321,0.0,0.0,74,0.00,,,0.00,0.00,VWS V14.01,2013-11-09 00:23:00,
2013-11-08 19:24:00,39.5,31.9,30.20,NW,321,0.0,0.0,74,0.00,,,0.00,0.00,VWS V14.01,2013-11-09 00:24:00,
2013-11-08 19:25:00,39.5,31.9,30.20,NW,321,0.0,0.0,74,0.00,,,0.00,0.00,VWS V14.01,2013-11-09 00:25:00,
2013-11-08 19:26:00,39.5,31.9,30.20,NW,321,0.0,0.0,74,0.00,,,0.00,0.00,VWS V14.01,2013-11-09 00:26:00,
2013-11-08 19:27:00,39.6,31.7,30.20,NW,321,0.0,0.0,73,0.00,,,0.00,0.00,VWS V14.01,2013-11-09 00:27:00,
2013-11-08 19:28:00,39.3,31.7,30.20,NW,321,0.0,0.0,74,0.00,,,0.00,0.00,VWS V14.01,2013-11-09 00:28:00,
2013-11-08 19:29:00,39.3,31.7,30.20,NW,321,0.0,0.0,74,0.00,,,0.00,0.00,VWS V14.01,2013-11-09 00:29:00,
2013-11-08 19:30:00,39.3,32.0,30.20,NW,321,0.0,0.0,75,0.00,,,0.00,0.00,VWS V14.01,2013-11-09 00:30:00,
2013-11-08 19:31:00,39.2,32.0,30.20,NW,321,0.0,0.0,75,0.00,,,0.00,0.00,VWS V14.01,2013-11-09 00:31:00,
2013-11-08 19:32:00,39.5,31.9,30.20,NW,321,0.0,0.0,74,0.00,,,0.00,0.00,VWS V14.01,2013-11-09 00:32:00,
2013-11-08 19:33:00,39.2,32.0,30.20,NW,321,0.0,0.0,75,0.00,,,0.00,0.00,VWS V14.01,2013-11-09 00:33:00,
2013-11-08 19:34:00,39.1,31.9,30.20,NW,321,0.0,0.0,75,0.00,,,0.00,0.00,VWS V14.01,2013-11-09 00:34:00,
2013-11-08 19:35:00,39.1,31.9,30.20,NW,321,0.0,0.0,75,0.00,,,0.00,0.00,VWS V14.01,2013-11-09 00:35:00,
2013-11-08 19:36:00,39.1,31.9,30.20,NW,321,0.0,0.0,75,0.00,,,0.00,0.00,VWS V14.01,2013-11-09 00:36:00,
2013-11-08 19:37:00,39.2,32.0,30.20,NW,321,0.0,0.0,75,0.00,,,0.00,0.00,VWS V14.01,2013-11-09 00:37:00,
2013-11-08 19:38:00,38.9,32.0,30.20,NW,321,0.0,0.0,76,0.00,,,0.00,0.00,VWS V14.01,2013-11-09 00:38:00,
2013-11-08 19:39:00,38.9,32.0,30.20,NW,321,0.0,0.0,76,0.00,,,0.00,0.00,VWS V14.01,2013-11-09 00:39:00,
2013-11-08 19:40:00,38.8,31.9,30.20,NW,321,0.0,0.0,76,0.00,,,0.00,0.00,VWS V14.01,2013-11-09 00:40:00,
2013-11-08 19:41:00,38.8,31.9,30.20,NW,321,0.0,0.0,76,0.00,,,0.00,0.00,VWS V14.01,2013-11-09 00:41:00,
2013-11-08 19:42:00,39.1,31.9,30.20,NW,321,0.0,0.0,75,0.00,,,0.00,0.00,VWS V14.01,2013-11-09 00:42:00,
2013-11-08 19:43:00,38.8,31.9,30.20,NW,321,0.0,0.0,76,0.00,,,0.00,0.00,VWS V14.01,2013-11-09 00:43:00,
2013-11-08 19:44:00,38.6,32.0,30.20,NW,321,0.0,0.0,77,0.00,,,0.00,0.00,VWS V14.01,2013-11-09 00:44:00,
2013-11-08 19:45:00,38.6,32.0,30.20,NW,321,0.0,0.0,77,0.00,,,0.00,0.00,VWS V14.01,2013-11-09 00:45:00,
2013-11-08 19:46:00,38.5,31.9,30.20,NW,321,0.0,0.0,77,0.00,,,0.00,0.00,VWS V14.01,2013-11-09 00:46:00,
2013-11-08 19:47:00,38.8,31.9,30.20,NW,321,0.0,0.0,76,0.00,,,0.00,0.00,VWS V14.01,2013-11-09 00:47:00,
2013-11-08 19:48:00,38.5,31.6,30.20,NW,321,0.0,0.0,76,0.00,,,0.00,0.00,VWS V14.01,2013-11-09 00:48:00,
2013-11-08 19:49:00,38.3,31.4,30.20,NW,321,0.0,0.0,76,0.00,,,0.00,0.00,VWS V14.01,2013-11-09 00:49:00,
2013-11-08 19:50:00,38.3,31.4,30.20,NW,321,0.0,0.0,76,0.00,,,0.00,0.00,VWS V14.01,2013-11-09 00:50:00,
2013-11-08 19:51:00,38.3,31.4,30.20,NW,321,0.0,0.0,76,0.00,,,0.00,0.00,VWS V14.01,2013-11-09 00:51:00,
2013-11-08 19:52:00,38.5,31.9,30.20,NW,321,0.0,0.0,77,0.00,,,0.00,0.00,VWS V14.01,2013-11-09 00:52:00,
2013-11-08 19:53:00,38.3,31.4,30.20,NW,321,0.0,0.0,76,0.00,,,0.00,0.00,VWS V14.01,2013-11-09 00:53:00,
2013-11-08 19:54:00,38.2,31.6,30.20,NW,321,0.0,0.0,77,0.00,,,0.00,0.00,VWS V14.01,2013-11-09 00:54:00,
2013-11-08 19:55:00,38.2,31.6,30.20,NW,321,0.0,0.0,77,0.00,,,0.00,0.00,VWS V14.01,2013-11-09 00:55:00,
2013-11-08 19:56:00,38.0,31.4,30.20,NW,321,0.0,0.0,77,0.00,,,0.00,0.00,VWS V14.01,2013-11-09 00:56:00,
2013-11-08 19:57:00,38.3,31.4,30.20,NW,321,0.0,0.0,76,0.00,,,0.00,0.00,VWS V14.01,2013-11-09 00:57:00,
2013-11-08 19:58:00,38.0,31.4,30.20,NW,321,0.0,0.0,77,0.00,,,0.00,0.00,VWS V14.01,2013-11-09 00:58:00,
2013-11-08 19:59:00,38.0,31.8,30.20,NW,321,0.0,0.0,78,0.00,,,0.00,0.00,VWS V14.01,2013-11-09 00:59:00,
2013-11-08 20:00:00,38.0,32.1,30.21,NW,321,0.0,0.0,79,0.00,,,0.00,0.00,VWS V14.01,2013-11-09 01:00:00,
2013-11-08 20:01:00,38.0,32.1,30.21,NW,321,0.0,0.0,79,0.00,,,0.00,0.00,VWS V14.01,2013-11-09 01:01:00,
2013-11-08 20:02:00,38.0,31.4,30.20,NW,321,0.0,0.0,77,0.00,,,0.00,0.00,VWS V14.01,2013-11-09 01:02:00,
2013-11-08 20:03:00,37.9,32.3,30.21,NW,321,0.0,0.0,80,0.00,,,0.00,0.00,VWS V14.01,2013-11-09 01:03:00,
2013-11-08 20:04:00,37.9,32.3,30.21,NW,321,0.0,0.0,80,0.00,,,0.00,0.00,VWS V14.01,2013-11-09 01:04:00,
2013-11-08 20:05:00,38.0,32.7,30.21,NW,321,0.0,0.0,81,0.00,,,0.00,0.00,VWS V14.01,2013-11-09 01:05:00,
2013-11-08 20:06:00,37.9,32.6,30.21,NW,321,0.0,0.0,81,0.00,,,0.00,0.00,VWS V14.01,2013-11-09 01:06:00,
2013-11-08 20:07:00,38.0,32.1,30.21,NW,321,0.0,0.0,79,0.00,,,0.00,0.00,VWS V14.01,2013-11-09 01:07:00,
2013-11-08 20:08:00,37.9,32.6,30.21,NW,321,0.0,0.0,81,0.00,,,0.00,0.00,VWS V14.01,2013-11-09 01:08:00,
2013-11-08 20:09:00,37.9,32.6,30.21,NW,321,0.0,0.0,81,0.00,,,0.00,0.00,VWS V14.01,2013-11-09 01:09:00,
2013-11-08 20:10:00,37.9,32.6,30.21,NW,321,0.0,0.0,81,0.00,,,0.00,0.00,VWS V14.01,2013-11-09 01:10:00,
2013-11-08 20:11:00,37.9,32.6,30.21,NW,321,0.0,0.0,81,0.00,,,0.00,0.00,VWS V14.01,2013-11-09 01:11:00,
2013-11-08 20:12:00,37.9,32.6,30.21,NW,321,0.0,0.0,81,0.00,,,0.00,0.00,VWS V14.01,2013-11-09 01:12:00,
2013-11-08 20:13:00,37.9,32.6,30.21,NW,321,0.0,0.0,81,0.00,,,0.00,0.00,VWS V14.01,2013-11-09 01:13:00,
2013-11-08 20:14:00,37.9,32.6,30.21,NW,321,0.0,0.0,81,0.00,,,0.00,0.00,VWS V14.01,2013-11-09 01:14:00,
2013-11-08 20:15:00,37.9,32.6,30.22,NW,321,0.0,0.0,81,0.00,,,0.00,0.00,VWS V14.01,2013-11-09 01:15:00,
2013-11-08 20:16:00,37.9,32.6,30.22,NW,321,0.0,0.0,81,0.00,,,0.00,0.00,VWS V14.01,2013-11-09 01:16:00,
2013-11-08 20:17:00,37.9,32.6,30.21,NW,321,0.0,0.0,81,0.00,,,0.00,0.00,VWS V14.01,2013-11-09 01:17:00,
2013-11-08 20:18:00,37.8,32.8,30.22,NW,321,0.0,0.0,82,0.00,,,0.00,0.00,VWS V14.01,2013-11-09 01:18:00,
2013-11-08 20:19:00,37.8,32.8,30.22,NW,321,0.0,0.0,82,0.00,,,0.00,0.00,VWS V14.01,2013-11-09 01:19:00,
2013-11-08 20:20:00,37.8,32.8,30.22,NW,321,0.0,0.0,82,0.00,,,0.00,0.00,VWS V14.01,2013-11-09 01:20:00,
2013-11-08 20:21:00,37.8,32.8,30.22,NW,321,0.0,2.0,82,0.00,,,0.00,0.00,VWS V14.01,2013-11-09 01:21:00,
2013-11-08 20:22:00,37.9,32.6,30.22,NW,321,0.0,0.0,81,0.00,,,0.00,0.00,VWS V14.01,2013-11-09 01:22:00,
2013-11-08 20:23:00,37.8,33.1,30.22,NW,321,0.0,0.0,83,0.00,,,0.00,0.00,VWS V14.01,2013-11-09 01:23:00,
2013-11-08 20:24:00,37.6,32.9,30.22,NW,321,0.0,0.0,83,0.00,,,0.00,0.00,VWS V14.01,2013-11-09 01:24:00,
2013-11-08 20:25:00,37.6,32.9,30.22,NW,321,0.0,0.0,83,0.00,,,0.00,0.00,VWS V14.01,2013-11-09 01:25:00,
2013-11-08 20:26:00,37.6,32.9,30.22,NW,321,0.0,0.0,83,0.00,,,0.00,0.00,VWS V14.01,2013-11-09 01:26:00,
2013-11-08 20:27:00,37.8,32.8,30.22,NW,321,1.0,2.0,82,0.00,,,0.00,0.00,VWS V14.01,2013-11-09 01:27:00,
2013-11-08 20:28:00,37.6,32.9,30.22,NW,321,0.0,0.0,83,0.00,,,0.00,0.00,VWS V14.01,2013-11-09 01:28:00,
2013-11-08 20:29:00,37.6,32.9,30.22,NW,321,0.0,0.0,83,0.00,,,0.00,0.00,VWS V14.01,2013-11-09 01:29:00,
2013-11-08 20:30:00,37.6,32.9,30.22,NW,321,0.0,0.0,83,0.00,,,0.00,0.00,VWS V14.01,2013-11-09 01:30:00,
2013-11-08 20:31:00,37.5,32.8,30.22,NW,321,0.0,0.0,83,0.00,,,0.00,0.00,VWS V14.01,2013-11-09 01:31:00,
2013-11-08 20:32:00,37.6,32.9,30.22,NW,321,0.0,0.0,83,0.00,,,0.00,0.00,VWS V14.01,2013-11-09 01:32:00,
2013-11-08 20:33:00,37.5,32.8,30.22,NW,321,0.0,0.0,83,0.00,,,0.00,0.00,VWS V14.01,2013-11-09 01:33:00,
2013-11-08 20:34:00,37.5,33.1,30.22,NW,321,0.0,0.0,84,0.00,,,0.00,0.00,VWS V14.01,2013-11-09 01:34:00,
2013-11-08 20:35:00,37.5,33.1,30.22,NW,321,0.0,0.0,84,0.00,,,0.00,0.00,VWS V14.01,2013-11-09 01:35:00,
2013-11-08 20:36:00,37.5,33.1,30.22,NW,321,0.0,0.0,84,0.00,,,0.00,0.00,VWS V14.01,2013-11-09 01:36:00,
2013-11-08 20:37:00,37.5,32.8,30.22,NW,321,0.0,0.0,83,0.00,,,0.00,0.00,VWS V14.01,2013-11-09 01:37:00,
2013-11-08 20:38:00,37.5,33.1,30.22,NW,321,0.0,0.0,84,0.00,,,0.00,0.00,VWS V14.01,2013-11-09 01:38:00,
2013-11-08 20:39:00,37.3,32.9,30.22,NW,321,0.0,0.0,84,0.00,,,0.00,0.00,VWS V14.01,2013-11-09 01:39:00,
2013-11-08 20:40:00,37.3,32.9,30.22,NW,321,0.0,0.0,84,0.00,,,0.00,0.00,VWS V14.01,2013-11-09 01:40:00,
2013-11-08 20:41:00,37.3,32.9,30.22,NW,321,0.0,0.0,84,0.00,,,0.00,0.00,VWS V14.01,2013-11-09 01:41:00,
2013-11-08 20:42:00,37.5,33.1,30.22,NW,321,0.0,0.0,84,0.00,,,0.00,0.00,VWS V14.01,2013-11-09 01:42:00,
2013-11-08 20:43:00,37.3,32.9,30.22,NW,321,0.0,0.0,84,0.00,,,0.00,0.00,VWS V14.01,2013-11-09 01:43:00,
2013-11-08 20:44:00,37.3,32.9,30.22,NW,321,0.0,0.0,84,0.00,,,0.00,0.00,VWS V14.01,2013-11-09 01:44:00,
2013-11-08 20:45:00,37.3,32.9,30.23,NW,321,0.0,0.0,84,0.00,,,0.00,0.00,VWS V14.01,2013-11-09 01:45:00,
2013-11-08 20:46:00,37.2,32.8,30.23,NW,321,0.0,0.0,84,0.00,,,0.00,0.00,VWS V14.01,2013-11-09 01:46:00,
2013-11-08 20:47:00,37.3,32.9,30.22,NW,321,0.0,0.0,84,0.00,,,0.00,0.00,VWS V14.01,2013-11-09 01:47:00,
2013-11-08 20:48:00,37.2,32.8,30.23,NW,321,0.0,0.0,84,0.00,,,0.00,0.00,VWS V14.01,2013-11-09 01:48:00,
2013-11-08 20:49:00,37.2,33.1,30.23,NW,321,0.0,0.0,85,0.00,,,0.00,0.00,VWS V14.01,2013-11-09 01:49:00,
2013-11-08 20:50:00,37.2,33.1,30.23,NW,321,0.0,0.0,85,0.00,,,0.00,0.00,VWS V14.01,2013-11-09 01:50:00,
2013-11-08 20:51:00,37.2,33.1,30.23,NW,321,0.0,0.0,85,0.00,,,0.00,0.00,VWS V14.01,2013-11-09 01:51:00,
2013-11-08 20:52:00,37.2,32.8,30.23,NW,321,0.0,0.0,84,0.00,,,0.00,0.00,VWS V14.01,2013-11-09 01:52:00,
2013-11-08 20:53:00,37.2,33.1,30.23,NW,321,0.0,0.0,85,0.00,,,0.00,0.00,VWS V14.01,2013-11-09 01:53:00,
2013-11-08 20:54:00,37.0,32.9,30.23,NW,321,0.0,0.0,85,0.00,,,0.00,0.00,VWS V14.01,2013-11-09 01:54:00,
2013-11-08 20:55:00,37.0,32.9,30.23,NW,321,0.0,0.0,85,0.00,,,0.00,0.00,VWS V14.01,2013-11-09 01:55:00,
2013-11-08 20:56:00,37.0,32.9,30.23,NW,321,0.0,0.0,85,0.00,,,0.00,0.00,VWS V14.01,2013-11-09 01:56:00,
2013-11-08 20:57:00,37.2,33.1,30.23,NW,321,0.0,0.0,85,0.00,,,0.00,0.00,VWS V14.01,2013-11-09 01:57:00,
2013-11-08 20:58:00,37.0,32.9,30.23,NW,321,0.0,0.0,85,0.00,,,0.00,0.00,VWS V14.01,2013-11-09 01:58:00,
2013-11-08 20:59:00,37.0,32.9,30.23,NW,321,0.0,0.0,85,0.00,,,0.00,0.00,VWS V14.01,2013-11-09 01:59:00,
2013-11-08 21:00:00,36.9,32.8,30.22,NW,321,0.0,0.0,85,0.00,,,0.00,0.00,VWS V14.01,2013-11-09 02:00:00,
2013-11-08 21:01:00,36.9,32.8,30.22,NW,321,0.0,0.0,85,0.00,,,0.00,0.00,VWS V14.01,2013-11-09 02:01:00,
2013-11-08 21:02:00,37.0,32.9,30.23,NW,321,0.0,0.0,85,0.00,,,0.00,0.00,VWS V14.01,2013-11-09 02:02:00,
2013-11-08 21:03:00,36.9,33.1,30.22,NW,321,0.0,0.0,86,0.00,,,0.00,0.00,VWS V14.01,2013-11-09 02:03:00,
2013-11-08 21:04:00,36.9,33.1,30.22,NW,321,0.0,0.0,86,0.00,,,0.00,0.00,VWS V14.01,2013-11-09 02:04:00,
2013-11-08 21:05:00,36.9,33.1,30.22,NW,321,0.0,0.0,86,0.00,,,0.00,0.00,VWS V14.01,2013-11-09 02:05:00,
2013-11-08 21:06:00,36.9,33.1,30.22,NW,321,0.0,0.0,86,0.00,,,0.00,0.00,VWS V14.01,2013-11-09 02:06:00,
2013-11-08 21:07:00,36.9,32.8,30.22,NW,321,0.0,0.0,85,0.00,,,0.00,0.00,VWS V14.01,2013-11-09 02:07:00,
2013-11-08 21:08:00,36.9,33.1,30.22,NW,321,0.0,0.0,86,0.00,,,0.00,0.00,VWS V14.01,2013-11-09 02:08:00,
2013-11-08 21:09:00,36.9,33.1,30.22,NW,321,0.0,0.0,86,0.00,,,0.00,0.00,VWS V14.01,2013-11-09 02:09:00,
2013-11-08 21:10:00,36.8,33.0,30.22,NW,321,0.0,0.0,86,0.00,,,0.00,0.00,VWS V14.01,2013-11-09 02:10:00,
2013-11-08 21:11:00,36.8,33.0,30.22,NW,321,0.0,0.0,86,0.00,,,0.00,0.00,VWS V14.01,2013-11-09 02:11:00,
2013-11-08 21:12:00,36.9,33.1,30.22,NW,321,0.0,0.0,86,0.00,,,0.00,0.00,VWS V14.01,2013-11-09 02:12:00,
2013-11-08 21:13:00,36.8,33.0,30.22,NW,321,0.0,0.0,86,0.00,,,0.00,0.00,VWS V14.01,2013-11-09 02:13:00,
2013-11-08 21:14:00,36.8,33.0,30.22,NW,321,0.0,0.0,86,0.00,,,0.00,0.00,VWS V14.01,2013-11-09 02:14:00,
2013-11-08 21:15:00,36.8,33.3,30.23,NW,321,0.0,0.0,87,0.00,,,0.00,0.00,VWS V14.01,2013-11-09 02:15:00,
2013-11-08 21:16:00,36.6,33.1,30.23,NW,321,0.0,0.0,87,0.00,,,0.00,0.00,VWS V14.01,2013-11-09 02:16:00,
2013-11-08 21:17:00,36.8,33.0,30.22,NW,321,0.0,0.0,86,0.00,,,0.00,0.00,VWS V14.01,2013-11-09 02:17:00,
2013-11-08 21:18:00,36.6,33.1,30.23,NW,321,0.0,0.0,87,0.00,,,0.00,0.00,VWS V14.01,2013-11-09 02:18:00,
2013-11-08 21:19:00,36.6,33.1,30.23,NW,321,0.0,0.0,87,0.00,,,0.00,0.00,VWS V14.01,2013-11-09 02:19:00,
2013-11-08 21:20:00,36.6,33.1,30.23,NW,321,0.0,0.0,87,0.00,,,0.00,0.00,VWS V14.01,2013-11-09 02:20:00,
2013-11-08 21:21:00,36.6,33.1,30.23,NW,321,0.0,0.0,87,0.00,,,0.00,0.00,VWS V14.01,2013-11-09 02:21:00,
2013-11-08 21:22:00,36.6,33.1,30.23,NW,321,0.0,0.0,87,0.00,,,0.00,0.00,VWS V14.01,2013-11-09 02:22:00,
2013-11-08 21:23:00,36.6,33.1,30.23,NW,321,0.0,0.0,87,0.00,,,0.00,0.00,VWS V14.01,2013-11-09 02:23:00,
2013-11-08 21:24:00,36.5,33.0,30.23,NW,321,0.0,0.0,87,0.00,,,0.00,0.00,VWS V14.01,2013-11-09 02:24:00,
2013-11-08 21:25:00,36.5,33.0,30.23,NW,321,0.0,0.0,87,0.00,,,0.00,0.00,VWS V14.01,2013-11-09 02:25:00,
2013-11-08 21:26:00,36.5,33.0,30.23,NW,321,0.0,0.0,87,0.00,,,0.00,0.00,VWS V14.01,2013-11-09 02:26:00,
2013-11-08 21:27:00,36.6,33.1,30.23,NW,321,0.0,0.0,87,0.00,,,0.00,0.00,VWS V14.01,2013-11-09 02:27:00,
2013-11-08 21:28:00,36.3,32.8,30.23,NW,321,0.0,0.0,87,0.00,,,0.00,0.00,VWS V14.01,2013-11-09 02:28:00,
2013-11-08 21:29:00,36.3,32.8,30.23,NW,321,0.0,0.0,87,0.00,,,0.00,0.00,VWS V14.01,2013-11-09 02:29:00,
2013-11-08 21:30:00,36.3,32.8,30.23,NW,321,0.0,0.0,87,0.00,,,0.00,0.00,VWS V14.01,2013-11-09 02:30:00,
2013-11-08 21:31:00,36.3,32.8,30.23,NW,321,0.0,0.0,87,0.00,,,0.00,0.00,VWS V14.01,2013-11-09 02:31:00,
2013-11-08 21:32:00,36.5,33.0,30.23,NW,321,0.0,0.0,87,0.00,,,0.00,0.00,VWS V14.01,2013-11-09 02:32:00,
2013-11-08 21:33:00,36.2,32.7,30.23,NW,321,0.0,0.0,87,0.00,,,0.00,0.00,VWS V14.01,2013-11-09 02:33:00,
2013-11-08 21:34:00,36.2,32.7,30.23,NW,321,0.0,0.0,87,0.00,,,0.00,0.00,VWS V14.01,2013-11-09 02:34:00,
2013-11-08 21:35:00,36.2,32.7,30.23,NW,321,0.0,0.0,87,0.00,,,0.00,0.00,VWS V14.01,2013-11-09 02:35:00,
2013-11-08 21:36:00,36.2,32.7,30.23,NW,321,0.0,0.0,87,0.00,,,0.00,0.00,VWS V14.01,2013-11-09 02:36:00,
2013-11-08 21:37:00,36.3,32.8,30.23,NW,321,0.0,0.0,87,0.00,,,0.00,0.00,VWS V14.01,2013-11-09 02:37:00,
2013-11-08 21:38:00,36.0,32.5,30.23,NW,321,0.0,0.0,87,0.00,,,0.00,0.00,VWS V14.01,2013-11-09 02:38:00,
2013-11-08 21:39:00,36.0,32.5,30.23,NW,321,0.0,0.0,87,0.00,,,0.00,0.00,VWS V14.01,2013-11-09 02:39:00,
2013-11-08 21:40:00,36.0,32.5,30.23,NW,321,0.0,0.0,87,0.00,,,0.00,0.00,VWS V14.01,2013-11-09 02:40:00,
2013-11-08 21:41:00,35.9,32.4,30.23,NW,321,0.0,0.0,87,0.00,,,0.00,0.00,VWS V14.01,2013-11-09 02:41:00,
2013-11-08 21:42:00,36.2,32.7,30.23,NW,321,0.0,0.0,87,0.00,,,0.00,0.00,VWS V14.01,2013-11-09 02:42:00,
2013-11-08 21:43:00,35.9,32.4,30.23,NW,321,0.0,0.0,87,0.00,,,0.00,0.00,VWS V14.01,2013-11-09 02:43:00,
2013-11-08 21:44:00,35.9,32.4,30.23,NW,321,0.0,0.0,87,0.00,,,0.00,0.00,VWS V14.01,2013-11-09 02:44:00,
2013-11-08 21:45:00,35.8,32.6,30.23,NW,321,0.0,0.0,88,0.00,,,0.00,0.00,VWS V14.01,2013-11-09 02:45:00,
2013-11-08 21:46:00,35.8,32.3,30.23,NW,321,0.0,0.0,87,0.00,,,0.00,0.00,VWS V14.01,2013-11-09 02:46:00,
2013-11-08 21:47:00,35.9,32.4,30.23,NW,321,0.0,0.0,87,0.00,,,0.00,0.00,VWS V14.01,2013-11-09 02:47:00,
2013-11-08 21:48:00,35.8,32.3,30.23,NW,321,0.0,0.0,87,0.00,,,0.00,0.00,VWS V14.01,2013-11-09 02:48:00,
2013-11-08 21:49:00,35.6,32.1,30.23,NW,321,0.0,0.0,87,0.00,,,0.00,0.00,VWS V14.01,2013-11-09 02:49:00,
2013-11-08 21:50:00,35.6,32.1,30.23,NW,321,0.0,0.0,87,0.00,,,0.00,0.00,VWS V14.01,2013-11-09 02:50:00,
2013-11-08 21:51:00,35.6,32.1,30.23,NW,321,0.0,0.0,87,0.00,,,0.00,0.00,VWS V14.01,2013-11-09 02:51:00,
2013-11-08 21:52:00,35.8,32.3,30.23,NW,321,0.0,0.0,87,0.00,,,0.00,0.00,VWS V14.01,2013-11-09 02:52:00,
2013-11-08 21:53:00,35.5,32.0,30.23,NW,321,0.0,0.0,87,0.00,,,0.00,0.00,VWS V14.01,2013-11-09 02:53:00,
2013-11-08 21:54:00,35.5,32.3,30.23,NW,321,0.0,0.0,88,0.00,,,0.00,0.00,VWS V14.01,2013-11-09 02:54:00,
2013-11-08 21:55:00,35.5,32.3,30.23,NW,321,0.0,0.0,88,0.00,,,0.00,0.00,VWS V14.01,2013-11-09 02:55:00,
2013-11-08 21:56:00,35.3,32.1,30.23,NW,321,0.0,0.0,88,0.00,,,0.00,0.00,VWS V14.01,2013-11-09 02:56:00,
2013-11-08 21:57:00,35.6,32.1,30.23,NW,321,0.0,0.0,87,0.00,,,0.00,0.00,VWS V14.01,2013-11-09 02:57:00,
2013-11-08 21:58:00,35.3,32.1,30.23,NW,321,0.0,0.0,88,0.00,,,0.00,0.00,VWS V14.01,2013-11-09 02:58:00,
2013-11-08 21:59:00,35.3,32.1,30.23,NW,321,0.0,0.0,88,0.00,,,0.00,0.00,VWS V14.01,2013-11-09 02:59:00,
2013-11-08 22:00:00,35.2,32.0,30.24,NW,321,0.0,0.0,88,0.00,,,0.00,0.00,VWS V14.01,2013-11-09 03:00:00,
2013-11-08 22:01:00,35.2,32.0,30.24,NW,321,0.0,0.0,88,0.00,,,0.00,0.00,VWS V14.01,2013-11-09 03:01:00,
2013-11-08 22:02:00,35.3,32.1,30.23,NW,321,0.0,0.0,88,0.00,,,0.00,0.00,VWS V14.01,2013-11-09 03:02:00,
2013-11-08 22:03:00,35.0,31.5,30.24,NW,321,0.0,0.0,87,0.00,,,0.00,0.00,VWS V14.01,2013-11-09 03:03:00,
2013-11-08 22:04:00,35.0,31.8,30.24,NW,321,0.0,0.0,88,0.00,,,0.00,0.00,VWS V14.01,2013-11-09 03:04:00,
2013-11-08 22:05:00,35.0,31.8,30.24,NW,321,0.0,0.0,88,0.00,,,0.00,0.00,VWS V14.01,2013-11-09 03:05:00,
2013-11-08 22:06:00,35.0,31.8,30.24,NW,321,0.0,0.0,88,0.00,,,0.00,0.00,VWS V14.01,2013-11-09 03:06:00,
2013-11-08 22:07:00,35.2,32.0,30.24,NW,321,0.0,0.0,88,0.00,,,0.00,0.00,VWS V14.01,2013-11-09 03:07:00,
2013-11-08 22:08:00,35.0,31.8,30.24,NW,321,0.0,0.0,88,0.00,,,0.00,0.00,VWS V14.01,2013-11-09 03:08:00,
2013-11-08 22:09:00,34.9,31.7,30.24,NW,321,0.0,0.0,88,0.00,,,0.00,0.00,VWS V14.01,2013-11-09 03:09:00,
2013-11-08 22:10:00,34.9,31.7,30.24,NW,321,0.0,0.0,88,0.00,,,0.00,0.00,VWS V14.01,2013-11-09 03:10:00,
2013-11-08 22:11:00,34.9,31.7,30.24,NW,321,0.0,0.0,88,0.00,,,0.00,0.00,VWS V14.01,2013-11-09 03:11:00,
2013-11-08 22:12:00,35.0,31.8,30.24,NW,321,0.0,0.0,88,0.00,,,0.00,0.00,VWS V14.01,2013-11-09 03:12:00,
2013-11-08 22:13:00,34.9,31.7,30.24,NW,321,0.0,0.0,88,0.00,,,0.00,0.00,VWS V14.01,2013-11-09 03:13:00,
2013-11-08 22:14:00,34.9,31.7,30.24,NW,321,0.0,0.0,88,0.00,,,0.00,0.00,VWS V14.01,2013-11-09 03:14:00,
2013-11-08 22:15:00,34.7,31.5,30.23,NW,321,0.0,0.0,88,0.00,,,0.00,0.00,VWS V14.01,2013-11-09 03:15:00,
2013-11-08 22:16:00,34.7,31.5,30.23,NW,321,0.0,0.0,88,0.00,,,0.00,0.00,VWS V14.01,2013-11-09 03:16:00,
2013-11-08 22:17:00,34.9,31.7,30.24,NW,321,0.0,0.0,88,0.00,,,0.00,0.00,VWS V14.01,2013-11-09 03:17:00,
2013-11-08 22:18:00,34.7,31.5,30.23,NW,321,0.0,0.0,88,0.00,,,0.00,0.00,VWS V14.01,2013-11-09 03:18:00,
2013-11-08 22:19:00,34.7,31.5,30.23,NW,321,0.0,0.0,88,0.00,,,0.00,0.00,VWS V14.01,2013-11-09 03:19:00,
2013-11-08 22:20:00,34.7,31.5,30.23,NW,321,0.0,0.0,88,0.00,,,0.00,0.00,VWS V14.01,2013-11-09 03:20:00,
2013-11-08 22:21:00,34.6,31.4,30.23,NW,321,0.0,0.0,88,0.00,,,0.00,0.00,VWS V14.01,2013-11-09 03:21:00,
2013-11-08 22:22:00,34.7,31.5,30.23,NW,321,0.0,0.0,88,0.00,,,0.00,0.00,VWS V14.01,2013-11-09 03:22:00,
2013-11-08 22:23:00,34.6,31.4,30.23,NW,321,0.0,0.0,88,0.00,,,0.00,0.00,VWS V14.01,2013-11-09 03:23:00,
2013-11-08 22:24:00,34.6,31.4,30.23,NW,321,0.0,0.0,88,0.00,,,0.00,0.00,VWS V14.01,2013-11-09 03:24:00,
2013-11-08 22:25:00,34.4,31.2,30.23,NW,321,0.0,0.0,88,0.00,,,0.00,0.00,VWS V14.01,2013-11-09 03:25:00,
2013-11-08 22:26:00,34.4,31.2,30.23,NW,321,0.0,0.0,88,0.00,,,0.00,0.00,VWS V14.01,2013-11-09 03:26:00,
2013-11-08 22:27:00,34.6,31.4,30.23,NW,321,0.0,0.0,88,0.00,,,0.00,0.00,VWS V14.01,2013-11-09 03:27:00,
2013-11-08 22:28:00,34.4,31.2,30.23,NW,321,0.0,0.0,88,0.00,,,0.00,0.00,VWS V14.01,2013-11-09 03:28:00,
2013-11-08 22:29:00,34.4,31.2,30.23,NW,321,0.0,0.0,88,0.00,,,0.00,0.00,VWS V14.01,2013-11-09 03:29:00,
2013-11-08 22:30:00,34.4,31.2,30.24,NW,321,0.0,0.0,88,0.00,,,0.00,0.00,VWS V14.01,2013-11-09 03:30:00,
2013-11-08 22:31:00,34.3,31.1,30.24,NW,321,0.0,0.0,88,0.00,,,0.00,0.00,VWS V14.01,2013-11-09 03:31:00,
2013-11-08 22:32:00,34.4,31.2,30.23,NW,321,0.0,0.0,88,0.00,,,0.00,0.00,VWS V14.01,2013-11-09 03:32:00,
2013-11-08 22:33:00,34.3,31.1,30.24,NW,321,0.0,0.0,88,0.00,,,0.00,0.00,VWS V14.01,2013-11-09 03:33:00,
2013-11-08 22:34:00,34.3,31.1,30.24,NW,321,0.0,0.0,88,0.00,,,0.00,0.00,VWS V14.01,2013-11-09 03:34:00,
2013-11-08 22:35:00,34.3,31.1,30.24,NW,321,0.0,0.0,88,0.00,,,0.00,0.00,VWS V14.01,2013-11-09 03:35:00,
2013-11-08 22:36:00,34.3,31.1,30.24,NW,321,0.0,0.0,88,0.00,,,0.00,0.00,VWS V14.01,2013-11-09 03:36:00,
2013-11-08 22:37:00,34.3,31.1,30.24,NW,321,0.0,0.0,88,0.00,,,0.00,0.00,VWS V14.01,2013-11-09 03:37:00,
2013-11-08 22:38:00,34.3,31.1,30.24,NW,321,0.0,0.0,88,0.00,,,0.00,0.00,VWS V14.01,2013-11-09 03:38:00,
2013-11-08 22:39:00,34.1,30.9,30.24,NW,321,0.0,0.0,88,0.00,,,0.00,0.00,VWS V14.01,2013-11-09 03:39:00,
2013-11-08 22:40:00,34.1,30.9,30.24,NW,321,0.0,0.0,88,0.00,,,0.00,0.00,VWS V14.01,2013-11-09 03:40:00,
2013-11-08 22:41:00,34.1,30.9,30.24,NW,321,0.0,0.0,88,0.00,,,0.00,0.00,VWS V14.01,2013-11-09 03:41:00,
2013-11-08 22:42:00,34.3,31.1,30.24,NW,321,0.0,0.0,88,0.00,,,0.00,0.00,VWS V14.01,2013-11-09 03:42:00,
2013-11-08 22:43:00,34.1,31.2,30.24,NW,321,0.0,0.0,89,0.00,,,0.00,0.00,VWS V14.01,2013-11-09 03:43:00,
2013-11-08 22:44:00,34.1,31.2,30.24,NW,321,0.0,0.0,89,0.00,,,0.00,0.00,VWS V14.01,2013-11-09 03:44:00,
2013-11-08 22:45:00,34.1,31.2,30.23,NW,321,0.0,0.0,89,0.00,,,0.00,0.00,VWS V14.01,2013-11-09 03:45:00,
2013-11-08 22:46:00,34.1,31.2,30.23,NW,321,0.0,0.0,89,0.00,,,0.00,0.00,VWS V14.01,2013-11-09 03:46:00,
2013-11-08 22:47:00,34.1,30.9,30.24,NW,321,0.0,0.0,88,0.00,,,0.00,0.00,VWS V14.01,2013-11-09 03:47:00,
2013-11-08 22:48:00,34.1,31.2,30.23,NW,321,0.0,0.0,89,0.00,,,0.00,0.00,VWS V14.01,2013-11-09 03:48:00,
2013-11-08 22:49:00,34.1,31.2,30.23,NW,321,0.0,0.0,89,0.00,,,0.00,0.00,VWS V14.01,2013-11-09 03:49:00,
2013-11-08 22:50:00,34.1,31.2,30.23,NW,321,0.0,0.0,89,0.00,,,0.00,0.00,VWS V14.01,2013-11-09 03:50:00,
2013-11-08 22:51:00,34.1,31.2,30.23,NW,321,0.0,0.0,89,0.00,,,0.00,0.00,VWS V14.01,2013-11-09 03:51:00,
2013-11-08 22:52:00,34.1,31.2,30.23,NW,321,0.0,0.0,89,0.00,,,0.00,0.00,VWS V14.01,2013-11-09 03:52:00,
2013-11-08 22:53:00,34.1,31.2,30.23,NW,321,0.0,0.0,89,0.00,,,0.00,0.00,VWS V14.01,2013-11-09 03:53:00,
2013-11-08 22:54:00,34.1,31.2,30.23,NW,321,0.0,0.0,89,0.00,,,0.00,0.00,VWS V14.01,2013-11-09 03:54:00,
2013-11-08 22:55:00,34.1,31.2,30.23,NW,321,0.0,0.0,89,0.00,,,0.00,0.00,VWS V14.01,2013-11-09 03:55:00,
2013-11-08 22:56:00,34.1,31.2,30.23,NW,321,0.0,0.0,89,0.00,,,0.00,0.00,VWS V14.01,2013-11-09 03:56:00,
2013-11-08 22:57:00,34.1,31.2,30.23,NW,321,0.0,0.0,89,0.00,,,0.00,0.00,VWS V14.01,2013-11-09 03:57:00,
2013-11-08 22:58:00,34.0,31.1,30.23,NW,321,0.0,0.0,89,0.00,,,0.00,0.00,VWS V14.01,2013-11-09 03:58:00,
2013-11-08 22:59:00,34.0,31.1,30.23,NW,321,0.0,0.0,89,0.00,,,0.00,0.00,VWS V14.01,2013-11-09 03:59:00,
2013-11-08 23:00:00,34.0,31.1,30.24,NW,321,0.0,0.0,89,0.00,,,0.00,0.00,VWS V14.01,2013-11-09 04:00:00,
2013-11-08 23:01:00,34.0,31.1,30.24,NW,321,0.0,0.0,89,0.00,,,0.00,0.00,VWS V14.01,2013-11-09 04:01:00,
2013-11-08 23:02:00,34.1,31.2,30.23,NW,321,0.0,0.0,89,0.00,,,0.00,0.00,VWS V14.01,2013-11-09 04:02:00,
2013-11-08 23:03:00,34.0,31.1,30.24,NW,321,0.0,0.0,89,0.00,,,0.00,0.00,VWS V14.01,2013-11-09 04:03:00,
2013-11-08 23:04:00,34.0,31.1,30.24,NW,321,0.0,0.0,89,0.00,,,0.00,0.00,VWS V14.01,2013-11-09 04:04:00,
2013-11-08 23:05:00,34.0,31.1,30.24,NW,321,0.0,0.0,89,0.00,,,0.00,0.00,VWS V14.01,2013-11-09 04:05:00,
2013-11-08 23:06:00,33.8,30.9,30.24,NW,321,0.0,0.0,89,0.00,,,0.00,0.00,VWS V14.01,2013-11-09 04:06:00,
2013-11-08 23:07:00,34.0,31.1,30.24,NW,321,0.0,0.0,89,0.00,,,0.00,0.00,VWS V14.01,2013-11-09 04:07:00,
2013-11-08 23:08:00,33.8,30.9,30.24,NW,321,0.0,0.0,89,0.00,,,0.00,0.00,VWS V14.01,2013-11-09 04:08:00,
2013-11-08 23:09:00,33.8,30.9,30.24,NW,321,0.0,0.0,89,0.00,,,0.00,0.00,VWS V14.01,2013-11-09 04:09:00,
2013-11-08 23:10:00,33.8,30.9,30.24,NW,321,0.0,0.0,89,0.00,,,0.00,0.00,VWS V14.01,2013-11-09 04:10:00,
2013-11-08 23:11:00,33.8,31.2,30.24,NW,321,0.0,0.0,90,0.00,,,0.00,0.00,VWS V14.01,2013-11-09 04:11:00,
2013-11-08 23:12:00,33.8,30.9,30.24,NW,321,0.0,0.0,89,0.00,,,0.00,0.00,VWS V14.01,2013-11-09 04:12:00,
2013-11-08 23:13:00,33.7,31.1,30.24,NW,321,0.0,0.0,90,0.00,,,0.00,0.00,VWS V14.01,2013-11-09 04:13:00,
2013-11-08 23:14:00,33.7,31.1,30.24,NW,321,0.0,0.0,90,0.00,,,0.00,0.00,VWS V14.01,2013-11-09 04:14:00,
2013-11-08 23:15:00,33.7,31.1,30.24,NW,321,0.0,0.0,90,0.00,,,0.00,0.00,VWS V14.01,2013-11-09 04:15:00,
2013-11-08 23:16:00,33.7,31.1,30.24,NW,321,0.0,0.0,90,0.00,,,0.00,0.00,VWS V14.01,2013-11-09 04:16:00,
2013-11-08 23:17:00,33.8,31.2,30.24,NW,321,0.0,0.0,90,0.00,,,0.00,0.00,VWS V14.01,2013-11-09 04:17:00,
2013-11-08 23:18:00,33.7,31.1,30.24,NW,321,0.0,0.0,90,0.00,,,0.00,0.00,VWS V14.01,2013-11-09 04:18:00,
2013-11-08 23:19:00,33.5,30.9,30.24,NW,321,0.0,0.0,90,0.00,,,0.00,0.00,VWS V14.01,2013-11-09 04:19:00,
2013-11-08 23:20:00,33.5,30.9,30.24,NW,321,0.0,0.0,90,0.00,,,0.00,0.00,VWS V14.01,2013-11-09 04:20:00,
2013-11-08 23:21:00,33.5,30.9,30.24,NW,321,0.0,0.0,90,0.00,,,0.00,0.00,VWS V14.01,2013-11-09 04:21:00,
2013-11-08 23:22:00,33.7,31.1,30.24,NW,321,0.0,0.0,90,0.00,,,0.00,0.00,VWS V14.01,2013-11-09 04:22:00,
2013-11-08 23:23:00,33.5,30.9,30.24,NW,321,0.0,0.0,90,0.00,,,0.00,0.00,VWS V14.01,2013-11-09 04:23:00,
2013-11-08 23:24:00,33.4,30.8,30.24,NW,321,0.0,0.0,90,0.00,,,0.00,0.00,VWS V14.01,2013-11-09 04:24:00,
2013-11-08 23:25:00,33.4,30.8,30.24,NW,321,0.0,0.0,90,0.00,,,0.00,0.00,VWS V14.01,2013-11-09 04:25:00,
2013-11-08 23:26:00,33.4,30.8,30.24,NW,321,0.0,0.0,90,0.00,,,0.00,0.00,VWS V14.01,2013-11-09 04:26:00,
2013-11-08 23:27:00,33.5,30.9,30.24,NW,321,0.0,0.0,90,0.00,,,0.00,0.00,VWS V14.01,2013-11-09 04:27:00,
2013-11-08 23:28:00,33.4,30.8,30.24,NW,321,0.0,0.0,90,0.00,,,0.00,0.00,VWS V14.01,2013-11-09 04:28:00,
2013-11-08 23:29:00,33.4,30.8,30.24,NW,321,0.0,0.0,90,0.00,,,0.00,0.00,VWS V14.01,2013-11-09 04:29:00,
2013-11-08 23:30:00,33.2,30.6,30.24,NW,321,0.0,0.0,90,0.00,,,0.00,0.00,VWS V14.01,2013-11-09 04:30:00,
2013-11-08 23:31:00,33.2,30.6,30.24,NW,321,0.0,0.0,90,0.00,,,0.00,0.00,VWS V14.01,2013-11-09 04:31:00,
2013-11-08 23:32:00,33.4,30.8,30.24,NW,321,0.0,0.0,90,0.00,,,0.00,0.00,VWS V14.01,2013-11-09 04:32:00,
2013-11-08 23:33:00,33.2,30.6,30.24,NW,321,0.0,0.0,90,0.00,,,0.00,0.00,VWS V14.01,2013-11-09 04:33:00,
2013-11-08 23:34:00,33.2,30.6,30.24,NW,321,0.0,0.0,90,0.00,,,0.00,0.00,VWS V14.01,2013-11-09 04:34:00,
2013-11-08 23:35:00,33.2,30.6,30.24,NW,321,0.0,0.0,90,0.00,,,0.00,0.00,VWS V14.01,2013-11-09 04:35:00,
2013-11-08 23:36:00,33.2,30.6,30.24,NW,321,0.0,0.0,90,0.00,,,0.00,0.00,VWS V14.01,2013-11-09 04:36:00,
2013-11-08 23:37:00,33.2,30.6,30.24,NW,321,0.0,0.0,90,0.00,,,0.00,0.00,VWS V14.01,2013-11-09 04:37:00,
2013-11-08 23:38:00,33.2,30.6,30.24,NW,321,0.0,0.0,90,0.00,,,0.00,0.00,VWS V14.01,2013-11-09 04:38:00,
2013-11-08 23:39:00,33.2,30.6,30.24,NW,321,0.0,0.0,90,0.00,,,0.00,0.00,VWS V14.01,2013-11-09 04:39:00,
2013-11-08 23:40:00,33.2,30.6,30.24,NW,321,0.0,0.0,90,0.00,,,0.00,0.00,VWS V14.01,2013-11-09 04:40:00,
2013-11-08 23:41:00,33.1,30.5,30.24,NW,321,0.0,0.0,90,0.00,,,0.00,0.00,VWS V14.01,2013-11-09 04:41:00,
2013-11-08 23:42:00,33.2,30.6,30.24,NW,321,0.0,0.0,90,0.00,,,0.00,0.00,VWS V14.01,2013-11-09 04:42:00,
2013-11-08 23:43:00,33.1,30.5,30.24,NW,321,0.0,0.0,90,0.00,,,0.00,0.00,VWS V14.01,2013-11-09 04:43:00,
2013-11-08 23:44:00,33.1,30.5,30.24,NW,321,0.0,0.0,90,0.00,,,0.00,0.00,VWS V14.01,2013-11-09 04:44:00,
2013-11-08 23:45:00,33.1,30.5,30.24,NW,321,0.0,0.0,90,0.00,,,0.00,0.00,VWS V14.01,2013-11-09 04:45:00,
2013-11-08 23:46:00,33.1,30.5,30.24,NW,321,0.0,0.0,90,0.00,,,0.00,0.00,VWS V14.01,2013-11-09 04:46:00,
2013-11-08 23:47:00,33.1,30.5,30.24,NW,321,0.0,0.0,90,0.00,,,0.00,0.00,VWS V14.01,2013-11-09 04:47:00,
2013-11-08 23:48:00,33.1,30.5,30.24,NW,321,0.0,0.0,90,0.00,,,0.00,0.00,VWS V14.01,2013-11-09 04:48:00,
2013-11-08 23:49:00,33.1,30.5,30.24,NW,321,0.0,0.0,90,0.00,,,0.00,0.00,VWS V14.01,2013-11-09 04:49:00,
2013-11-08 23:50:00,33.1,30.5,30.24,NW,321,0.0,0.0,90,0.00,,,0.00,0.00,VWS V14.01,2013-11-09 04:50:00,
2013-11-08 23:51:00,33.1,30.5,30.24,NW,321,0.0,0.0,90,0.00,,,0.00,0.00,VWS V14.01,2013-11-09 04:51:00,
2013-11-08 23:52:00,33.1,30.5,30.24,NW,321,0.0,0.0,90,0.00,,,0.00,0.00,VWS V14.01,2013-11-09 04:52:00,
2013-11-08 23:53:00,33.1,30.5,30.24,NW,321,0.0,0.0,90,0.00,,,0.00,0.00,VWS V14.01,2013-11-09 04:53:00,
2013-11-08 23:54:00,33.1,30.8,30.24,NW,321,0.0,0.0,91,0.00,,,0.00,0.00,VWS V14.01,2013-11-09 04:54:00,
2013-11-08 23:55:00,33.1,30.8,30.24,NW,321,0.0,0.0,91,0.00,,,0.00,0.00,VWS V14.01,2013-11-09 04:55:00,
2013-11-08 23:56:00,33.1,30.8,30.24,NW,321,0.0,0.0,91,0.00,,,0.00,0.00,VWS V14.01,2013-11-09 04:56:00,
2013-11-08 23:57:00,33.1,30.5,30.24,NW,321,0.0,0.0,90,0.00,,,0.00,0.00,VWS V14.01,2013-11-09 04:57:00,
2013-11-08 23:58:00,33.1,30.8,30.24,NW,321,0.0,0.0,91,0.00,,,0.00,0.00,VWS V14.01,2013-11-09 04:58:00,
2013-11-08 23:59:00,33.1,30.8,30.24,NW,321,0.0,0.0,91,0.00,,,0.00,0.00,VWS V14.01,2013-11-09 04:59:00,